<?xml version="1.0" encoding="UTF-8" standalone="no" ?>
<gpx xmlns="http://www.topografix.com/GPX/1/1" xmlns:xsi="http://www.w3.org/2001/XMLSchema-instance" xsi:schemaLocation="http://www.topografix.com/GPX/1/1 http://www.topografix.com/GPX/1/1/gpx.xsd" version="1.1" creator="VisuGPX - https://www.visugpx.com">
  <metadata>
    <name>Le Lac de la Carança depuis le refuge</name>
    <desc><![CDATA[Comme son nom l'indique. Après avoir passé une nuit dans les ronflements, aller/retour à ce lac très sympa par un chemin bien humide.]]></desc>
  </metadata>
  <trk>
    <name><![CDATA[2017-05-21 13:55:08 CARANÇAAC AR]]></name>
    <trkseg>
      <trkpt lat="42.46405" lon="2.22405">
        <ele>1793.48</ele>
        <time>2017-05-21T06:10:28Z</time>
      </trkpt>
      <trkpt lat="42.46408" lon="2.22394">
        <ele>1792.52</ele>
        <time>2017-05-21T06:10:40Z</time>
      </trkpt>
      <trkpt lat="42.4641" lon="2.22376">
        <ele>1793</ele>
        <time>2017-05-21T06:10:55Z</time>
      </trkpt>
      <trkpt lat="42.46407" lon="2.22362">
        <ele>1793</ele>
        <time>2017-05-21T06:11:10Z</time>
      </trkpt>
      <trkpt lat="42.46407" lon="2.22359">
        <ele>1793</ele>
        <time>2017-05-21T06:11:12Z</time>
      </trkpt>
      <trkpt lat="42.46402" lon="2.2234">
        <ele>1794.44</ele>
        <time>2017-05-21T06:11:25Z</time>
      </trkpt>
      <trkpt lat="42.464" lon="2.22329">
        <ele>1794.92</ele>
        <time>2017-05-21T06:11:34Z</time>
      </trkpt>
      <trkpt lat="42.46395" lon="2.22316">
        <ele>1796.36</ele>
        <time>2017-05-21T06:11:45Z</time>
      </trkpt>
      <trkpt lat="42.46389" lon="2.22304">
        <ele>1797.32</ele>
        <time>2017-05-21T06:11:56Z</time>
      </trkpt>
      <trkpt lat="42.46384" lon="2.22288">
        <ele>1797.8</ele>
        <time>2017-05-21T06:12:10Z</time>
      </trkpt>
      <trkpt lat="42.46382" lon="2.22274">
        <ele>1798.76</ele>
        <time>2017-05-21T06:12:22Z</time>
      </trkpt>
      <trkpt lat="42.46378" lon="2.22263">
        <ele>1800.21</ele>
        <time>2017-05-21T06:12:35Z</time>
      </trkpt>
      <trkpt lat="42.46377" lon="2.22247">
        <ele>1801.17</ele>
        <time>2017-05-21T06:12:47Z</time>
      </trkpt>
      <trkpt lat="42.46373" lon="2.22235">
        <ele>1802.13</ele>
        <time>2017-05-21T06:12:59Z</time>
      </trkpt>
      <trkpt lat="42.46368" lon="2.22223">
        <ele>1803.09</ele>
        <time>2017-05-21T06:13:10Z</time>
      </trkpt>
      <trkpt lat="42.46362" lon="2.22209">
        <ele>1804.53</ele>
        <time>2017-05-21T06:13:22Z</time>
      </trkpt>
      <trkpt lat="42.46361" lon="2.22206">
        <ele>1804.53</ele>
        <time>2017-05-21T06:13:25Z</time>
      </trkpt>
      <trkpt lat="42.46356" lon="2.22193">
        <ele>1805.97</ele>
        <time>2017-05-21T06:13:37Z</time>
      </trkpt>
      <trkpt lat="42.46349" lon="2.2218">
        <ele>1807.9</ele>
        <time>2017-05-21T06:13:51Z</time>
      </trkpt>
      <trkpt lat="42.46345" lon="2.22172">
        <ele>1808.86</ele>
        <time>2017-05-21T06:14:00Z</time>
      </trkpt>
      <trkpt lat="42.4634" lon="2.22162">
        <ele>1811.26</ele>
        <time>2017-05-21T06:14:11Z</time>
      </trkpt>
      <trkpt lat="42.46349" lon="2.22152">
        <ele>1813.18</ele>
        <time>2017-05-21T06:14:22Z</time>
      </trkpt>
      <trkpt lat="42.46346" lon="2.22141">
        <ele>1814.15</ele>
        <time>2017-05-21T06:14:33Z</time>
      </trkpt>
      <trkpt lat="42.46343" lon="2.22135">
        <ele>1814.63</ele>
        <time>2017-05-21T06:14:40Z</time>
      </trkpt>
      <trkpt lat="42.46342" lon="2.22128">
        <ele>1816.07</ele>
        <time>2017-05-21T06:14:54Z</time>
      </trkpt>
      <trkpt lat="42.46338" lon="2.22116">
        <ele>1817.99</ele>
        <time>2017-05-21T06:15:07Z</time>
      </trkpt>
      <trkpt lat="42.46337" lon="2.22107">
        <ele>1818.95</ele>
        <time>2017-05-21T06:15:17Z</time>
      </trkpt>
      <trkpt lat="42.46334" lon="2.22098">
        <ele>1820.39</ele>
        <time>2017-05-21T06:15:28Z</time>
      </trkpt>
      <trkpt lat="42.46332" lon="2.2209">
        <ele>1822.32</ele>
        <time>2017-05-21T06:15:39Z</time>
      </trkpt>
      <trkpt lat="42.46329" lon="2.22083">
        <ele>1824.24</ele>
        <time>2017-05-21T06:15:50Z</time>
      </trkpt>
      <trkpt lat="42.46326" lon="2.22074">
        <ele>1825.68</ele>
        <time>2017-05-21T06:16:02Z</time>
      </trkpt>
      <trkpt lat="42.46323" lon="2.22066">
        <ele>1828.08</ele>
        <time>2017-05-21T06:16:15Z</time>
      </trkpt>
      <trkpt lat="42.46322" lon="2.22058">
        <ele>1829.53</ele>
        <time>2017-05-21T06:16:28Z</time>
      </trkpt>
      <trkpt lat="42.46322" lon="2.22048">
        <ele>1830.97</ele>
        <time>2017-05-21T06:16:39Z</time>
      </trkpt>
      <trkpt lat="42.46322" lon="2.22038">
        <ele>1832.89</ele>
        <time>2017-05-21T06:16:50Z</time>
      </trkpt>
      <trkpt lat="42.46321" lon="2.2203">
        <ele>1834.33</ele>
        <time>2017-05-21T06:17:02Z</time>
      </trkpt>
      <trkpt lat="42.46319" lon="2.22024">
        <ele>1836.74</ele>
        <time>2017-05-21T06:17:13Z</time>
      </trkpt>
      <trkpt lat="42.46318" lon="2.22017">
        <ele>1838.18</ele>
        <time>2017-05-21T06:17:24Z</time>
      </trkpt>
      <trkpt lat="42.46312" lon="2.22014">
        <ele>1839.62</ele>
        <time>2017-05-21T06:17:36Z</time>
      </trkpt>
      <trkpt lat="42.46314" lon="2.22006">
        <ele>1840.58</ele>
        <time>2017-05-21T06:17:46Z</time>
      </trkpt>
      <trkpt lat="42.46312" lon="2.21999">
        <ele>1842.02</ele>
        <time>2017-05-21T06:17:58Z</time>
      </trkpt>
      <trkpt lat="42.46309" lon="2.21994">
        <ele>1844.43</ele>
        <time>2017-05-21T06:18:10Z</time>
      </trkpt>
      <trkpt lat="42.46305" lon="2.21987">
        <ele>1846.35</ele>
        <time>2017-05-21T06:18:23Z</time>
      </trkpt>
      <trkpt lat="42.46307" lon="2.21976">
        <ele>1847.79</ele>
        <time>2017-05-21T06:18:35Z</time>
      </trkpt>
      <trkpt lat="42.46307" lon="2.21967">
        <ele>1850.19</ele>
        <time>2017-05-21T06:18:49Z</time>
      </trkpt>
      <trkpt lat="42.46311" lon="2.2196">
        <ele>1852.6</ele>
        <time>2017-05-21T06:19:01Z</time>
      </trkpt>
      <trkpt lat="42.4631" lon="2.21956">
        <ele>1853.56</ele>
        <time>2017-05-21T06:19:15Z</time>
      </trkpt>
      <trkpt lat="42.4631" lon="2.21948">
        <ele>1855</ele>
        <time>2017-05-21T06:19:30Z</time>
      </trkpt>
      <trkpt lat="42.46307" lon="2.21953">
        <ele>1855.96</ele>
        <time>2017-05-21T06:19:48Z</time>
      </trkpt>
      <trkpt lat="42.46307" lon="2.21953">
        <ele>1856.92</ele>
        <time>2017-05-21T06:20:17Z</time>
      </trkpt>
      <trkpt lat="42.46308" lon="2.21954">
        <ele>1857.4</ele>
        <time>2017-05-21T06:20:29Z</time>
      </trkpt>
      <trkpt lat="42.46306" lon="2.21954">
        <ele>1857.4</ele>
        <time>2017-05-21T06:20:46Z</time>
      </trkpt>
      <trkpt lat="42.46303" lon="2.21958">
        <ele>1857.4</ele>
        <time>2017-05-21T06:20:58Z</time>
      </trkpt>
      <trkpt lat="42.463" lon="2.2196">
        <ele>1856.92</ele>
        <time>2017-05-21T06:21:09Z</time>
      </trkpt>
      <trkpt lat="42.46298" lon="2.2196">
        <ele>1856.44</ele>
        <time>2017-05-21T06:21:26Z</time>
      </trkpt>
      <trkpt lat="42.46301" lon="2.21958">
        <ele>1856.92</ele>
        <time>2017-05-21T06:21:45Z</time>
      </trkpt>
      <trkpt lat="42.46301" lon="2.21959">
        <ele>1856.92</ele>
        <time>2017-05-21T06:22:02Z</time>
      </trkpt>
      <trkpt lat="42.46301" lon="2.21959">
        <ele>1859.33</ele>
        <time>2017-05-21T06:22:18Z</time>
      </trkpt>
      <trkpt lat="42.463" lon="2.21959">
        <ele>1857.89</ele>
        <time>2017-05-21T06:22:20Z</time>
      </trkpt>
      <trkpt lat="42.46298" lon="2.21965">
        <ele>1857.89</ele>
        <time>2017-05-21T06:22:29Z</time>
      </trkpt>
      <trkpt lat="42.46298" lon="2.21971">
        <ele>1856.44</ele>
        <time>2017-05-21T06:22:39Z</time>
      </trkpt>
      <trkpt lat="42.46298" lon="2.21973">
        <ele>1856.92</ele>
        <time>2017-05-21T06:22:48Z</time>
      </trkpt>
      <trkpt lat="42.46295" lon="2.21976">
        <ele>1855.96</ele>
        <time>2017-05-21T06:22:58Z</time>
      </trkpt>
      <trkpt lat="42.46291" lon="2.2198">
        <ele>1855.48</ele>
        <time>2017-05-21T06:23:07Z</time>
      </trkpt>
      <trkpt lat="42.46288" lon="2.21986">
        <ele>1853.56</ele>
        <time>2017-05-21T06:23:19Z</time>
      </trkpt>
      <trkpt lat="42.46285" lon="2.21991">
        <ele>1852.6</ele>
        <time>2017-05-21T06:23:30Z</time>
      </trkpt>
      <trkpt lat="42.46286" lon="2.21996">
        <ele>1851.64</ele>
        <time>2017-05-21T06:23:40Z</time>
      </trkpt>
      <trkpt lat="42.46283" lon="2.22002">
        <ele>1851.16</ele>
        <time>2017-05-21T06:23:51Z</time>
      </trkpt>
      <trkpt lat="42.46282" lon="2.22008">
        <ele>1850.19</ele>
        <time>2017-05-21T06:23:59Z</time>
      </trkpt>
      <trkpt lat="42.46279" lon="2.22013">
        <ele>1849.23</ele>
        <time>2017-05-21T06:24:09Z</time>
      </trkpt>
      <trkpt lat="42.46281" lon="2.22018">
        <ele>1848.27</ele>
        <time>2017-05-21T06:24:17Z</time>
      </trkpt>
      <trkpt lat="42.46282" lon="2.22022">
        <ele>1846.83</ele>
        <time>2017-05-21T06:24:22Z</time>
      </trkpt>
      <trkpt lat="42.46274" lon="2.22028">
        <ele>1845.39</ele>
        <time>2017-05-21T06:24:34Z</time>
      </trkpt>
      <trkpt lat="42.46271" lon="2.22032">
        <ele>1843.47</ele>
        <time>2017-05-21T06:24:44Z</time>
      </trkpt>
      <trkpt lat="42.46272" lon="2.22042">
        <ele>1842.02</ele>
        <time>2017-05-21T06:24:55Z</time>
      </trkpt>
      <trkpt lat="42.46268" lon="2.22054">
        <ele>1840.1</ele>
        <time>2017-05-21T06:25:08Z</time>
      </trkpt>
      <trkpt lat="42.46267" lon="2.22058">
        <ele>1839.14</ele>
        <time>2017-05-21T06:25:12Z</time>
      </trkpt>
      <trkpt lat="42.46264" lon="2.22068">
        <ele>1837.22</ele>
        <time>2017-05-21T06:25:23Z</time>
      </trkpt>
      <trkpt lat="42.46265" lon="2.22073">
        <ele>1836.26</ele>
        <time>2017-05-21T06:25:27Z</time>
      </trkpt>
      <trkpt lat="42.46267" lon="2.22085">
        <ele>1834.33</ele>
        <time>2017-05-21T06:25:38Z</time>
      </trkpt>
      <trkpt lat="42.46263" lon="2.22096">
        <ele>1832.41</ele>
        <time>2017-05-21T06:25:50Z</time>
      </trkpt>
      <trkpt lat="42.46258" lon="2.22098">
        <ele>1832.41</ele>
        <time>2017-05-21T06:25:59Z</time>
      </trkpt>
      <trkpt lat="42.46257" lon="2.22097">
        <ele>1832.41</ele>
        <time>2017-05-21T06:26:02Z</time>
      </trkpt>
      <trkpt lat="42.46253" lon="2.22096">
        <ele>1832.41</ele>
        <time>2017-05-21T06:26:06Z</time>
      </trkpt>
      <trkpt lat="42.4625" lon="2.22097">
        <ele>1832.41</ele>
        <time>2017-05-21T06:26:09Z</time>
      </trkpt>
      <trkpt lat="42.46248" lon="2.22096">
        <ele>1832.41</ele>
        <time>2017-05-21T06:26:11Z</time>
      </trkpt>
      <trkpt lat="42.46243" lon="2.22093">
        <ele>1832.41</ele>
        <time>2017-05-21T06:26:18Z</time>
      </trkpt>
      <trkpt lat="42.46239" lon="2.22095">
        <ele>1832.41</ele>
        <time>2017-05-21T06:26:25Z</time>
      </trkpt>
      <trkpt lat="42.46232" lon="2.221">
        <ele>1832.89</ele>
        <time>2017-05-21T06:26:35Z</time>
      </trkpt>
      <trkpt lat="42.46226" lon="2.22109">
        <ele>1832.41</ele>
        <time>2017-05-21T06:26:46Z</time>
      </trkpt>
      <trkpt lat="42.4622" lon="2.22115">
        <ele>1831.93</ele>
        <time>2017-05-21T06:26:54Z</time>
      </trkpt>
      <trkpt lat="42.46216" lon="2.22114">
        <ele>1831.93</ele>
        <time>2017-05-21T06:26:58Z</time>
      </trkpt>
      <trkpt lat="42.46214" lon="2.22115">
        <ele>1831.93</ele>
        <time>2017-05-21T06:27:00Z</time>
      </trkpt>
      <trkpt lat="42.46204" lon="2.22114">
        <ele>1831.93</ele>
        <time>2017-05-21T06:27:10Z</time>
      </trkpt>
      <trkpt lat="42.46194" lon="2.22111">
        <ele>1832.89</ele>
        <time>2017-05-21T06:27:21Z</time>
      </trkpt>
      <trkpt lat="42.46187" lon="2.22103">
        <ele>1833.37</ele>
        <time>2017-05-21T06:27:32Z</time>
      </trkpt>
      <trkpt lat="42.46183" lon="2.22091">
        <ele>1833.85</ele>
        <time>2017-05-21T06:27:44Z</time>
      </trkpt>
      <trkpt lat="42.46178" lon="2.22081">
        <ele>1834.81</ele>
        <time>2017-05-21T06:27:55Z</time>
      </trkpt>
      <trkpt lat="42.46171" lon="2.2207">
        <ele>1836.26</ele>
        <time>2017-05-21T06:28:07Z</time>
      </trkpt>
      <trkpt lat="42.46169" lon="2.22062">
        <ele>1837.22</ele>
        <time>2017-05-21T06:28:14Z</time>
      </trkpt>
      <trkpt lat="42.46163" lon="2.22049">
        <ele>1837.7</ele>
        <time>2017-05-21T06:28:25Z</time>
      </trkpt>
      <trkpt lat="42.46158" lon="2.22039">
        <ele>1837.7</ele>
        <time>2017-05-21T06:28:36Z</time>
      </trkpt>
      <trkpt lat="42.46152" lon="2.22026">
        <ele>1837.7</ele>
        <time>2017-05-21T06:28:49Z</time>
      </trkpt>
      <trkpt lat="42.4615" lon="2.22014">
        <ele>1837.7</ele>
        <time>2017-05-21T06:29:00Z</time>
      </trkpt>
      <trkpt lat="42.46143" lon="2.22001">
        <ele>1838.18</ele>
        <time>2017-05-21T06:29:13Z</time>
      </trkpt>
      <trkpt lat="42.4614" lon="2.21989">
        <ele>1839.62</ele>
        <time>2017-05-21T06:29:24Z</time>
      </trkpt>
      <trkpt lat="42.46138" lon="2.21978">
        <ele>1840.58</ele>
        <time>2017-05-21T06:29:35Z</time>
      </trkpt>
      <trkpt lat="42.46137" lon="2.2197">
        <ele>1841.54</ele>
        <time>2017-05-21T06:29:47Z</time>
      </trkpt>
      <trkpt lat="42.46131" lon="2.2197">
        <ele>1841.54</ele>
        <time>2017-05-21T06:30:16Z</time>
      </trkpt>
      <trkpt lat="42.46129" lon="2.21969">
        <ele>1841.54</ele>
        <time>2017-05-21T06:30:34Z</time>
      </trkpt>
      <trkpt lat="42.46132" lon="2.21958">
        <ele>1842.02</ele>
        <time>2017-05-21T06:30:45Z</time>
      </trkpt>
      <trkpt lat="42.46132" lon="2.21949">
        <ele>1842.98</ele>
        <time>2017-05-21T06:30:54Z</time>
      </trkpt>
      <trkpt lat="42.46133" lon="2.21934">
        <ele>1844.43</ele>
        <time>2017-05-21T06:31:07Z</time>
      </trkpt>
      <trkpt lat="42.46133" lon="2.2193">
        <ele>1845.39</ele>
        <time>2017-05-21T06:31:19Z</time>
      </trkpt>
      <trkpt lat="42.46133" lon="2.21921">
        <ele>1845.87</ele>
        <time>2017-05-21T06:31:32Z</time>
      </trkpt>
      <trkpt lat="42.46131" lon="2.21911">
        <ele>1848.27</ele>
        <time>2017-05-21T06:31:45Z</time>
      </trkpt>
      <trkpt lat="42.46129" lon="2.21904">
        <ele>1849.71</ele>
        <time>2017-05-21T06:31:56Z</time>
      </trkpt>
      <trkpt lat="42.46124" lon="2.21897">
        <ele>1850.68</ele>
        <time>2017-05-21T06:32:08Z</time>
      </trkpt>
      <trkpt lat="42.4612" lon="2.21895">
        <ele>1849.23</ele>
        <time>2017-05-21T06:32:18Z</time>
      </trkpt>
      <trkpt lat="42.46116" lon="2.21893">
        <ele>1849.23</ele>
        <time>2017-05-21T06:32:27Z</time>
      </trkpt>
      <trkpt lat="42.46113" lon="2.21887">
        <ele>1851.16</ele>
        <time>2017-05-21T06:32:36Z</time>
      </trkpt>
      <trkpt lat="42.46107" lon="2.21886">
        <ele>1851.64</ele>
        <time>2017-05-21T06:32:47Z</time>
      </trkpt>
      <trkpt lat="42.461" lon="2.21886">
        <ele>1851.64</ele>
        <time>2017-05-21T06:32:58Z</time>
      </trkpt>
      <trkpt lat="42.46093" lon="2.21889">
        <ele>1849.23</ele>
        <time>2017-05-21T06:33:08Z</time>
      </trkpt>
      <trkpt lat="42.46083" lon="2.21888">
        <ele>1849.23</ele>
        <time>2017-05-21T06:33:20Z</time>
      </trkpt>
      <trkpt lat="42.46078" lon="2.21886">
        <ele>1850.68</ele>
        <time>2017-05-21T06:33:26Z</time>
      </trkpt>
      <trkpt lat="42.46073" lon="2.21882">
        <ele>1852.12</ele>
        <time>2017-05-21T06:33:35Z</time>
      </trkpt>
      <trkpt lat="42.46067" lon="2.21875">
        <ele>1852.6</ele>
        <time>2017-05-21T06:33:47Z</time>
      </trkpt>
      <trkpt lat="42.46061" lon="2.21863">
        <ele>1854.04</ele>
        <time>2017-05-21T06:33:58Z</time>
      </trkpt>
      <trkpt lat="42.46057" lon="2.21853">
        <ele>1855.48</ele>
        <time>2017-05-21T06:34:10Z</time>
      </trkpt>
      <trkpt lat="42.46054" lon="2.21842">
        <ele>1856.92</ele>
        <time>2017-05-21T06:34:23Z</time>
      </trkpt>
      <trkpt lat="42.46051" lon="2.21839">
        <ele>1857.89</ele>
        <time>2017-05-21T06:34:29Z</time>
      </trkpt>
      <trkpt lat="42.46049" lon="2.2184">
        <ele>1858.37</ele>
        <time>2017-05-21T06:34:43Z</time>
      </trkpt>
      <trkpt lat="42.4605" lon="2.21834">
        <ele>1858.37</ele>
        <time>2017-05-21T06:34:54Z</time>
      </trkpt>
      <trkpt lat="42.46052" lon="2.21828">
        <ele>1858.85</ele>
        <time>2017-05-21T06:35:06Z</time>
      </trkpt>
      <trkpt lat="42.46055" lon="2.2182">
        <ele>1860.29</ele>
        <time>2017-05-21T06:35:18Z</time>
      </trkpt>
      <trkpt lat="42.46056" lon="2.21815">
        <ele>1862.21</ele>
        <time>2017-05-21T06:35:29Z</time>
      </trkpt>
      <trkpt lat="42.46055" lon="2.21806">
        <ele>1864.61</ele>
        <time>2017-05-21T06:35:42Z</time>
      </trkpt>
      <trkpt lat="42.46054" lon="2.21798">
        <ele>1866.06</ele>
        <time>2017-05-21T06:35:53Z</time>
      </trkpt>
      <trkpt lat="42.46053" lon="2.21794">
        <ele>1867.98</ele>
        <time>2017-05-21T06:36:05Z</time>
      </trkpt>
      <trkpt lat="42.46056" lon="2.21786">
        <ele>1870.38</ele>
        <time>2017-05-21T06:36:21Z</time>
      </trkpt>
      <trkpt lat="42.46048" lon="2.2178">
        <ele>1871.82</ele>
        <time>2017-05-21T06:36:36Z</time>
      </trkpt>
      <trkpt lat="42.46051" lon="2.21775">
        <ele>1873.75</ele>
        <time>2017-05-21T06:36:48Z</time>
      </trkpt>
      <trkpt lat="42.46052" lon="2.21772">
        <ele>1874.71</ele>
        <time>2017-05-21T06:36:58Z</time>
      </trkpt>
      <trkpt lat="42.46048" lon="2.2177">
        <ele>1875.67</ele>
        <time>2017-05-21T06:37:09Z</time>
      </trkpt>
      <trkpt lat="42.4604" lon="2.21772">
        <ele>1876.15</ele>
        <time>2017-05-21T06:37:20Z</time>
      </trkpt>
      <trkpt lat="42.46033" lon="2.21768">
        <ele>1877.11</ele>
        <time>2017-05-21T06:37:32Z</time>
      </trkpt>
      <trkpt lat="42.46027" lon="2.21766">
        <ele>1878.55</ele>
        <time>2017-05-21T06:37:44Z</time>
      </trkpt>
      <trkpt lat="42.46023" lon="2.21761">
        <ele>1880.48</ele>
        <time>2017-05-21T06:37:55Z</time>
      </trkpt>
      <trkpt lat="42.46017" lon="2.21756">
        <ele>1881.44</ele>
        <time>2017-05-21T06:38:06Z</time>
      </trkpt>
      <trkpt lat="42.46011" lon="2.21748">
        <ele>1882.88</ele>
        <time>2017-05-21T06:38:19Z</time>
      </trkpt>
      <trkpt lat="42.46005" lon="2.21741">
        <ele>1884.32</ele>
        <time>2017-05-21T06:38:31Z</time>
      </trkpt>
      <trkpt lat="42.45999" lon="2.21739">
        <ele>1885.28</ele>
        <time>2017-05-21T06:38:42Z</time>
      </trkpt>
      <trkpt lat="42.45993" lon="2.21741">
        <ele>1885.28</ele>
        <time>2017-05-21T06:38:53Z</time>
      </trkpt>
      <trkpt lat="42.45988" lon="2.2174">
        <ele>1885.28</ele>
        <time>2017-05-21T06:39:04Z</time>
      </trkpt>
      <trkpt lat="42.45976" lon="2.21742">
        <ele>1885.28</ele>
        <time>2017-05-21T06:39:17Z</time>
      </trkpt>
      <trkpt lat="42.45971" lon="2.21733">
        <ele>1887.21</ele>
        <time>2017-05-21T06:39:28Z</time>
      </trkpt>
      <trkpt lat="42.45965" lon="2.21727">
        <ele>1887.69</ele>
        <time>2017-05-21T06:39:39Z</time>
      </trkpt>
      <trkpt lat="42.45958" lon="2.21724">
        <ele>1888.17</ele>
        <time>2017-05-21T06:39:51Z</time>
      </trkpt>
      <trkpt lat="42.45953" lon="2.21723">
        <ele>1888.17</ele>
        <time>2017-05-21T06:40:04Z</time>
      </trkpt>
      <trkpt lat="42.45944" lon="2.21725">
        <ele>1888.17</ele>
        <time>2017-05-21T06:40:17Z</time>
      </trkpt>
      <trkpt lat="42.45937" lon="2.2173">
        <ele>1888.17</ele>
        <time>2017-05-21T06:40:27Z</time>
      </trkpt>
      <trkpt lat="42.45931" lon="2.21728">
        <ele>1889.61</ele>
        <time>2017-05-21T06:40:38Z</time>
      </trkpt>
      <trkpt lat="42.45927" lon="2.21726">
        <ele>1891.05</ele>
        <time>2017-05-21T06:40:48Z</time>
      </trkpt>
      <trkpt lat="42.45925" lon="2.2172">
        <ele>1892.49</ele>
        <time>2017-05-21T06:40:57Z</time>
      </trkpt>
      <trkpt lat="42.45916" lon="2.21713">
        <ele>1893.45</ele>
        <time>2017-05-21T06:41:09Z</time>
      </trkpt>
      <trkpt lat="42.45908" lon="2.21708">
        <ele>1893.93</ele>
        <time>2017-05-21T06:41:21Z</time>
      </trkpt>
      <trkpt lat="42.45907" lon="2.21699">
        <ele>1895.86</ele>
        <time>2017-05-21T06:41:33Z</time>
      </trkpt>
      <trkpt lat="42.45902" lon="2.21694">
        <ele>1896.34</ele>
        <time>2017-05-21T06:41:45Z</time>
      </trkpt>
      <trkpt lat="42.45898" lon="2.21693">
        <ele>1896.82</ele>
        <time>2017-05-21T06:41:55Z</time>
      </trkpt>
      <trkpt lat="42.45893" lon="2.21688">
        <ele>1898.26</ele>
        <time>2017-05-21T06:42:05Z</time>
      </trkpt>
      <trkpt lat="42.45886" lon="2.21684">
        <ele>1899.7</ele>
        <time>2017-05-21T06:42:16Z</time>
      </trkpt>
      <trkpt lat="42.45885" lon="2.21676">
        <ele>1900.66</ele>
        <time>2017-05-21T06:42:28Z</time>
      </trkpt>
      <trkpt lat="42.45882" lon="2.21672">
        <ele>1901.63</ele>
        <time>2017-05-21T06:42:38Z</time>
      </trkpt>
      <trkpt lat="42.45883" lon="2.21673">
        <ele>1902.59</ele>
        <time>2017-05-21T06:42:59Z</time>
      </trkpt>
      <trkpt lat="42.45883" lon="2.21672">
        <ele>1900.66</ele>
        <time>2017-05-21T06:43:02Z</time>
      </trkpt>
      <trkpt lat="42.45882" lon="2.21671">
        <ele>1903.07</ele>
        <time>2017-05-21T06:43:08Z</time>
      </trkpt>
      <trkpt lat="42.45877" lon="2.21667">
        <ele>1902.11</ele>
        <time>2017-05-21T06:43:18Z</time>
      </trkpt>
      <trkpt lat="42.45876" lon="2.21666">
        <ele>1903.55</ele>
        <time>2017-05-21T06:43:20Z</time>
      </trkpt>
      <trkpt lat="42.45868" lon="2.21662">
        <ele>1904.51</ele>
        <time>2017-05-21T06:43:30Z</time>
      </trkpt>
      <trkpt lat="42.45864" lon="2.21654">
        <ele>1905.95</ele>
        <time>2017-05-21T06:43:42Z</time>
      </trkpt>
      <trkpt lat="42.4586" lon="2.21647">
        <ele>1906.43</ele>
        <time>2017-05-21T06:43:54Z</time>
      </trkpt>
      <trkpt lat="42.45857" lon="2.21635">
        <ele>1907.39</ele>
        <time>2017-05-21T06:44:06Z</time>
      </trkpt>
      <trkpt lat="42.45854" lon="2.21627">
        <ele>1908.35</ele>
        <time>2017-05-21T06:44:17Z</time>
      </trkpt>
      <trkpt lat="42.45852" lon="2.21618">
        <ele>1908.83</ele>
        <time>2017-05-21T06:44:29Z</time>
      </trkpt>
      <trkpt lat="42.45852" lon="2.21609">
        <ele>1909.8</ele>
        <time>2017-05-21T06:44:41Z</time>
      </trkpt>
      <trkpt lat="42.45849" lon="2.21602">
        <ele>1912.2</ele>
        <time>2017-05-21T06:44:54Z</time>
      </trkpt>
      <trkpt lat="42.45846" lon="2.21592">
        <ele>1914.12</ele>
        <time>2017-05-21T06:45:07Z</time>
      </trkpt>
      <trkpt lat="42.45842" lon="2.21586">
        <ele>1914.6</ele>
        <time>2017-05-21T06:45:18Z</time>
      </trkpt>
      <trkpt lat="42.45834" lon="2.21581">
        <ele>1915.56</ele>
        <time>2017-05-21T06:45:33Z</time>
      </trkpt>
      <trkpt lat="42.45831" lon="2.21575">
        <ele>1917.01</ele>
        <time>2017-05-21T06:45:46Z</time>
      </trkpt>
      <trkpt lat="42.45828" lon="2.21563">
        <ele>1918.93</ele>
        <time>2017-05-21T06:46:01Z</time>
      </trkpt>
      <trkpt lat="42.45824" lon="2.21552">
        <ele>1920.85</ele>
        <time>2017-05-21T06:46:14Z</time>
      </trkpt>
      <trkpt lat="42.45821" lon="2.21545">
        <ele>1922.29</ele>
        <time>2017-05-21T06:46:25Z</time>
      </trkpt>
      <trkpt lat="42.45821" lon="2.21537">
        <ele>1924.22</ele>
        <time>2017-05-21T06:46:37Z</time>
      </trkpt>
      <trkpt lat="42.45822" lon="2.21529">
        <ele>1926.14</ele>
        <time>2017-05-21T06:46:49Z</time>
      </trkpt>
      <trkpt lat="42.45818" lon="2.21523">
        <ele>1928.06</ele>
        <time>2017-05-21T06:47:04Z</time>
      </trkpt>
      <trkpt lat="42.45817" lon="2.21511">
        <ele>1929.98</ele>
        <time>2017-05-21T06:47:18Z</time>
      </trkpt>
      <trkpt lat="42.45816" lon="2.21507">
        <ele>1931.91</ele>
        <time>2017-05-21T06:47:33Z</time>
      </trkpt>
      <trkpt lat="42.45812" lon="2.21511">
        <ele>1932.39</ele>
        <time>2017-05-21T06:47:58Z</time>
      </trkpt>
      <trkpt lat="42.45811" lon="2.21507">
        <ele>1931.91</ele>
        <time>2017-05-21T06:48:16Z</time>
      </trkpt>
      <trkpt lat="42.45815" lon="2.21509">
        <ele>1931.91</ele>
        <time>2017-05-21T06:48:36Z</time>
      </trkpt>
      <trkpt lat="42.45814" lon="2.21511">
        <ele>1932.39</ele>
        <time>2017-05-21T06:48:58Z</time>
      </trkpt>
      <trkpt lat="42.45813" lon="2.21509">
        <ele>1932.39</ele>
        <time>2017-05-21T06:49:19Z</time>
      </trkpt>
      <trkpt lat="42.45815" lon="2.21514">
        <ele>1933.83</ele>
        <time>2017-05-21T06:49:39Z</time>
      </trkpt>
      <trkpt lat="42.45815" lon="2.21512">
        <ele>1933.83</ele>
        <time>2017-05-21T06:50:02Z</time>
      </trkpt>
      <trkpt lat="42.45813" lon="2.21508">
        <ele>1934.31</ele>
        <time>2017-05-21T06:50:21Z</time>
      </trkpt>
      <trkpt lat="42.45812" lon="2.2151">
        <ele>1934.79</ele>
        <time>2017-05-21T06:50:39Z</time>
      </trkpt>
      <trkpt lat="42.45812" lon="2.2151">
        <ele>1933.35</ele>
        <time>2017-05-21T06:51:02Z</time>
      </trkpt>
      <trkpt lat="42.45813" lon="2.21509">
        <ele>1933.83</ele>
        <time>2017-05-21T06:51:17Z</time>
      </trkpt>
      <trkpt lat="42.45811" lon="2.21511">
        <ele>1933.83</ele>
        <time>2017-05-21T06:51:32Z</time>
      </trkpt>
      <trkpt lat="42.45812" lon="2.21511">
        <ele>1935.27</ele>
        <time>2017-05-21T06:51:48Z</time>
      </trkpt>
      <trkpt lat="42.45818" lon="2.21505">
        <ele>1935.75</ele>
        <time>2017-05-21T06:52:02Z</time>
      </trkpt>
      <trkpt lat="42.45813" lon="2.21503">
        <ele>1937.19</ele>
        <time>2017-05-21T06:52:14Z</time>
      </trkpt>
      <trkpt lat="42.45811" lon="2.21498">
        <ele>1938.16</ele>
        <time>2017-05-21T06:52:32Z</time>
      </trkpt>
      <trkpt lat="42.45806" lon="2.21494">
        <ele>1938.64</ele>
        <time>2017-05-21T06:52:52Z</time>
      </trkpt>
      <trkpt lat="42.458" lon="2.21488">
        <ele>1939.12</ele>
        <time>2017-05-21T06:53:05Z</time>
      </trkpt>
      <trkpt lat="42.45797" lon="2.21478">
        <ele>1941.52</ele>
        <time>2017-05-21T06:53:18Z</time>
      </trkpt>
      <trkpt lat="42.45794" lon="2.21468">
        <ele>1943.44</ele>
        <time>2017-05-21T06:53:30Z</time>
      </trkpt>
      <trkpt lat="42.45788" lon="2.21462">
        <ele>1944.4</ele>
        <time>2017-05-21T06:53:41Z</time>
      </trkpt>
      <trkpt lat="42.45783" lon="2.21456">
        <ele>1944.88</ele>
        <time>2017-05-21T06:53:53Z</time>
      </trkpt>
      <trkpt lat="42.45777" lon="2.21451">
        <ele>1945.36</ele>
        <time>2017-05-21T06:54:05Z</time>
      </trkpt>
      <trkpt lat="42.45775" lon="2.21444">
        <ele>1947.77</ele>
        <time>2017-05-21T06:54:18Z</time>
      </trkpt>
      <trkpt lat="42.45774" lon="2.21434">
        <ele>1949.21</ele>
        <time>2017-05-21T06:54:33Z</time>
      </trkpt>
      <trkpt lat="42.45777" lon="2.21426">
        <ele>1951.13</ele>
        <time>2017-05-21T06:54:47Z</time>
      </trkpt>
      <trkpt lat="42.45778" lon="2.21418">
        <ele>1952.57</ele>
        <time>2017-05-21T06:54:57Z</time>
      </trkpt>
      <trkpt lat="42.4578" lon="2.2141">
        <ele>1954.5</ele>
        <time>2017-05-21T06:55:11Z</time>
      </trkpt>
      <trkpt lat="42.45779" lon="2.21403">
        <ele>1955.94</ele>
        <time>2017-05-21T06:55:26Z</time>
      </trkpt>
      <trkpt lat="42.45775" lon="2.21396">
        <ele>1957.38</ele>
        <time>2017-05-21T06:55:39Z</time>
      </trkpt>
      <trkpt lat="42.45769" lon="2.2139">
        <ele>1959.3</ele>
        <time>2017-05-21T06:55:54Z</time>
      </trkpt>
      <trkpt lat="42.45767" lon="2.21385">
        <ele>1960.27</ele>
        <time>2017-05-21T06:56:04Z</time>
      </trkpt>
      <trkpt lat="42.45759" lon="2.21382">
        <ele>1960.75</ele>
        <time>2017-05-21T06:56:15Z</time>
      </trkpt>
      <trkpt lat="42.45754" lon="2.21379">
        <ele>1961.71</ele>
        <time>2017-05-21T06:56:26Z</time>
      </trkpt>
      <trkpt lat="42.45747" lon="2.21374">
        <ele>1963.15</ele>
        <time>2017-05-21T06:56:39Z</time>
      </trkpt>
      <trkpt lat="42.45742" lon="2.2137">
        <ele>1964.11</ele>
        <time>2017-05-21T06:56:50Z</time>
      </trkpt>
      <trkpt lat="42.45736" lon="2.21366">
        <ele>1965.55</ele>
        <time>2017-05-21T06:57:01Z</time>
      </trkpt>
      <trkpt lat="42.45729" lon="2.21361">
        <ele>1966.03</ele>
        <time>2017-05-21T06:57:13Z</time>
      </trkpt>
      <trkpt lat="42.45723" lon="2.21359">
        <ele>1966.51</ele>
        <time>2017-05-21T06:57:27Z</time>
      </trkpt>
      <trkpt lat="42.45711" lon="2.21355">
        <ele>1966.99</ele>
        <time>2017-05-21T06:57:39Z</time>
      </trkpt>
      <trkpt lat="42.45704" lon="2.21349">
        <ele>1968.44</ele>
        <time>2017-05-21T06:57:50Z</time>
      </trkpt>
      <trkpt lat="42.457" lon="2.21348">
        <ele>1969.4</ele>
        <time>2017-05-21T06:57:59Z</time>
      </trkpt>
      <trkpt lat="42.45696" lon="2.2135">
        <ele>1970.84</ele>
        <time>2017-05-21T06:58:10Z</time>
      </trkpt>
      <trkpt lat="42.45693" lon="2.21353">
        <ele>1972.28</ele>
        <time>2017-05-21T06:58:21Z</time>
      </trkpt>
      <trkpt lat="42.45691" lon="2.21355">
        <ele>1972.76</ele>
        <time>2017-05-21T06:58:31Z</time>
      </trkpt>
      <trkpt lat="42.45692" lon="2.21358">
        <ele>1973.24</ele>
        <time>2017-05-21T06:58:46Z</time>
      </trkpt>
      <trkpt lat="42.45692" lon="2.21366">
        <ele>1973.24</ele>
        <time>2017-05-21T06:59:00Z</time>
      </trkpt>
      <trkpt lat="42.45688" lon="2.21365">
        <ele>1973.24</ele>
        <time>2017-05-21T06:59:12Z</time>
      </trkpt>
      <trkpt lat="42.45686" lon="2.21362">
        <ele>1973.24</ele>
        <time>2017-05-21T06:59:35Z</time>
      </trkpt>
      <trkpt lat="42.45681" lon="2.21353">
        <ele>1973.72</ele>
        <time>2017-05-21T07:00:02Z</time>
      </trkpt>
      <trkpt lat="42.45682" lon="2.21355">
        <ele>1974.2</ele>
        <time>2017-05-21T07:00:18Z</time>
      </trkpt>
      <trkpt lat="42.45684" lon="2.21361">
        <ele>1974.2</ele>
        <time>2017-05-21T07:00:41Z</time>
      </trkpt>
      <trkpt lat="42.45681" lon="2.21363">
        <ele>1974.69</ele>
        <time>2017-05-21T07:00:53Z</time>
      </trkpt>
      <trkpt lat="42.45673" lon="2.21365">
        <ele>1976.13</ele>
        <time>2017-05-21T07:01:04Z</time>
      </trkpt>
      <trkpt lat="42.45665" lon="2.21365">
        <ele>1976.61</ele>
        <time>2017-05-21T07:01:15Z</time>
      </trkpt>
      <trkpt lat="42.4566" lon="2.21364">
        <ele>1977.09</ele>
        <time>2017-05-21T07:01:20Z</time>
      </trkpt>
      <trkpt lat="42.4565" lon="2.21371">
        <ele>1977.09</ele>
        <time>2017-05-21T07:01:33Z</time>
      </trkpt>
      <trkpt lat="42.45644" lon="2.21372">
        <ele>1975.65</ele>
        <time>2017-05-21T07:01:43Z</time>
      </trkpt>
      <trkpt lat="42.45639" lon="2.21368">
        <ele>1974.69</ele>
        <time>2017-05-21T07:01:54Z</time>
      </trkpt>
      <trkpt lat="42.4563" lon="2.21366">
        <ele>1974.2</ele>
        <time>2017-05-21T07:02:05Z</time>
      </trkpt>
      <trkpt lat="42.4563" lon="2.21366">
        <ele>1974.2</ele>
        <time>2017-05-21T07:02:06Z</time>
      </trkpt>
      <trkpt lat="42.45629" lon="2.21367">
        <ele>1975.65</ele>
        <time>2017-05-21T07:02:15Z</time>
      </trkpt>
      <trkpt lat="42.45629" lon="2.21369">
        <ele>1975.65</ele>
        <time>2017-05-21T07:02:39Z</time>
      </trkpt>
      <trkpt lat="42.45629" lon="2.21367">
        <ele>1975.65</ele>
        <time>2017-05-21T07:02:51Z</time>
      </trkpt>
      <trkpt lat="42.45627" lon="2.2136">
        <ele>1976.61</ele>
        <time>2017-05-21T07:03:05Z</time>
      </trkpt>
      <trkpt lat="42.45622" lon="2.21357">
        <ele>1978.53</ele>
        <time>2017-05-21T07:03:17Z</time>
      </trkpt>
      <trkpt lat="42.45617" lon="2.21357">
        <ele>1979.01</ele>
        <time>2017-05-21T07:03:28Z</time>
      </trkpt>
      <trkpt lat="42.45613" lon="2.21354">
        <ele>1980.45</ele>
        <time>2017-05-21T07:03:41Z</time>
      </trkpt>
      <trkpt lat="42.4561" lon="2.2135">
        <ele>1981.41</ele>
        <time>2017-05-21T07:03:51Z</time>
      </trkpt>
      <trkpt lat="42.45607" lon="2.2135">
        <ele>1982.86</ele>
        <time>2017-05-21T07:04:04Z</time>
      </trkpt>
      <trkpt lat="42.45607" lon="2.21345">
        <ele>1984.3</ele>
        <time>2017-05-21T07:04:17Z</time>
      </trkpt>
      <trkpt lat="42.45606" lon="2.2134">
        <ele>1985.74</ele>
        <time>2017-05-21T07:04:28Z</time>
      </trkpt>
      <trkpt lat="42.45607" lon="2.21335">
        <ele>1986.7</ele>
        <time>2017-05-21T07:04:41Z</time>
      </trkpt>
      <trkpt lat="42.45607" lon="2.21333">
        <ele>1988.14</ele>
        <time>2017-05-21T07:04:54Z</time>
      </trkpt>
      <trkpt lat="42.45606" lon="2.21335">
        <ele>1988.14</ele>
        <time>2017-05-21T07:05:11Z</time>
      </trkpt>
      <trkpt lat="42.45602" lon="2.21334">
        <ele>1988.14</ele>
        <time>2017-05-21T07:05:22Z</time>
      </trkpt>
      <trkpt lat="42.45598" lon="2.21333">
        <ele>1989.59</ele>
        <time>2017-05-21T07:05:33Z</time>
      </trkpt>
      <trkpt lat="42.45593" lon="2.21331">
        <ele>1991.51</ele>
        <time>2017-05-21T07:05:46Z</time>
      </trkpt>
      <trkpt lat="42.45588" lon="2.2133">
        <ele>1993.43</ele>
        <time>2017-05-21T07:05:58Z</time>
      </trkpt>
      <trkpt lat="42.45586" lon="2.21325">
        <ele>1993.91</ele>
        <time>2017-05-21T07:06:09Z</time>
      </trkpt>
      <trkpt lat="42.4559" lon="2.21321">
        <ele>1995.35</ele>
        <time>2017-05-21T07:06:19Z</time>
      </trkpt>
      <trkpt lat="42.45593" lon="2.21318">
        <ele>1996.8</ele>
        <time>2017-05-21T07:06:28Z</time>
      </trkpt>
      <trkpt lat="42.456" lon="2.21313">
        <ele>1999.68</ele>
        <time>2017-05-21T07:06:44Z</time>
      </trkpt>
      <trkpt lat="42.45604" lon="2.21307">
        <ele>2001.12</ele>
        <time>2017-05-21T07:06:54Z</time>
      </trkpt>
      <trkpt lat="42.45604" lon="2.21303">
        <ele>2002.56</ele>
        <time>2017-05-21T07:07:06Z</time>
      </trkpt>
      <trkpt lat="42.45602" lon="2.213">
        <ele>2001.6</ele>
        <time>2017-05-21T07:07:17Z</time>
      </trkpt>
      <trkpt lat="42.45604" lon="2.21299">
        <ele>2001.6</ele>
        <time>2017-05-21T07:07:33Z</time>
      </trkpt>
      <trkpt lat="42.45606" lon="2.213">
        <ele>2002.08</ele>
        <time>2017-05-21T07:07:50Z</time>
      </trkpt>
      <trkpt lat="42.45609" lon="2.213">
        <ele>2002.08</ele>
        <time>2017-05-21T07:08:03Z</time>
      </trkpt>
      <trkpt lat="42.45614" lon="2.21296">
        <ele>2003.04</ele>
        <time>2017-05-21T07:08:14Z</time>
      </trkpt>
      <trkpt lat="42.45618" lon="2.2129">
        <ele>2003.52</ele>
        <time>2017-05-21T07:08:25Z</time>
      </trkpt>
      <trkpt lat="42.45626" lon="2.21286">
        <ele>2005.45</ele>
        <time>2017-05-21T07:08:40Z</time>
      </trkpt>
      <trkpt lat="42.45632" lon="2.2128">
        <ele>2007.37</ele>
        <time>2017-05-21T07:08:53Z</time>
      </trkpt>
      <trkpt lat="42.45632" lon="2.21271">
        <ele>2009.29</ele>
        <time>2017-05-21T07:09:05Z</time>
      </trkpt>
      <trkpt lat="42.45632" lon="2.2126">
        <ele>2010.73</ele>
        <time>2017-05-21T07:09:18Z</time>
      </trkpt>
      <trkpt lat="42.45635" lon="2.21253">
        <ele>2011.7</ele>
        <time>2017-05-21T07:09:29Z</time>
      </trkpt>
      <trkpt lat="42.45634" lon="2.21242">
        <ele>2013.14</ele>
        <time>2017-05-21T07:09:42Z</time>
      </trkpt>
      <trkpt lat="42.45633" lon="2.2123">
        <ele>2013.62</ele>
        <time>2017-05-21T07:09:56Z</time>
      </trkpt>
      <trkpt lat="42.45627" lon="2.21218">
        <ele>2013.62</ele>
        <time>2017-05-21T07:10:06Z</time>
      </trkpt>
      <trkpt lat="42.45625" lon="2.21207">
        <ele>2015.06</ele>
        <time>2017-05-21T07:10:17Z</time>
      </trkpt>
      <trkpt lat="42.45624" lon="2.21199">
        <ele>2017.46</ele>
        <time>2017-05-21T07:10:27Z</time>
      </trkpt>
      <trkpt lat="42.45626" lon="2.21197">
        <ele>2017.94</ele>
        <time>2017-05-21T07:10:34Z</time>
      </trkpt>
      <trkpt lat="42.45625" lon="2.21197">
        <ele>2017.94</ele>
        <time>2017-05-21T07:10:37Z</time>
      </trkpt>
      <trkpt lat="42.45628" lon="2.21188">
        <ele>2017.94</ele>
        <time>2017-05-21T07:10:46Z</time>
      </trkpt>
      <trkpt lat="42.45627" lon="2.21181">
        <ele>2017.94</ele>
        <time>2017-05-21T07:10:52Z</time>
      </trkpt>
      <trkpt lat="42.45621" lon="2.21172">
        <ele>2017.46</ele>
        <time>2017-05-21T07:11:03Z</time>
      </trkpt>
      <trkpt lat="42.45615" lon="2.21166">
        <ele>2016.98</ele>
        <time>2017-05-21T07:11:14Z</time>
      </trkpt>
      <trkpt lat="42.45609" lon="2.21158">
        <ele>2016.98</ele>
        <time>2017-05-21T07:11:25Z</time>
      </trkpt>
      <trkpt lat="42.45603" lon="2.21143">
        <ele>2016.98</ele>
        <time>2017-05-21T07:11:36Z</time>
      </trkpt>
      <trkpt lat="42.45596" lon="2.2113">
        <ele>2016.98</ele>
        <time>2017-05-21T07:11:48Z</time>
      </trkpt>
      <trkpt lat="42.45593" lon="2.21121">
        <ele>2018.43</ele>
        <time>2017-05-21T07:11:55Z</time>
      </trkpt>
      <trkpt lat="42.45586" lon="2.21112">
        <ele>2018.43</ele>
        <time>2017-05-21T07:12:07Z</time>
      </trkpt>
      <trkpt lat="42.45585" lon="2.21099">
        <ele>2018.91</ele>
        <time>2017-05-21T07:12:18Z</time>
      </trkpt>
      <trkpt lat="42.45582" lon="2.21086">
        <ele>2018.91</ele>
        <time>2017-05-21T07:12:29Z</time>
      </trkpt>
      <trkpt lat="42.45579" lon="2.21078">
        <ele>2020.35</ele>
        <time>2017-05-21T07:12:39Z</time>
      </trkpt>
      <trkpt lat="42.45577" lon="2.21071">
        <ele>2021.79</ele>
        <time>2017-05-21T07:12:51Z</time>
      </trkpt>
      <trkpt lat="42.45579" lon="2.21068">
        <ele>2023.71</ele>
        <time>2017-05-21T07:13:03Z</time>
      </trkpt>
      <trkpt lat="42.45575" lon="2.2106">
        <ele>2025.15</ele>
        <time>2017-05-21T07:13:19Z</time>
      </trkpt>
      <trkpt lat="42.45573" lon="2.21053">
        <ele>2026.6</ele>
        <time>2017-05-21T07:13:32Z</time>
      </trkpt>
      <trkpt lat="42.45566" lon="2.21046">
        <ele>2026.6</ele>
        <time>2017-05-21T07:13:51Z</time>
      </trkpt>
      <trkpt lat="42.45563" lon="2.21037">
        <ele>2028.04</ele>
        <time>2017-05-21T07:14:02Z</time>
      </trkpt>
      <trkpt lat="42.45559" lon="2.2103">
        <ele>2029.48</ele>
        <time>2017-05-21T07:14:16Z</time>
      </trkpt>
      <trkpt lat="42.45552" lon="2.2103">
        <ele>2028.52</ele>
        <time>2017-05-21T07:14:27Z</time>
      </trkpt>
      <trkpt lat="42.45552" lon="2.2103">
        <ele>2032.84</ele>
        <time>2017-05-21T07:14:28Z</time>
      </trkpt>
      <trkpt lat="42.45552" lon="2.21028">
        <ele>2029.96</ele>
        <time>2017-05-21T07:14:37Z</time>
      </trkpt>
      <trkpt lat="42.45545" lon="2.21031">
        <ele>2030.44</ele>
        <time>2017-05-21T07:14:47Z</time>
      </trkpt>
      <trkpt lat="42.45539" lon="2.21029">
        <ele>2030.44</ele>
        <time>2017-05-21T07:15:00Z</time>
      </trkpt>
      <trkpt lat="42.4554" lon="2.21022">
        <ele>2031.88</ele>
        <time>2017-05-21T07:15:07Z</time>
      </trkpt>
      <trkpt lat="42.45541" lon="2.21014">
        <ele>2032.84</ele>
        <time>2017-05-21T07:15:18Z</time>
      </trkpt>
      <trkpt lat="42.45543" lon="2.21011">
        <ele>2033.81</ele>
        <time>2017-05-21T07:15:31Z</time>
      </trkpt>
      <trkpt lat="42.45543" lon="2.21005">
        <ele>2034.29</ele>
        <time>2017-05-21T07:15:41Z</time>
      </trkpt>
      <trkpt lat="42.45547" lon="2.20995">
        <ele>2035.73</ele>
        <time>2017-05-21T07:15:52Z</time>
      </trkpt>
      <trkpt lat="42.45549" lon="2.20986">
        <ele>2036.69</ele>
        <time>2017-05-21T07:16:04Z</time>
      </trkpt>
      <trkpt lat="42.45549" lon="2.20983">
        <ele>2039.57</ele>
        <time>2017-05-21T07:16:06Z</time>
      </trkpt>
      <trkpt lat="42.45548" lon="2.20983">
        <ele>2036.21</ele>
        <time>2017-05-21T07:16:10Z</time>
      </trkpt>
      <trkpt lat="42.45549" lon="2.20983">
        <ele>2037.65</ele>
        <time>2017-05-21T07:16:18Z</time>
      </trkpt>
      <trkpt lat="42.45548" lon="2.20983">
        <ele>2037.65</ele>
        <time>2017-05-21T07:16:34Z</time>
      </trkpt>
      <trkpt lat="42.45548" lon="2.20984">
        <ele>2037.65</ele>
        <time>2017-05-21T07:16:49Z</time>
      </trkpt>
      <trkpt lat="42.45547" lon="2.20986">
        <ele>2039.09</ele>
        <time>2017-05-21T07:16:51Z</time>
      </trkpt>
      <trkpt lat="42.45548" lon="2.20985">
        <ele>2037.17</ele>
        <time>2017-05-21T07:17:04Z</time>
      </trkpt>
      <trkpt lat="42.4555" lon="2.20979">
        <ele>2037.17</ele>
        <time>2017-05-21T07:17:17Z</time>
      </trkpt>
      <trkpt lat="42.4555" lon="2.20969">
        <ele>2038.61</ele>
        <time>2017-05-21T07:17:29Z</time>
      </trkpt>
      <trkpt lat="42.45549" lon="2.2096">
        <ele>2040.05</ele>
        <time>2017-05-21T07:17:40Z</time>
      </trkpt>
      <trkpt lat="42.45555" lon="2.20945">
        <ele>2041.02</ele>
        <time>2017-05-21T07:17:53Z</time>
      </trkpt>
      <trkpt lat="42.4556" lon="2.20936">
        <ele>2042.46</ele>
        <time>2017-05-21T07:18:04Z</time>
      </trkpt>
      <trkpt lat="42.45566" lon="2.20926">
        <ele>2043.9</ele>
        <time>2017-05-21T07:18:17Z</time>
      </trkpt>
      <trkpt lat="42.45565" lon="2.20926">
        <ele>2044.86</ele>
        <time>2017-05-21T07:18:26Z</time>
      </trkpt>
      <trkpt lat="42.45569" lon="2.20919">
        <ele>2044.86</ele>
        <time>2017-05-21T07:18:36Z</time>
      </trkpt>
      <trkpt lat="42.45573" lon="2.20911">
        <ele>2045.82</ele>
        <time>2017-05-21T07:18:45Z</time>
      </trkpt>
      <trkpt lat="42.45575" lon="2.20904">
        <ele>2047.75</ele>
        <time>2017-05-21T07:18:57Z</time>
      </trkpt>
      <trkpt lat="42.45576" lon="2.20898">
        <ele>2048.71</ele>
        <time>2017-05-21T07:19:10Z</time>
      </trkpt>
      <trkpt lat="42.45581" lon="2.20886">
        <ele>2050.15</ele>
        <time>2017-05-21T07:19:23Z</time>
      </trkpt>
      <trkpt lat="42.45582" lon="2.20885">
        <ele>2050.15</ele>
        <time>2017-05-21T07:19:25Z</time>
      </trkpt>
      <trkpt lat="42.4558" lon="2.20877">
        <ele>2051.11</ele>
        <time>2017-05-21T07:19:35Z</time>
      </trkpt>
      <trkpt lat="42.45575" lon="2.20866">
        <ele>2052.55</ele>
        <time>2017-05-21T07:19:48Z</time>
      </trkpt>
      <trkpt lat="42.4557" lon="2.20853">
        <ele>2053.51</ele>
        <time>2017-05-21T07:20:02Z</time>
      </trkpt>
      <trkpt lat="42.45568" lon="2.20844">
        <ele>2055.44</ele>
        <time>2017-05-21T07:20:14Z</time>
      </trkpt>
      <trkpt lat="42.45563" lon="2.20841">
        <ele>2056.88</ele>
        <time>2017-05-21T07:20:26Z</time>
      </trkpt>
      <trkpt lat="42.45557" lon="2.20842">
        <ele>2058.8</ele>
        <time>2017-05-21T07:20:39Z</time>
      </trkpt>
      <trkpt lat="42.45555" lon="2.20844">
        <ele>2059.76</ele>
        <time>2017-05-21T07:20:49Z</time>
      </trkpt>
      <trkpt lat="42.45551" lon="2.20846">
        <ele>2061.2</ele>
        <time>2017-05-21T07:21:01Z</time>
      </trkpt>
      <trkpt lat="42.45548" lon="2.20847">
        <ele>2062.17</ele>
        <time>2017-05-21T07:21:11Z</time>
      </trkpt>
      <trkpt lat="42.45544" lon="2.20843">
        <ele>2064.57</ele>
        <time>2017-05-21T07:21:23Z</time>
      </trkpt>
      <trkpt lat="42.45541" lon="2.20839">
        <ele>2066.49</ele>
        <time>2017-05-21T07:21:34Z</time>
      </trkpt>
      <trkpt lat="42.45533" lon="2.20834">
        <ele>2066.97</ele>
        <time>2017-05-21T07:21:46Z</time>
      </trkpt>
      <trkpt lat="42.45524" lon="2.20828">
        <ele>2068.89</ele>
        <time>2017-05-21T07:21:57Z</time>
      </trkpt>
      <trkpt lat="42.45518" lon="2.20821">
        <ele>2069.86</ele>
        <time>2017-05-21T07:22:07Z</time>
      </trkpt>
      <trkpt lat="42.45513" lon="2.20819">
        <ele>2069.86</ele>
        <time>2017-05-21T07:22:11Z</time>
      </trkpt>
      <trkpt lat="42.4551" lon="2.20816">
        <ele>2069.86</ele>
        <time>2017-05-21T07:22:15Z</time>
      </trkpt>
      <trkpt lat="42.45503" lon="2.20804">
        <ele>2070.34</ele>
        <time>2017-05-21T07:22:27Z</time>
      </trkpt>
      <trkpt lat="42.45502" lon="2.20803">
        <ele>2070.34</ele>
        <time>2017-05-21T07:22:28Z</time>
      </trkpt>
      <trkpt lat="42.45496" lon="2.20792">
        <ele>2071.3</ele>
        <time>2017-05-21T07:22:40Z</time>
      </trkpt>
      <trkpt lat="42.45491" lon="2.20784">
        <ele>2072.26</ele>
        <time>2017-05-21T07:22:52Z</time>
      </trkpt>
      <trkpt lat="42.45486" lon="2.20776">
        <ele>2073.7</ele>
        <time>2017-05-21T07:23:03Z</time>
      </trkpt>
      <trkpt lat="42.45481" lon="2.20769">
        <ele>2075.14</ele>
        <time>2017-05-21T07:23:13Z</time>
      </trkpt>
      <trkpt lat="42.45475" lon="2.20763">
        <ele>2075.62</ele>
        <time>2017-05-21T07:23:24Z</time>
      </trkpt>
      <trkpt lat="42.45469" lon="2.20751">
        <ele>2077.07</ele>
        <time>2017-05-21T07:23:37Z</time>
      </trkpt>
      <trkpt lat="42.45464" lon="2.20741">
        <ele>2078.03</ele>
        <time>2017-05-21T07:23:50Z</time>
      </trkpt>
      <trkpt lat="42.45462" lon="2.20736">
        <ele>2078.03</ele>
        <time>2017-05-21T07:23:55Z</time>
      </trkpt>
      <trkpt lat="42.45463" lon="2.20733">
        <ele>2078.51</ele>
        <time>2017-05-21T07:23:57Z</time>
      </trkpt>
      <trkpt lat="42.45457" lon="2.20717">
        <ele>2078.51</ele>
        <time>2017-05-21T07:24:10Z</time>
      </trkpt>
      <trkpt lat="42.4545" lon="2.20704">
        <ele>2078.99</ele>
        <time>2017-05-21T07:24:21Z</time>
      </trkpt>
      <trkpt lat="42.45443" lon="2.20687">
        <ele>2079.47</ele>
        <time>2017-05-21T07:24:35Z</time>
      </trkpt>
      <trkpt lat="42.45441" lon="2.20677">
        <ele>2079.47</ele>
        <time>2017-05-21T07:24:47Z</time>
      </trkpt>
      <trkpt lat="42.4544" lon="2.20676">
        <ele>2079.47</ele>
        <time>2017-05-21T07:25:03Z</time>
      </trkpt>
      <trkpt lat="42.45438" lon="2.20673">
        <ele>2079.47</ele>
        <time>2017-05-21T07:25:17Z</time>
      </trkpt>
      <trkpt lat="42.45437" lon="2.20664">
        <ele>2079.47</ele>
        <time>2017-05-21T07:25:27Z</time>
      </trkpt>
      <trkpt lat="42.45437" lon="2.20661">
        <ele>2078.03</ele>
        <time>2017-05-21T07:25:29Z</time>
      </trkpt>
      <trkpt lat="42.45437" lon="2.20651">
        <ele>2078.03</ele>
        <time>2017-05-21T07:25:40Z</time>
      </trkpt>
      <trkpt lat="42.45435" lon="2.20643">
        <ele>2077.07</ele>
        <time>2017-05-21T07:25:55Z</time>
      </trkpt>
      <trkpt lat="42.45431" lon="2.20634">
        <ele>2075.62</ele>
        <time>2017-05-21T07:26:06Z</time>
      </trkpt>
      <trkpt lat="42.4543" lon="2.20632">
        <ele>2075.62</ele>
        <time>2017-05-21T07:26:14Z</time>
      </trkpt>
      <trkpt lat="42.45429" lon="2.20628">
        <ele>2075.62</ele>
        <time>2017-05-21T07:26:25Z</time>
      </trkpt>
      <trkpt lat="42.45426" lon="2.20629">
        <ele>2075.62</ele>
        <time>2017-05-21T07:26:51Z</time>
      </trkpt>
      <trkpt lat="42.45427" lon="2.20626">
        <ele>2076.59</ele>
        <time>2017-05-21T07:27:10Z</time>
      </trkpt>
      <trkpt lat="42.45427" lon="2.20626">
        <ele>2076.59</ele>
        <time>2017-05-21T07:27:11Z</time>
      </trkpt>
      <trkpt lat="42.45427" lon="2.20625">
        <ele>2076.59</ele>
        <time>2017-05-21T07:27:14Z</time>
      </trkpt>
      <trkpt lat="42.45423" lon="2.20617">
        <ele>2077.07</ele>
        <time>2017-05-21T07:27:23Z</time>
      </trkpt>
      <trkpt lat="42.45415" lon="2.20613">
        <ele>2077.07</ele>
        <time>2017-05-21T07:27:33Z</time>
      </trkpt>
      <trkpt lat="42.45406" lon="2.20615">
        <ele>2078.51</ele>
        <time>2017-05-21T07:27:45Z</time>
      </trkpt>
      <trkpt lat="42.45402" lon="2.20611">
        <ele>2079.95</ele>
        <time>2017-05-21T07:27:56Z</time>
      </trkpt>
      <trkpt lat="42.45397" lon="2.20611">
        <ele>2080.91</ele>
        <time>2017-05-21T07:28:06Z</time>
      </trkpt>
      <trkpt lat="42.45392" lon="2.20616">
        <ele>2079.47</ele>
        <time>2017-05-21T07:28:16Z</time>
      </trkpt>
      <trkpt lat="42.45386" lon="2.20617">
        <ele>2079.47</ele>
        <time>2017-05-21T07:28:27Z</time>
      </trkpt>
      <trkpt lat="42.45382" lon="2.2062">
        <ele>2078.51</ele>
        <time>2017-05-21T07:28:38Z</time>
      </trkpt>
      <trkpt lat="42.45379" lon="2.20621">
        <ele>2078.51</ele>
        <time>2017-05-21T07:28:50Z</time>
      </trkpt>
      <trkpt lat="42.45376" lon="2.2062">
        <ele>2079.95</ele>
        <time>2017-05-21T07:29:09Z</time>
      </trkpt>
      <trkpt lat="42.45373" lon="2.20623">
        <ele>2080.43</ele>
        <time>2017-05-21T07:29:31Z</time>
      </trkpt>
      <trkpt lat="42.4537" lon="2.2062">
        <ele>2080.91</ele>
        <time>2017-05-21T07:29:46Z</time>
      </trkpt>
      <trkpt lat="42.45367" lon="2.2062">
        <ele>2081.87</ele>
        <time>2017-05-21T07:29:57Z</time>
      </trkpt>
      <trkpt lat="42.45364" lon="2.20618">
        <ele>2083.31</ele>
        <time>2017-05-21T07:30:09Z</time>
      </trkpt>
      <trkpt lat="42.45359" lon="2.20621">
        <ele>2085.24</ele>
        <time>2017-05-21T07:30:23Z</time>
      </trkpt>
      <trkpt lat="42.45351" lon="2.20624">
        <ele>2085.24</ele>
        <time>2017-05-21T07:30:33Z</time>
      </trkpt>
      <trkpt lat="42.45343" lon="2.20626">
        <ele>2085.72</ele>
        <time>2017-05-21T07:30:44Z</time>
      </trkpt>
      <trkpt lat="42.45339" lon="2.20626">
        <ele>2087.16</ele>
        <time>2017-05-21T07:30:57Z</time>
      </trkpt>
      <trkpt lat="42.45335" lon="2.20625">
        <ele>2088.6</ele>
        <time>2017-05-21T07:31:08Z</time>
      </trkpt>
      <trkpt lat="42.45333" lon="2.20622">
        <ele>2089.56</ele>
        <time>2017-05-21T07:31:21Z</time>
      </trkpt>
      <trkpt lat="42.45328" lon="2.20623">
        <ele>2091.49</ele>
        <time>2017-05-21T07:31:33Z</time>
      </trkpt>
      <trkpt lat="42.45321" lon="2.2063">
        <ele>2091.49</ele>
        <time>2017-05-21T07:31:43Z</time>
      </trkpt>
      <trkpt lat="42.45315" lon="2.20628">
        <ele>2092.45</ele>
        <time>2017-05-21T07:31:54Z</time>
      </trkpt>
      <trkpt lat="42.45308" lon="2.20627">
        <ele>2093.41</ele>
        <time>2017-05-21T07:32:04Z</time>
      </trkpt>
      <trkpt lat="42.45302" lon="2.2062">
        <ele>2094.37</ele>
        <time>2017-05-21T07:32:16Z</time>
      </trkpt>
      <trkpt lat="42.45302" lon="2.20611">
        <ele>2094.37</ele>
        <time>2017-05-21T07:32:23Z</time>
      </trkpt>
      <trkpt lat="42.453" lon="2.20601">
        <ele>2095.33</ele>
        <time>2017-05-21T07:32:34Z</time>
      </trkpt>
      <trkpt lat="42.45299" lon="2.20589">
        <ele>2097.25</ele>
        <time>2017-05-21T07:32:46Z</time>
      </trkpt>
      <trkpt lat="42.45295" lon="2.20582">
        <ele>2097.73</ele>
        <time>2017-05-21T07:32:56Z</time>
      </trkpt>
      <trkpt lat="42.45293" lon="2.2057">
        <ele>2098.7</ele>
        <time>2017-05-21T07:33:08Z</time>
      </trkpt>
      <trkpt lat="42.45292" lon="2.20557">
        <ele>2098.7</ele>
        <time>2017-05-21T07:33:19Z</time>
      </trkpt>
      <trkpt lat="42.4529" lon="2.20547">
        <ele>2098.7</ele>
        <time>2017-05-21T07:33:31Z</time>
      </trkpt>
      <trkpt lat="42.45287" lon="2.20538">
        <ele>2098.7</ele>
        <time>2017-05-21T07:33:41Z</time>
      </trkpt>
      <trkpt lat="42.45284" lon="2.20529">
        <ele>2098.7</ele>
        <time>2017-05-21T07:33:52Z</time>
      </trkpt>
      <trkpt lat="42.45281" lon="2.20528">
        <ele>2098.7</ele>
        <time>2017-05-21T07:34:16Z</time>
      </trkpt>
      <trkpt lat="42.45284" lon="2.2053">
        <ele>2099.66</ele>
        <time>2017-05-21T07:34:41Z</time>
      </trkpt>
      <trkpt lat="42.45284" lon="2.20529">
        <ele>2098.21</ele>
        <time>2017-05-21T07:34:57Z</time>
      </trkpt>
      <trkpt lat="42.45283" lon="2.20526">
        <ele>2099.18</ele>
        <time>2017-05-21T07:35:05Z</time>
      </trkpt>
      <trkpt lat="42.45285" lon="2.20519">
        <ele>2099.66</ele>
        <time>2017-05-21T07:35:13Z</time>
      </trkpt>
      <trkpt lat="42.45286" lon="2.2051">
        <ele>2100.14</ele>
        <time>2017-05-21T07:35:24Z</time>
      </trkpt>
      <trkpt lat="42.45287" lon="2.205">
        <ele>2101.1</ele>
        <time>2017-05-21T07:35:36Z</time>
      </trkpt>
      <trkpt lat="42.45285" lon="2.20494">
        <ele>2099.66</ele>
        <time>2017-05-21T07:35:45Z</time>
      </trkpt>
      <trkpt lat="42.4528" lon="2.20486">
        <ele>2099.66</ele>
        <time>2017-05-21T07:35:57Z</time>
      </trkpt>
      <trkpt lat="42.45282" lon="2.20481">
        <ele>2099.18</ele>
        <time>2017-05-21T07:36:08Z</time>
      </trkpt>
      <trkpt lat="42.45276" lon="2.20473">
        <ele>2100.62</ele>
        <time>2017-05-21T07:36:24Z</time>
      </trkpt>
      <trkpt lat="42.45277" lon="2.20473">
        <ele>2100.62</ele>
        <time>2017-05-21T07:36:33Z</time>
      </trkpt>
      <trkpt lat="42.45277" lon="2.20473">
        <ele>2099.18</ele>
        <time>2017-05-21T07:36:38Z</time>
      </trkpt>
      <trkpt lat="42.45277" lon="2.20472">
        <ele>2100.62</ele>
        <time>2017-05-21T07:36:41Z</time>
      </trkpt>
      <trkpt lat="42.45273" lon="2.20471">
        <ele>2099.66</ele>
        <time>2017-05-21T07:36:56Z</time>
      </trkpt>
      <trkpt lat="42.45273" lon="2.2047">
        <ele>2099.66</ele>
        <time>2017-05-21T07:37:05Z</time>
      </trkpt>
      <trkpt lat="42.45271" lon="2.2047">
        <ele>2099.66</ele>
        <time>2017-05-21T07:37:08Z</time>
      </trkpt>
      <trkpt lat="42.4527" lon="2.20467">
        <ele>2099.66</ele>
        <time>2017-05-21T07:37:10Z</time>
      </trkpt>
      <trkpt lat="42.45262" lon="2.20463">
        <ele>2099.66</ele>
        <time>2017-05-21T07:37:22Z</time>
      </trkpt>
      <trkpt lat="42.45261" lon="2.20464">
        <ele>2099.66</ele>
        <time>2017-05-21T07:37:35Z</time>
      </trkpt>
      <trkpt lat="42.45259" lon="2.20464">
        <ele>2099.66</ele>
        <time>2017-05-21T07:38:07Z</time>
      </trkpt>
      <trkpt lat="42.4526" lon="2.20464">
        <ele>2100.14</ele>
        <time>2017-05-21T07:38:28Z</time>
      </trkpt>
      <trkpt lat="42.45259" lon="2.2046">
        <ele>2100.14</ele>
        <time>2017-05-21T07:38:53Z</time>
      </trkpt>
      <trkpt lat="42.4526" lon="2.20461">
        <ele>2102.06</ele>
        <time>2017-05-21T07:39:13Z</time>
      </trkpt>
      <trkpt lat="42.4526" lon="2.20463">
        <ele>2101.1</ele>
        <time>2017-05-21T07:39:33Z</time>
      </trkpt>
      <trkpt lat="42.4526" lon="2.20467">
        <ele>2101.1</ele>
        <time>2017-05-21T07:39:58Z</time>
      </trkpt>
      <trkpt lat="42.4526" lon="2.20466">
        <ele>2101.1</ele>
        <time>2017-05-21T07:40:23Z</time>
      </trkpt>
      <trkpt lat="42.45259" lon="2.20465">
        <ele>2101.1</ele>
        <time>2017-05-21T07:40:36Z</time>
      </trkpt>
      <trkpt lat="42.45259" lon="2.20466">
        <ele>2102.54</ele>
        <time>2017-05-21T07:40:42Z</time>
      </trkpt>
      <trkpt lat="42.45259" lon="2.20463">
        <ele>2102.54</ele>
        <time>2017-05-21T07:40:59Z</time>
      </trkpt>
      <trkpt lat="42.45252" lon="2.20459">
        <ele>2102.54</ele>
        <time>2017-05-21T07:41:09Z</time>
      </trkpt>
      <trkpt lat="42.45247" lon="2.20458">
        <ele>2102.54</ele>
        <time>2017-05-21T07:41:32Z</time>
      </trkpt>
      <trkpt lat="42.45238" lon="2.20456">
        <ele>2102.54</ele>
        <time>2017-05-21T07:41:43Z</time>
      </trkpt>
      <trkpt lat="42.45234" lon="2.20456">
        <ele>2102.54</ele>
        <time>2017-05-21T07:41:47Z</time>
      </trkpt>
      <trkpt lat="42.45223" lon="2.20459">
        <ele>2102.54</ele>
        <time>2017-05-21T07:41:59Z</time>
      </trkpt>
      <trkpt lat="42.45214" lon="2.20459">
        <ele>2102.54</ele>
        <time>2017-05-21T07:42:09Z</time>
      </trkpt>
      <trkpt lat="42.45207" lon="2.20458">
        <ele>2103.5</ele>
        <time>2017-05-21T07:42:22Z</time>
      </trkpt>
      <trkpt lat="42.45204" lon="2.20462">
        <ele>2103.5</ele>
        <time>2017-05-21T07:42:37Z</time>
      </trkpt>
      <trkpt lat="42.45196" lon="2.20465">
        <ele>2103.5</ele>
        <time>2017-05-21T07:42:49Z</time>
      </trkpt>
      <trkpt lat="42.45194" lon="2.20453">
        <ele>2103.98</ele>
        <time>2017-05-21T07:43:02Z</time>
      </trkpt>
      <trkpt lat="42.45196" lon="2.20438">
        <ele>2106.87</ele>
        <time>2017-05-21T07:43:15Z</time>
      </trkpt>
      <trkpt lat="42.45192" lon="2.20423">
        <ele>2107.35</ele>
        <time>2017-05-21T07:43:28Z</time>
      </trkpt>
      <trkpt lat="42.4519" lon="2.20421">
        <ele>2108.31</ele>
        <time>2017-05-21T07:43:39Z</time>
      </trkpt>
      <trkpt lat="42.45184" lon="2.20416">
        <ele>2108.79</ele>
        <time>2017-05-21T07:43:53Z</time>
      </trkpt>
      <trkpt lat="42.45183" lon="2.20416">
        <ele>2108.79</ele>
        <time>2017-05-21T07:43:54Z</time>
      </trkpt>
      <trkpt lat="42.45177" lon="2.20413">
        <ele>2109.27</ele>
        <time>2017-05-21T07:44:06Z</time>
      </trkpt>
      <trkpt lat="42.45176" lon="2.20414">
        <ele>2109.27</ele>
        <time>2017-05-21T07:44:20Z</time>
      </trkpt>
      <trkpt lat="42.45171" lon="2.20408">
        <ele>2110.23</ele>
        <time>2017-05-21T07:44:35Z</time>
      </trkpt>
      <trkpt lat="42.45162" lon="2.20399">
        <ele>2111.67</ele>
        <time>2017-05-21T07:44:48Z</time>
      </trkpt>
      <trkpt lat="42.45153" lon="2.20393">
        <ele>2113.12</ele>
        <time>2017-05-21T07:45:00Z</time>
      </trkpt>
      <trkpt lat="42.45144" lon="2.20383">
        <ele>2115.52</ele>
        <time>2017-05-21T07:45:13Z</time>
      </trkpt>
      <trkpt lat="42.45135" lon="2.20369">
        <ele>2117.44</ele>
        <time>2017-05-21T07:45:28Z</time>
      </trkpt>
      <trkpt lat="42.45127" lon="2.20364">
        <ele>2118.88</ele>
        <time>2017-05-21T07:45:39Z</time>
      </trkpt>
      <trkpt lat="42.4512" lon="2.20356">
        <ele>2119.84</ele>
        <time>2017-05-21T07:45:49Z</time>
      </trkpt>
      <trkpt lat="42.45111" lon="2.20348">
        <ele>2121.29</ele>
        <time>2017-05-21T07:46:01Z</time>
      </trkpt>
      <trkpt lat="42.45103" lon="2.2034">
        <ele>2122.73</ele>
        <time>2017-05-21T07:46:13Z</time>
      </trkpt>
      <trkpt lat="42.45093" lon="2.20333">
        <ele>2124.17</ele>
        <time>2017-05-21T07:46:25Z</time>
      </trkpt>
      <trkpt lat="42.45084" lon="2.20324">
        <ele>2125.13</ele>
        <time>2017-05-21T07:46:36Z</time>
      </trkpt>
      <trkpt lat="42.45074" lon="2.20316">
        <ele>2127.05</ele>
        <time>2017-05-21T07:46:49Z</time>
      </trkpt>
      <trkpt lat="42.45068" lon="2.2031">
        <ele>2128.98</ele>
        <time>2017-05-21T07:47:00Z</time>
      </trkpt>
      <trkpt lat="42.4506" lon="2.20307">
        <ele>2130.9</ele>
        <time>2017-05-21T07:47:12Z</time>
      </trkpt>
      <trkpt lat="42.45053" lon="2.20302">
        <ele>2132.82</ele>
        <time>2017-05-21T07:47:25Z</time>
      </trkpt>
      <trkpt lat="42.4505" lon="2.20296">
        <ele>2134.26</ele>
        <time>2017-05-21T07:47:36Z</time>
      </trkpt>
      <trkpt lat="42.45043" lon="2.20294">
        <ele>2135.71</ele>
        <time>2017-05-21T07:47:48Z</time>
      </trkpt>
      <trkpt lat="42.45038" lon="2.20291">
        <ele>2137.15</ele>
        <time>2017-05-21T07:48:00Z</time>
      </trkpt>
      <trkpt lat="42.45037" lon="2.20292">
        <ele>2137.15</ele>
        <time>2017-05-21T07:48:24Z</time>
      </trkpt>
      <trkpt lat="42.45037" lon="2.20292">
        <ele>2137.63</ele>
        <time>2017-05-21T07:48:50Z</time>
      </trkpt>
      <trkpt lat="42.45037" lon="2.20292">
        <ele>2137.63</ele>
        <time>2017-05-21T07:49:17Z</time>
      </trkpt>
      <trkpt lat="42.45036" lon="2.20291">
        <ele>2137.63</ele>
        <time>2017-05-21T07:49:48Z</time>
      </trkpt>
      <trkpt lat="42.45037" lon="2.20293">
        <ele>2137.63</ele>
        <time>2017-05-21T07:50:06Z</time>
      </trkpt>
      <trkpt lat="42.45036" lon="2.20293">
        <ele>2138.11</ele>
        <time>2017-05-21T07:50:25Z</time>
      </trkpt>
      <trkpt lat="42.45036" lon="2.20293">
        <ele>2138.11</ele>
        <time>2017-05-21T07:50:51Z</time>
      </trkpt>
      <trkpt lat="42.45037" lon="2.20294">
        <ele>2138.59</ele>
        <time>2017-05-21T07:51:06Z</time>
      </trkpt>
      <trkpt lat="42.45038" lon="2.20292">
        <ele>2138.59</ele>
        <time>2017-05-21T07:51:25Z</time>
      </trkpt>
      <trkpt lat="42.45038" lon="2.20292">
        <ele>2138.11</ele>
        <time>2017-05-21T07:51:34Z</time>
      </trkpt>
      <trkpt lat="42.45039" lon="2.2029">
        <ele>2138.11</ele>
        <time>2017-05-21T07:51:52Z</time>
      </trkpt>
      <trkpt lat="42.45034" lon="2.20285">
        <ele>2138.11</ele>
        <time>2017-05-21T07:52:09Z</time>
      </trkpt>
      <trkpt lat="42.45032" lon="2.20283">
        <ele>2138.11</ele>
        <time>2017-05-21T07:52:18Z</time>
      </trkpt>
      <trkpt lat="42.45026" lon="2.20277">
        <ele>2139.55</ele>
        <time>2017-05-21T07:52:29Z</time>
      </trkpt>
      <trkpt lat="42.45025" lon="2.20276">
        <ele>2139.55</ele>
        <time>2017-05-21T07:52:31Z</time>
      </trkpt>
      <trkpt lat="42.45017" lon="2.2027">
        <ele>2140.51</ele>
        <time>2017-05-21T07:52:44Z</time>
      </trkpt>
      <trkpt lat="42.45012" lon="2.20264">
        <ele>2142.44</ele>
        <time>2017-05-21T07:52:56Z</time>
      </trkpt>
      <trkpt lat="42.4501" lon="2.20264">
        <ele>2142.92</ele>
        <time>2017-05-21T07:53:07Z</time>
      </trkpt>
      <trkpt lat="42.45002" lon="2.2026">
        <ele>2144.36</ele>
        <time>2017-05-21T07:53:20Z</time>
      </trkpt>
      <trkpt lat="42.44995" lon="2.20251">
        <ele>2146.28</ele>
        <time>2017-05-21T07:53:34Z</time>
      </trkpt>
      <trkpt lat="42.44985" lon="2.20245">
        <ele>2147.24</ele>
        <time>2017-05-21T07:53:45Z</time>
      </trkpt>
      <trkpt lat="42.44972" lon="2.20243">
        <ele>2148.2</ele>
        <time>2017-05-21T07:53:57Z</time>
      </trkpt>
      <trkpt lat="42.4497" lon="2.20244">
        <ele>2148.2</ele>
        <time>2017-05-21T07:54:10Z</time>
      </trkpt>
      <trkpt lat="42.44968" lon="2.20243">
        <ele>2148.2</ele>
        <time>2017-05-21T07:54:23Z</time>
      </trkpt>
      <trkpt lat="42.44968" lon="2.2024">
        <ele>2148.2</ele>
        <time>2017-05-21T07:54:44Z</time>
      </trkpt>
      <trkpt lat="42.44963" lon="2.20241">
        <ele>2148.2</ele>
        <time>2017-05-21T07:54:57Z</time>
      </trkpt>
      <trkpt lat="42.44958" lon="2.20239">
        <ele>2148.2</ele>
        <time>2017-05-21T07:55:11Z</time>
      </trkpt>
      <trkpt lat="42.44959" lon="2.2024">
        <ele>2148.2</ele>
        <time>2017-05-21T07:55:34Z</time>
      </trkpt>
      <trkpt lat="42.44962" lon="2.20242">
        <ele>2148.2</ele>
        <time>2017-05-21T07:56:00Z</time>
      </trkpt>
      <trkpt lat="42.4496" lon="2.20242">
        <ele>2148.68</ele>
        <time>2017-05-21T07:56:13Z</time>
      </trkpt>
      <trkpt lat="42.4496" lon="2.20245">
        <ele>2148.68</ele>
        <time>2017-05-21T07:56:35Z</time>
      </trkpt>
      <trkpt lat="42.44961" lon="2.20243">
        <ele>2148.68</ele>
        <time>2017-05-21T07:57:00Z</time>
      </trkpt>
      <trkpt lat="42.44958" lon="2.2024">
        <ele>2148.68</ele>
        <time>2017-05-21T07:57:11Z</time>
      </trkpt>
      <trkpt lat="42.44953" lon="2.20236">
        <ele>2148.68</ele>
        <time>2017-05-21T07:57:24Z</time>
      </trkpt>
      <trkpt lat="42.44945" lon="2.20224">
        <ele>2149.16</ele>
        <time>2017-05-21T07:57:36Z</time>
      </trkpt>
      <trkpt lat="42.44944" lon="2.20224">
        <ele>2149.16</ele>
        <time>2017-05-21T07:57:37Z</time>
      </trkpt>
      <trkpt lat="42.44937" lon="2.20219">
        <ele>2149.65</ele>
        <time>2017-05-21T07:57:49Z</time>
      </trkpt>
      <trkpt lat="42.4494" lon="2.2022">
        <ele>2149.65</ele>
        <time>2017-05-21T07:58:21Z</time>
      </trkpt>
      <trkpt lat="42.44938" lon="2.2022">
        <ele>2149.65</ele>
        <time>2017-05-21T07:58:49Z</time>
      </trkpt>
      <trkpt lat="42.44931" lon="2.20219">
        <ele>2149.65</ele>
        <time>2017-05-21T07:58:56Z</time>
      </trkpt>
      <trkpt lat="42.44921" lon="2.20211">
        <ele>2150.13</ele>
        <time>2017-05-21T07:59:08Z</time>
      </trkpt>
      <trkpt lat="42.44919" lon="2.20209">
        <ele>2150.13</ele>
        <time>2017-05-21T07:59:10Z</time>
      </trkpt>
      <trkpt lat="42.44913" lon="2.20201">
        <ele>2151.57</ele>
        <time>2017-05-21T07:59:22Z</time>
      </trkpt>
      <trkpt lat="42.44909" lon="2.20195">
        <ele>2153.01</ele>
        <time>2017-05-21T07:59:33Z</time>
      </trkpt>
      <trkpt lat="42.44907" lon="2.20187">
        <ele>2154.45</ele>
        <time>2017-05-21T07:59:45Z</time>
      </trkpt>
      <trkpt lat="42.44904" lon="2.20185">
        <ele>2155.89</ele>
        <time>2017-05-21T07:59:54Z</time>
      </trkpt>
      <trkpt lat="42.44904" lon="2.2018">
        <ele>2156.86</ele>
        <time>2017-05-21T08:00:06Z</time>
      </trkpt>
      <trkpt lat="42.44904" lon="2.20175">
        <ele>2158.3</ele>
        <time>2017-05-21T08:00:16Z</time>
      </trkpt>
      <trkpt lat="42.44901" lon="2.2017">
        <ele>2159.26</ele>
        <time>2017-05-21T08:00:25Z</time>
      </trkpt>
      <trkpt lat="42.44896" lon="2.20161">
        <ele>2159.74</ele>
        <time>2017-05-21T08:00:35Z</time>
      </trkpt>
      <trkpt lat="42.44891" lon="2.20152">
        <ele>2160.7</ele>
        <time>2017-05-21T08:00:46Z</time>
      </trkpt>
      <trkpt lat="42.44888" lon="2.20149">
        <ele>2161.18</ele>
        <time>2017-05-21T08:00:50Z</time>
      </trkpt>
      <trkpt lat="42.44879" lon="2.20139">
        <ele>2161.18</ele>
        <time>2017-05-21T08:01:03Z</time>
      </trkpt>
      <trkpt lat="42.44877" lon="2.20136">
        <ele>2161.18</ele>
        <time>2017-05-21T08:01:06Z</time>
      </trkpt>
      <trkpt lat="42.44868" lon="2.20129">
        <ele>2159.26</ele>
        <time>2017-05-21T08:01:18Z</time>
      </trkpt>
      <trkpt lat="42.44863" lon="2.20124">
        <ele>2158.78</ele>
        <time>2017-05-21T08:01:28Z</time>
      </trkpt>
      <trkpt lat="42.44857" lon="2.2012">
        <ele>2158.78</ele>
        <time>2017-05-21T08:01:40Z</time>
      </trkpt>
      <trkpt lat="42.44851" lon="2.20118">
        <ele>2159.74</ele>
        <time>2017-05-21T08:01:53Z</time>
      </trkpt>
      <trkpt lat="42.44844" lon="2.2012">
        <ele>2159.74</ele>
        <time>2017-05-21T08:02:04Z</time>
      </trkpt>
      <trkpt lat="42.44837" lon="2.20122">
        <ele>2159.74</ele>
        <time>2017-05-21T08:02:20Z</time>
      </trkpt>
      <trkpt lat="42.44836" lon="2.20123">
        <ele>2160.22</ele>
        <time>2017-05-21T08:02:45Z</time>
      </trkpt>
      <trkpt lat="42.44831" lon="2.2012">
        <ele>2160.22</ele>
        <time>2017-05-21T08:02:55Z</time>
      </trkpt>
      <trkpt lat="42.44827" lon="2.20119">
        <ele>2160.22</ele>
        <time>2017-05-21T08:03:04Z</time>
      </trkpt>
      <trkpt lat="42.44819" lon="2.20119">
        <ele>2160.22</ele>
        <time>2017-05-21T08:03:16Z</time>
      </trkpt>
      <trkpt lat="42.44813" lon="2.20119">
        <ele>2160.22</ele>
        <time>2017-05-21T08:03:26Z</time>
      </trkpt>
      <trkpt lat="42.44809" lon="2.20118">
        <ele>2158.3</ele>
        <time>2017-05-21T08:03:36Z</time>
      </trkpt>
      <trkpt lat="42.44805" lon="2.20119">
        <ele>2157.82</ele>
        <time>2017-05-21T08:03:46Z</time>
      </trkpt>
      <trkpt lat="42.448" lon="2.20121">
        <ele>2156.37</ele>
        <time>2017-05-21T08:03:58Z</time>
      </trkpt>
      <trkpt lat="42.44795" lon="2.20122">
        <ele>2154.93</ele>
        <time>2017-05-21T08:04:11Z</time>
      </trkpt>
      <trkpt lat="42.44788" lon="2.20121">
        <ele>2153.97</ele>
        <time>2017-05-21T08:04:21Z</time>
      </trkpt>
      <trkpt lat="42.44781" lon="2.20118">
        <ele>2153.49</ele>
        <time>2017-05-21T08:04:33Z</time>
      </trkpt>
      <trkpt lat="42.44773" lon="2.20115">
        <ele>2152.53</ele>
        <time>2017-05-21T08:04:45Z</time>
      </trkpt>
      <trkpt lat="42.44769" lon="2.20115">
        <ele>2151.57</ele>
        <time>2017-05-21T08:04:55Z</time>
      </trkpt>
      <trkpt lat="42.44768" lon="2.20117">
        <ele>2151.57</ele>
        <time>2017-05-21T08:05:15Z</time>
      </trkpt>
      <trkpt lat="42.44765" lon="2.20115">
        <ele>2151.57</ele>
        <time>2017-05-21T08:05:29Z</time>
      </trkpt>
      <trkpt lat="42.44764" lon="2.20113">
        <ele>2151.57</ele>
        <time>2017-05-21T08:05:33Z</time>
      </trkpt>
      <trkpt lat="42.44763" lon="2.20111">
        <ele>2151.57</ele>
        <time>2017-05-21T08:05:44Z</time>
      </trkpt>
      <trkpt lat="42.44761" lon="2.20111">
        <ele>2151.57</ele>
        <time>2017-05-21T08:06:06Z</time>
      </trkpt>
      <trkpt lat="42.44761" lon="2.20108">
        <ele>2151.57</ele>
        <time>2017-05-21T08:06:25Z</time>
      </trkpt>
      <trkpt lat="42.4476" lon="2.20103">
        <ele>2151.57</ele>
        <time>2017-05-21T08:06:36Z</time>
      </trkpt>
      <trkpt lat="42.44755" lon="2.20097">
        <ele>2151.57</ele>
        <time>2017-05-21T08:06:45Z</time>
      </trkpt>
      <trkpt lat="42.44746" lon="2.20089">
        <ele>2151.57</ele>
        <time>2017-05-21T08:06:56Z</time>
      </trkpt>
      <trkpt lat="42.44745" lon="2.20084">
        <ele>2151.57</ele>
        <time>2017-05-21T08:07:00Z</time>
      </trkpt>
      <trkpt lat="42.44745" lon="2.20078">
        <ele>2151.57</ele>
        <time>2017-05-21T08:07:06Z</time>
      </trkpt>
      <trkpt lat="42.44737" lon="2.20067">
        <ele>2153.01</ele>
        <time>2017-05-21T08:07:16Z</time>
      </trkpt>
      <trkpt lat="42.44733" lon="2.20059">
        <ele>2153.01</ele>
        <time>2017-05-21T08:07:23Z</time>
      </trkpt>
      <trkpt lat="42.4472" lon="2.20051">
        <ele>2153.49</ele>
        <time>2017-05-21T08:07:36Z</time>
      </trkpt>
      <trkpt lat="42.44715" lon="2.20046">
        <ele>2153.49</ele>
        <time>2017-05-21T08:07:41Z</time>
      </trkpt>
      <trkpt lat="42.44704" lon="2.20031">
        <ele>2154.93</ele>
        <time>2017-05-21T08:07:55Z</time>
      </trkpt>
      <trkpt lat="42.44693" lon="2.20016">
        <ele>2154.93</ele>
        <time>2017-05-21T08:08:09Z</time>
      </trkpt>
      <trkpt lat="42.44692" lon="2.20016">
        <ele>2154.93</ele>
        <time>2017-05-21T08:08:10Z</time>
      </trkpt>
      <trkpt lat="42.44686" lon="2.20008">
        <ele>2154.93</ele>
        <time>2017-05-21T08:08:17Z</time>
      </trkpt>
      <trkpt lat="42.44677" lon="2.19996">
        <ele>2154.93</ele>
        <time>2017-05-21T08:08:28Z</time>
      </trkpt>
      <trkpt lat="42.44669" lon="2.19989">
        <ele>2154.93</ele>
        <time>2017-05-21T08:08:38Z</time>
      </trkpt>
      <trkpt lat="42.44664" lon="2.19981">
        <ele>2153.97</ele>
        <time>2017-05-21T08:08:49Z</time>
      </trkpt>
      <trkpt lat="42.44658" lon="2.1997">
        <ele>2153.97</ele>
        <time>2017-05-21T08:09:00Z</time>
      </trkpt>
      <trkpt lat="42.44654" lon="2.19965">
        <ele>2153.49</ele>
        <time>2017-05-21T08:09:09Z</time>
      </trkpt>
      <trkpt lat="42.44654" lon="2.19964">
        <ele>2153.49</ele>
        <time>2017-05-21T08:09:10Z</time>
      </trkpt>
      <trkpt lat="42.44653" lon="2.19966">
        <ele>2154.93</ele>
        <time>2017-05-21T08:09:13Z</time>
      </trkpt>
      <trkpt lat="42.44653" lon="2.19967">
        <ele>2154.93</ele>
        <time>2017-05-21T08:09:30Z</time>
      </trkpt>
      <trkpt lat="42.44653" lon="2.19967">
        <ele>2153.49</ele>
        <time>2017-05-21T08:09:33Z</time>
      </trkpt>
      <trkpt lat="42.44651" lon="2.19965">
        <ele>2153.49</ele>
        <time>2017-05-21T08:09:42Z</time>
      </trkpt>
      <trkpt lat="42.44644" lon="2.19961">
        <ele>2153.49</ele>
        <time>2017-05-21T08:09:53Z</time>
      </trkpt>
      <trkpt lat="42.44637" lon="2.19956">
        <ele>2153.49</ele>
        <time>2017-05-21T08:10:05Z</time>
      </trkpt>
      <trkpt lat="42.44631" lon="2.19951">
        <ele>2153.49</ele>
        <time>2017-05-21T08:10:18Z</time>
      </trkpt>
      <trkpt lat="42.44626" lon="2.1995">
        <ele>2153.49</ele>
        <time>2017-05-21T08:10:32Z</time>
      </trkpt>
      <trkpt lat="42.44618" lon="2.19945">
        <ele>2154.45</ele>
        <time>2017-05-21T08:10:46Z</time>
      </trkpt>
      <trkpt lat="42.44608" lon="2.19947">
        <ele>2154.45</ele>
        <time>2017-05-21T08:10:58Z</time>
      </trkpt>
      <trkpt lat="42.44598" lon="2.19945">
        <ele>2154.93</ele>
        <time>2017-05-21T08:11:09Z</time>
      </trkpt>
      <trkpt lat="42.44596" lon="2.19938">
        <ele>2155.41</ele>
        <time>2017-05-21T08:11:19Z</time>
      </trkpt>
      <trkpt lat="42.44589" lon="2.19935">
        <ele>2155.41</ele>
        <time>2017-05-21T08:11:30Z</time>
      </trkpt>
      <trkpt lat="42.44579" lon="2.19937">
        <ele>2155.41</ele>
        <time>2017-05-21T08:11:42Z</time>
      </trkpt>
      <trkpt lat="42.44572" lon="2.1994">
        <ele>2155.41</ele>
        <time>2017-05-21T08:11:52Z</time>
      </trkpt>
      <trkpt lat="42.44564" lon="2.19944">
        <ele>2155.89</ele>
        <time>2017-05-21T08:12:03Z</time>
      </trkpt>
      <trkpt lat="42.44561" lon="2.19947">
        <ele>2155.89</ele>
        <time>2017-05-21T08:12:08Z</time>
      </trkpt>
      <trkpt lat="42.44548" lon="2.1995">
        <ele>2155.89</ele>
        <time>2017-05-21T08:12:19Z</time>
      </trkpt>
      <trkpt lat="42.44546" lon="2.19951">
        <ele>2155.89</ele>
        <time>2017-05-21T08:12:22Z</time>
      </trkpt>
      <trkpt lat="42.44543" lon="2.19949">
        <ele>2155.89</ele>
        <time>2017-05-21T08:12:25Z</time>
      </trkpt>
      <trkpt lat="42.44538" lon="2.19951">
        <ele>2155.89</ele>
        <time>2017-05-21T08:12:30Z</time>
      </trkpt>
      <trkpt lat="42.44525" lon="2.19947">
        <ele>2156.37</ele>
        <time>2017-05-21T08:12:42Z</time>
      </trkpt>
      <trkpt lat="42.44516" lon="2.19949">
        <ele>2156.37</ele>
        <time>2017-05-21T08:12:52Z</time>
      </trkpt>
      <trkpt lat="42.44513" lon="2.19947">
        <ele>2156.86</ele>
        <time>2017-05-21T08:12:56Z</time>
      </trkpt>
      <trkpt lat="42.44506" lon="2.1994">
        <ele>2157.34</ele>
        <time>2017-05-21T08:13:06Z</time>
      </trkpt>
      <trkpt lat="42.44499" lon="2.19936">
        <ele>2158.3</ele>
        <time>2017-05-21T08:13:14Z</time>
      </trkpt>
      <trkpt lat="42.44489" lon="2.19939">
        <ele>2159.26</ele>
        <time>2017-05-21T08:13:26Z</time>
      </trkpt>
      <trkpt lat="42.44479" lon="2.1994">
        <ele>2159.26</ele>
        <time>2017-05-21T08:13:37Z</time>
      </trkpt>
      <trkpt lat="42.44472" lon="2.19941">
        <ele>2160.22</ele>
        <time>2017-05-21T08:13:46Z</time>
      </trkpt>
      <trkpt lat="42.44464" lon="2.19939">
        <ele>2161.18</ele>
        <time>2017-05-21T08:13:57Z</time>
      </trkpt>
      <trkpt lat="42.44458" lon="2.19938">
        <ele>2162.62</ele>
        <time>2017-05-21T08:14:09Z</time>
      </trkpt>
      <trkpt lat="42.44453" lon="2.19939">
        <ele>2164.06</ele>
        <time>2017-05-21T08:14:20Z</time>
      </trkpt>
      <trkpt lat="42.44448" lon="2.19934">
        <ele>2166.47</ele>
        <time>2017-05-21T08:14:32Z</time>
      </trkpt>
      <trkpt lat="42.44442" lon="2.19936">
        <ele>2166.95</ele>
        <time>2017-05-21T08:14:44Z</time>
      </trkpt>
      <trkpt lat="42.44439" lon="2.19938">
        <ele>2167.91</ele>
        <time>2017-05-21T08:14:54Z</time>
      </trkpt>
      <trkpt lat="42.44437" lon="2.19942">
        <ele>2169.35</ele>
        <time>2017-05-21T08:15:07Z</time>
      </trkpt>
      <trkpt lat="42.44433" lon="2.19937">
        <ele>2170.79</ele>
        <time>2017-05-21T08:15:19Z</time>
      </trkpt>
      <trkpt lat="42.44425" lon="2.19933">
        <ele>2172.24</ele>
        <time>2017-05-21T08:15:31Z</time>
      </trkpt>
      <trkpt lat="42.44419" lon="2.19927">
        <ele>2173.68</ele>
        <time>2017-05-21T08:15:42Z</time>
      </trkpt>
      <trkpt lat="42.44413" lon="2.19927">
        <ele>2174.64</ele>
        <time>2017-05-21T08:15:53Z</time>
      </trkpt>
      <trkpt lat="42.44407" lon="2.19925">
        <ele>2176.56</ele>
        <time>2017-05-21T08:16:06Z</time>
      </trkpt>
      <trkpt lat="42.44402" lon="2.19924">
        <ele>2177.52</ele>
        <time>2017-05-21T08:16:15Z</time>
      </trkpt>
      <trkpt lat="42.44394" lon="2.19923">
        <ele>2178.48</ele>
        <time>2017-05-21T08:16:27Z</time>
      </trkpt>
      <trkpt lat="42.44391" lon="2.19925">
        <ele>2178.97</ele>
        <time>2017-05-21T08:16:33Z</time>
      </trkpt>
      <trkpt lat="42.44381" lon="2.19927">
        <ele>2179.45</ele>
        <time>2017-05-21T08:16:43Z</time>
      </trkpt>
      <trkpt lat="42.44373" lon="2.19917">
        <ele>2179.45</ele>
        <time>2017-05-21T08:16:55Z</time>
      </trkpt>
      <trkpt lat="42.44368" lon="2.19911">
        <ele>2179.45</ele>
        <time>2017-05-21T08:17:06Z</time>
      </trkpt>
      <trkpt lat="42.44361" lon="2.19903">
        <ele>2179.45</ele>
        <time>2017-05-21T08:17:17Z</time>
      </trkpt>
      <trkpt lat="42.44355" lon="2.19896">
        <ele>2179.93</ele>
        <time>2017-05-21T08:17:27Z</time>
      </trkpt>
      <trkpt lat="42.44341" lon="2.1989">
        <ele>2179.93</ele>
        <time>2017-05-21T08:17:39Z</time>
      </trkpt>
      <trkpt lat="42.44338" lon="2.19889">
        <ele>2179.93</ele>
        <time>2017-05-21T08:17:42Z</time>
      </trkpt>
      <trkpt lat="42.44324" lon="2.19886">
        <ele>2180.41</ele>
        <time>2017-05-21T08:17:54Z</time>
      </trkpt>
      <trkpt lat="42.44322" lon="2.19888">
        <ele>2180.41</ele>
        <time>2017-05-21T08:17:56Z</time>
      </trkpt>
      <trkpt lat="42.44311" lon="2.19888">
        <ele>2181.37</ele>
        <time>2017-05-21T08:18:07Z</time>
      </trkpt>
      <trkpt lat="42.44299" lon="2.19891">
        <ele>2181.85</ele>
        <time>2017-05-21T08:18:18Z</time>
      </trkpt>
      <trkpt lat="42.44292" lon="2.19894">
        <ele>2182.81</ele>
        <time>2017-05-21T08:18:28Z</time>
      </trkpt>
      <trkpt lat="42.44288" lon="2.19895">
        <ele>2182.81</ele>
        <time>2017-05-21T08:18:38Z</time>
      </trkpt>
      <trkpt lat="42.44285" lon="2.19897">
        <ele>2182.81</ele>
        <time>2017-05-21T08:18:53Z</time>
      </trkpt>
      <trkpt lat="42.44282" lon="2.19901">
        <ele>2182.81</ele>
        <time>2017-05-21T08:19:07Z</time>
      </trkpt>
      <trkpt lat="42.44282" lon="2.19902">
        <ele>2182.81</ele>
        <time>2017-05-21T08:19:08Z</time>
      </trkpt>
      <trkpt lat="42.44274" lon="2.19906">
        <ele>2183.29</ele>
        <time>2017-05-21T08:19:19Z</time>
      </trkpt>
      <trkpt lat="42.44264" lon="2.19908">
        <ele>2184.73</ele>
        <time>2017-05-21T08:19:31Z</time>
      </trkpt>
      <trkpt lat="42.44256" lon="2.19907">
        <ele>2185.69</ele>
        <time>2017-05-21T08:19:42Z</time>
      </trkpt>
      <trkpt lat="42.44247" lon="2.19907">
        <ele>2187.14</ele>
        <time>2017-05-21T08:19:54Z</time>
      </trkpt>
      <trkpt lat="42.44241" lon="2.19908">
        <ele>2189.06</ele>
        <time>2017-05-21T08:20:05Z</time>
      </trkpt>
      <trkpt lat="42.44237" lon="2.19907">
        <ele>2190.02</ele>
        <time>2017-05-21T08:20:16Z</time>
      </trkpt>
      <trkpt lat="42.44232" lon="2.19904">
        <ele>2191.46</ele>
        <time>2017-05-21T08:20:27Z</time>
      </trkpt>
      <trkpt lat="42.44228" lon="2.19902">
        <ele>2192.42</ele>
        <time>2017-05-21T08:20:37Z</time>
      </trkpt>
      <trkpt lat="42.44224" lon="2.19898">
        <ele>2193.87</ele>
        <time>2017-05-21T08:20:48Z</time>
      </trkpt>
      <trkpt lat="42.4422" lon="2.1989">
        <ele>2195.31</ele>
        <time>2017-05-21T08:20:58Z</time>
      </trkpt>
      <trkpt lat="42.44212" lon="2.1989">
        <ele>2196.75</ele>
        <time>2017-05-21T08:21:11Z</time>
      </trkpt>
      <trkpt lat="42.44209" lon="2.19892">
        <ele>2197.71</ele>
        <time>2017-05-21T08:21:29Z</time>
      </trkpt>
      <trkpt lat="42.44203" lon="2.1989">
        <ele>2198.67</ele>
        <time>2017-05-21T08:21:43Z</time>
      </trkpt>
      <trkpt lat="42.44197" lon="2.1989">
        <ele>2200.11</ele>
        <time>2017-05-21T08:21:54Z</time>
      </trkpt>
      <trkpt lat="42.4419" lon="2.1989">
        <ele>2201.56</ele>
        <time>2017-05-21T08:22:09Z</time>
      </trkpt>
      <trkpt lat="42.44189" lon="2.19888">
        <ele>2202.04</ele>
        <time>2017-05-21T08:22:19Z</time>
      </trkpt>
      <trkpt lat="42.44188" lon="2.19892">
        <ele>2203.48</ele>
        <time>2017-05-21T08:22:30Z</time>
      </trkpt>
      <trkpt lat="42.44183" lon="2.19894">
        <ele>2204.92</ele>
        <time>2017-05-21T08:22:43Z</time>
      </trkpt>
      <trkpt lat="42.44178" lon="2.19895">
        <ele>2206.36</ele>
        <time>2017-05-21T08:22:56Z</time>
      </trkpt>
      <trkpt lat="42.44172" lon="2.19897">
        <ele>2207.81</ele>
        <time>2017-05-21T08:23:07Z</time>
      </trkpt>
      <trkpt lat="42.44168" lon="2.19901">
        <ele>2208.77</ele>
        <time>2017-05-21T08:23:16Z</time>
      </trkpt>
      <trkpt lat="42.44161" lon="2.19908">
        <ele>2209.25</ele>
        <time>2017-05-21T08:23:25Z</time>
      </trkpt>
      <trkpt lat="42.44154" lon="2.19919">
        <ele>2209.25</ele>
        <time>2017-05-21T08:23:36Z</time>
      </trkpt>
      <trkpt lat="42.44147" lon="2.19921">
        <ele>2209.25</ele>
        <time>2017-05-21T08:23:47Z</time>
      </trkpt>
      <trkpt lat="42.44141" lon="2.19924">
        <ele>2207.81</ele>
        <time>2017-05-21T08:23:56Z</time>
      </trkpt>
      <trkpt lat="42.44135" lon="2.19926">
        <ele>2207.32</ele>
        <time>2017-05-21T08:24:07Z</time>
      </trkpt>
      <trkpt lat="42.44132" lon="2.19932">
        <ele>2207.32</ele>
        <time>2017-05-21T08:24:17Z</time>
      </trkpt>
      <trkpt lat="42.44128" lon="2.19939">
        <ele>2207.32</ele>
        <time>2017-05-21T08:24:27Z</time>
      </trkpt>
      <trkpt lat="42.44122" lon="2.19943">
        <ele>2208.29</ele>
        <time>2017-05-21T08:24:38Z</time>
      </trkpt>
      <trkpt lat="42.44115" lon="2.19948">
        <ele>2209.25</ele>
        <time>2017-05-21T08:24:48Z</time>
      </trkpt>
      <trkpt lat="42.44109" lon="2.19953">
        <ele>2209.73</ele>
        <time>2017-05-21T08:24:58Z</time>
      </trkpt>
      <trkpt lat="42.44107" lon="2.19955">
        <ele>2209.73</ele>
        <time>2017-05-21T08:25:00Z</time>
      </trkpt>
      <trkpt lat="42.44099" lon="2.1996">
        <ele>2210.69</ele>
        <time>2017-05-21T08:25:10Z</time>
      </trkpt>
      <trkpt lat="42.44091" lon="2.19965">
        <ele>2211.17</ele>
        <time>2017-05-21T08:25:21Z</time>
      </trkpt>
      <trkpt lat="42.44088" lon="2.19966">
        <ele>2211.65</ele>
        <time>2017-05-21T08:25:25Z</time>
      </trkpt>
      <trkpt lat="42.44079" lon="2.19967">
        <ele>2212.61</ele>
        <time>2017-05-21T08:25:37Z</time>
      </trkpt>
      <trkpt lat="42.44072" lon="2.19964">
        <ele>2214.05</ele>
        <time>2017-05-21T08:25:48Z</time>
      </trkpt>
      <trkpt lat="42.44071" lon="2.19964">
        <ele>2214.05</ele>
        <time>2017-05-21T08:25:49Z</time>
      </trkpt>
      <trkpt lat="42.44064" lon="2.19966">
        <ele>2215.01</ele>
        <time>2017-05-21T08:25:59Z</time>
      </trkpt>
      <trkpt lat="42.44063" lon="2.19966">
        <ele>2215.5</ele>
        <time>2017-05-21T08:26:12Z</time>
      </trkpt>
      <trkpt lat="42.44064" lon="2.19964">
        <ele>2215.5</ele>
        <time>2017-05-21T08:26:28Z</time>
      </trkpt>
      <trkpt lat="42.44064" lon="2.19965">
        <ele>2215.5</ele>
        <time>2017-05-21T08:26:50Z</time>
      </trkpt>
      <trkpt lat="42.44058" lon="2.19965">
        <ele>2216.94</ele>
        <time>2017-05-21T08:27:05Z</time>
      </trkpt>
      <trkpt lat="42.4405" lon="2.19971">
        <ele>2218.38</ele>
        <time>2017-05-21T08:27:21Z</time>
      </trkpt>
      <trkpt lat="42.44044" lon="2.19975">
        <ele>2219.82</ele>
        <time>2017-05-21T08:27:32Z</time>
      </trkpt>
      <trkpt lat="42.44038" lon="2.19976">
        <ele>2219.82</ele>
        <time>2017-05-21T08:27:43Z</time>
      </trkpt>
      <trkpt lat="42.44034" lon="2.19975">
        <ele>2220.3</ele>
        <time>2017-05-21T08:27:56Z</time>
      </trkpt>
      <trkpt lat="42.44032" lon="2.19971">
        <ele>2220.3</ele>
        <time>2017-05-21T08:28:04Z</time>
      </trkpt>
      <trkpt lat="42.44023" lon="2.19973">
        <ele>2220.78</ele>
        <time>2017-05-21T08:28:13Z</time>
      </trkpt>
      <trkpt lat="42.44021" lon="2.19972">
        <ele>2221.26</ele>
        <time>2017-05-21T08:28:17Z</time>
      </trkpt>
      <trkpt lat="42.44015" lon="2.19969">
        <ele>2222.22</ele>
        <time>2017-05-21T08:28:29Z</time>
      </trkpt>
      <trkpt lat="42.44006" lon="2.19969">
        <ele>2224.15</ele>
        <time>2017-05-21T08:28:43Z</time>
      </trkpt>
      <trkpt lat="42.44002" lon="2.1997">
        <ele>2225.59</ele>
        <time>2017-05-21T08:28:56Z</time>
      </trkpt>
      <trkpt lat="42.43998" lon="2.19972">
        <ele>2227.03</ele>
        <time>2017-05-21T08:29:09Z</time>
      </trkpt>
      <trkpt lat="42.43993" lon="2.19968">
        <ele>2227.99</ele>
        <time>2017-05-21T08:29:20Z</time>
      </trkpt>
      <trkpt lat="42.43987" lon="2.19972">
        <ele>2230.4</ele>
        <time>2017-05-21T08:29:32Z</time>
      </trkpt>
      <trkpt lat="42.43986" lon="2.19971">
        <ele>2228.47</ele>
        <time>2017-05-21T08:29:38Z</time>
      </trkpt>
      <trkpt lat="42.43984" lon="2.19976">
        <ele>2229.92</ele>
        <time>2017-05-21T08:29:48Z</time>
      </trkpt>
      <trkpt lat="42.43984" lon="2.19977">
        <ele>2229.92</ele>
        <time>2017-05-21T08:29:49Z</time>
      </trkpt>
      <trkpt lat="42.43982" lon="2.1998">
        <ele>2229.92</ele>
        <time>2017-05-21T08:29:52Z</time>
      </trkpt>
      <trkpt lat="42.43979" lon="2.19982">
        <ele>2229.92</ele>
        <time>2017-05-21T08:29:55Z</time>
      </trkpt>
      <trkpt lat="42.43974" lon="2.19987">
        <ele>2230.4</ele>
        <time>2017-05-21T08:30:04Z</time>
      </trkpt>
      <trkpt lat="42.43968" lon="2.19988">
        <ele>2231.36</ele>
        <time>2017-05-21T08:30:14Z</time>
      </trkpt>
      <trkpt lat="42.43959" lon="2.19984">
        <ele>2232.32</ele>
        <time>2017-05-21T08:30:26Z</time>
      </trkpt>
      <trkpt lat="42.4395" lon="2.19982">
        <ele>2233.28</ele>
        <time>2017-05-21T08:30:38Z</time>
      </trkpt>
      <trkpt lat="42.4395" lon="2.19981">
        <ele>2233.76</ele>
        <time>2017-05-21T08:30:50Z</time>
      </trkpt>
      <trkpt lat="42.43949" lon="2.19981">
        <ele>2234.24</ele>
        <time>2017-05-21T08:31:02Z</time>
      </trkpt>
      <trkpt lat="42.43947" lon="2.19982">
        <ele>2234.24</ele>
        <time>2017-05-21T08:31:23Z</time>
      </trkpt>
      <trkpt lat="42.43947" lon="2.19981">
        <ele>2232.8</ele>
        <time>2017-05-21T08:31:37Z</time>
      </trkpt>
      <trkpt lat="42.43947" lon="2.19981">
        <ele>2234.24</ele>
        <time>2017-05-21T08:31:39Z</time>
      </trkpt>
      <trkpt lat="42.43947" lon="2.19982">
        <ele>2234.24</ele>
        <time>2017-05-21T08:31:55Z</time>
      </trkpt>
      <trkpt lat="42.43945" lon="2.19978">
        <ele>2234.24</ele>
        <time>2017-05-21T08:32:21Z</time>
      </trkpt>
      <trkpt lat="42.43944" lon="2.19977">
        <ele>2234.72</ele>
        <time>2017-05-21T08:32:51Z</time>
      </trkpt>
      <trkpt lat="42.43943" lon="2.19977">
        <ele>2234.72</ele>
        <time>2017-05-21T08:33:11Z</time>
      </trkpt>
      <trkpt lat="42.43939" lon="2.19979">
        <ele>2234.72</ele>
        <time>2017-05-21T08:33:18Z</time>
      </trkpt>
      <trkpt lat="42.43935" lon="2.19987">
        <ele>2233.76</ele>
        <time>2017-05-21T08:33:27Z</time>
      </trkpt>
      <trkpt lat="42.43933" lon="2.19993">
        <ele>2233.76</ele>
        <time>2017-05-21T08:33:37Z</time>
      </trkpt>
      <trkpt lat="42.43932" lon="2.19997">
        <ele>2235.2</ele>
        <time>2017-05-21T08:33:45Z</time>
      </trkpt>
      <trkpt lat="42.43931" lon="2.20002">
        <ele>2235.68</ele>
        <time>2017-05-21T08:34:01Z</time>
      </trkpt>
      <trkpt lat="42.43924" lon="2.20013">
        <ele>2236.16</ele>
        <time>2017-05-21T08:34:14Z</time>
      </trkpt>
      <trkpt lat="42.43925" lon="2.20013">
        <ele>2236.16</ele>
        <time>2017-05-21T08:34:24Z</time>
      </trkpt>
      <trkpt lat="42.43922" lon="2.2002">
        <ele>2236.64</ele>
        <time>2017-05-21T08:34:36Z</time>
      </trkpt>
      <trkpt lat="42.43919" lon="2.20025">
        <ele>2237.13</ele>
        <time>2017-05-21T08:34:45Z</time>
      </trkpt>
      <trkpt lat="42.43911" lon="2.2003">
        <ele>2237.61</ele>
        <time>2017-05-21T08:34:58Z</time>
      </trkpt>
      <trkpt lat="42.43903" lon="2.20029">
        <ele>2237.61</ele>
        <time>2017-05-21T08:35:10Z</time>
      </trkpt>
      <trkpt lat="42.43894" lon="2.20028">
        <ele>2238.09</ele>
        <time>2017-05-21T08:35:21Z</time>
      </trkpt>
      <trkpt lat="42.43888" lon="2.20025">
        <ele>2238.09</ele>
        <time>2017-05-21T08:35:29Z</time>
      </trkpt>
      <trkpt lat="42.43879" lon="2.20021">
        <ele>2238.09</ele>
        <time>2017-05-21T08:35:40Z</time>
      </trkpt>
      <trkpt lat="42.43873" lon="2.20017">
        <ele>2238.57</ele>
        <time>2017-05-21T08:35:50Z</time>
      </trkpt>
      <trkpt lat="42.43868" lon="2.20009">
        <ele>2239.05</ele>
        <time>2017-05-21T08:36:03Z</time>
      </trkpt>
      <trkpt lat="42.43864" lon="2.20004">
        <ele>2238.57</ele>
        <time>2017-05-21T08:36:15Z</time>
      </trkpt>
      <trkpt lat="42.43861" lon="2.2">
        <ele>2238.57</ele>
        <time>2017-05-21T08:36:27Z</time>
      </trkpt>
      <trkpt lat="42.43857" lon="2.19997">
        <ele>2239.05</ele>
        <time>2017-05-21T08:36:39Z</time>
      </trkpt>
      <trkpt lat="42.43856" lon="2.19994">
        <ele>2237.61</ele>
        <time>2017-05-21T08:36:51Z</time>
      </trkpt>
      <trkpt lat="42.43853" lon="2.1999">
        <ele>2237.13</ele>
        <time>2017-05-21T08:37:04Z</time>
      </trkpt>
      <trkpt lat="42.43851" lon="2.19987">
        <ele>2236.16</ele>
        <time>2017-05-21T08:37:13Z</time>
      </trkpt>
      <trkpt lat="42.43849" lon="2.19985">
        <ele>2236.16</ele>
        <time>2017-05-21T08:37:16Z</time>
      </trkpt>
      <trkpt lat="42.43839" lon="2.19978">
        <ele>2236.16</ele>
        <time>2017-05-21T08:37:30Z</time>
      </trkpt>
      <trkpt lat="42.43834" lon="2.19979">
        <ele>2237.61</ele>
        <time>2017-05-21T08:37:36Z</time>
      </trkpt>
      <trkpt lat="42.43822" lon="2.19976">
        <ele>2238.57</ele>
        <time>2017-05-21T08:37:49Z</time>
      </trkpt>
      <trkpt lat="42.43814" lon="2.19969">
        <ele>2240.01</ele>
        <time>2017-05-21T08:38:02Z</time>
      </trkpt>
      <trkpt lat="42.4381" lon="2.19964">
        <ele>2241.45</ele>
        <time>2017-05-21T08:38:11Z</time>
      </trkpt>
      <trkpt lat="42.43804" lon="2.19956">
        <ele>2242.89</ele>
        <time>2017-05-21T08:38:22Z</time>
      </trkpt>
      <trkpt lat="42.43794" lon="2.19949">
        <ele>2244.33</ele>
        <time>2017-05-21T08:38:36Z</time>
      </trkpt>
      <trkpt lat="42.43787" lon="2.19946">
        <ele>2244.82</ele>
        <time>2017-05-21T08:38:44Z</time>
      </trkpt>
      <trkpt lat="42.43782" lon="2.19938">
        <ele>2245.3</ele>
        <time>2017-05-21T08:38:54Z</time>
      </trkpt>
      <trkpt lat="42.43781" lon="2.19937">
        <ele>2244.82</ele>
        <time>2017-05-21T08:39:05Z</time>
      </trkpt>
      <trkpt lat="42.43781" lon="2.19938">
        <ele>2244.82</ele>
        <time>2017-05-21T08:39:06Z</time>
      </trkpt>
      <trkpt lat="42.43777" lon="2.19937">
        <ele>2246.74</ele>
        <time>2017-05-21T08:39:16Z</time>
      </trkpt>
      <trkpt lat="42.4377" lon="2.19938">
        <ele>2245.3</ele>
        <time>2017-05-21T08:39:25Z</time>
      </trkpt>
      <trkpt lat="42.43763" lon="2.1994">
        <ele>2244.82</ele>
        <time>2017-05-21T08:39:35Z</time>
      </trkpt>
      <trkpt lat="42.43762" lon="2.1994">
        <ele>2244.33</ele>
        <time>2017-05-21T08:39:37Z</time>
      </trkpt>
      <trkpt lat="42.43749" lon="2.19947">
        <ele>2243.37</ele>
        <time>2017-05-21T08:39:51Z</time>
      </trkpt>
      <trkpt lat="42.43742" lon="2.1995">
        <ele>2242.89</ele>
        <time>2017-05-21T08:40:05Z</time>
      </trkpt>
      <trkpt lat="42.43736" lon="2.19951">
        <ele>2242.89</ele>
        <time>2017-05-21T08:40:15Z</time>
      </trkpt>
      <trkpt lat="42.43731" lon="2.19953">
        <ele>2242.89</ele>
        <time>2017-05-21T08:40:26Z</time>
      </trkpt>
      <trkpt lat="42.43728" lon="2.19954">
        <ele>2242.89</ele>
        <time>2017-05-21T08:40:35Z</time>
      </trkpt>
      <trkpt lat="42.43722" lon="2.19956">
        <ele>2242.89</ele>
        <time>2017-05-21T08:40:51Z</time>
      </trkpt>
      <trkpt lat="42.43712" lon="2.19959">
        <ele>2242.89</ele>
        <time>2017-05-21T08:41:02Z</time>
      </trkpt>
      <trkpt lat="42.43702" lon="2.19966">
        <ele>2242.89</ele>
        <time>2017-05-21T08:41:13Z</time>
      </trkpt>
      <trkpt lat="42.43695" lon="2.19976">
        <ele>2242.89</ele>
        <time>2017-05-21T08:41:24Z</time>
      </trkpt>
      <trkpt lat="42.43692" lon="2.19988">
        <ele>2244.33</ele>
        <time>2017-05-21T08:41:34Z</time>
      </trkpt>
      <trkpt lat="42.43692" lon="2.19988">
        <ele>2244.33</ele>
        <time>2017-05-21T08:41:35Z</time>
      </trkpt>
      <trkpt lat="42.43691" lon="2.19987">
        <ele>2244.33</ele>
        <time>2017-05-21T08:41:51Z</time>
      </trkpt>
      <trkpt lat="42.43692" lon="2.19985">
        <ele>2244.82</ele>
        <time>2017-05-21T08:42:03Z</time>
      </trkpt>
      <trkpt lat="42.43692" lon="2.19985">
        <ele>2244.82</ele>
        <time>2017-05-21T08:42:19Z</time>
      </trkpt>
      <trkpt lat="42.43692" lon="2.19987">
        <ele>2244.82</ele>
        <time>2017-05-21T08:42:35Z</time>
      </trkpt>
      <trkpt lat="42.43692" lon="2.19985">
        <ele>2245.3</ele>
        <time>2017-05-21T08:42:41Z</time>
      </trkpt>
      <trkpt lat="42.4369" lon="2.19986">
        <ele>2245.3</ele>
        <time>2017-05-21T08:43:00Z</time>
      </trkpt>
      <trkpt lat="42.4369" lon="2.19987">
        <ele>2245.3</ele>
        <time>2017-05-21T08:43:22Z</time>
      </trkpt>
      <trkpt lat="42.43691" lon="2.19988">
        <ele>2245.3</ele>
        <time>2017-05-21T08:43:28Z</time>
      </trkpt>
      <trkpt lat="42.43688" lon="2.2">
        <ele>2245.78</ele>
        <time>2017-05-21T08:43:39Z</time>
      </trkpt>
      <trkpt lat="42.43683" lon="2.20007">
        <ele>2245.78</ele>
        <time>2017-05-21T08:43:50Z</time>
      </trkpt>
      <trkpt lat="42.43678" lon="2.20014">
        <ele>2245.78</ele>
        <time>2017-05-21T08:43:59Z</time>
      </trkpt>
      <trkpt lat="42.4367" lon="2.20015">
        <ele>2245.78</ele>
        <time>2017-05-21T08:44:11Z</time>
      </trkpt>
      <trkpt lat="42.43664" lon="2.20014">
        <ele>2245.78</ele>
        <time>2017-05-21T08:44:23Z</time>
      </trkpt>
      <trkpt lat="42.43661" lon="2.20016">
        <ele>2245.78</ele>
        <time>2017-05-21T08:44:32Z</time>
      </trkpt>
      <trkpt lat="42.43657" lon="2.20015">
        <ele>2245.78</ele>
        <time>2017-05-21T08:44:39Z</time>
      </trkpt>
      <trkpt lat="42.43653" lon="2.20017">
        <ele>2245.78</ele>
        <time>2017-05-21T08:44:45Z</time>
      </trkpt>
      <trkpt lat="42.43651" lon="2.20019">
        <ele>2245.78</ele>
        <time>2017-05-21T08:44:47Z</time>
      </trkpt>
      <trkpt lat="42.43641" lon="2.20022">
        <ele>2246.26</ele>
        <time>2017-05-21T08:44:58Z</time>
      </trkpt>
      <trkpt lat="42.43635" lon="2.20021">
        <ele>2246.26</ele>
        <time>2017-05-21T08:45:08Z</time>
      </trkpt>
      <trkpt lat="42.43627" lon="2.20027">
        <ele>2246.74</ele>
        <time>2017-05-21T08:45:19Z</time>
      </trkpt>
      <trkpt lat="42.43621" lon="2.20029">
        <ele>2247.7</ele>
        <time>2017-05-21T08:45:28Z</time>
      </trkpt>
      <trkpt lat="42.43613" lon="2.20032">
        <ele>2247.7</ele>
        <time>2017-05-21T08:45:38Z</time>
      </trkpt>
      <trkpt lat="42.43607" lon="2.20035">
        <ele>2247.7</ele>
        <time>2017-05-21T08:45:45Z</time>
      </trkpt>
      <trkpt lat="42.43597" lon="2.20033">
        <ele>2247.7</ele>
        <time>2017-05-21T08:45:56Z</time>
      </trkpt>
      <trkpt lat="42.43594" lon="2.20032">
        <ele>2247.7</ele>
        <time>2017-05-21T08:46:05Z</time>
      </trkpt>
      <trkpt lat="42.43591" lon="2.20031">
        <ele>2247.7</ele>
        <time>2017-05-21T08:46:14Z</time>
      </trkpt>
      <trkpt lat="42.43584" lon="2.2003">
        <ele>2248.18</ele>
        <time>2017-05-21T08:46:26Z</time>
      </trkpt>
      <trkpt lat="42.43581" lon="2.20026">
        <ele>2249.14</ele>
        <time>2017-05-21T08:46:39Z</time>
      </trkpt>
      <trkpt lat="42.43574" lon="2.20024">
        <ele>2250.58</ele>
        <time>2017-05-21T08:46:52Z</time>
      </trkpt>
      <trkpt lat="42.43569" lon="2.20023">
        <ele>2251.54</ele>
        <time>2017-05-21T08:47:04Z</time>
      </trkpt>
      <trkpt lat="42.43568" lon="2.20019">
        <ele>2252.03</ele>
        <time>2017-05-21T08:47:16Z</time>
      </trkpt>
      <trkpt lat="42.43565" lon="2.20011">
        <ele>2252.99</ele>
        <time>2017-05-21T08:47:27Z</time>
      </trkpt>
      <trkpt lat="42.43561" lon="2.2001">
        <ele>2254.43</ele>
        <time>2017-05-21T08:47:37Z</time>
      </trkpt>
      <trkpt lat="42.43556" lon="2.20008">
        <ele>2255.39</ele>
        <time>2017-05-21T08:47:50Z</time>
      </trkpt>
      <trkpt lat="42.43556" lon="2.20007">
        <ele>2255.87</ele>
        <time>2017-05-21T08:48:09Z</time>
      </trkpt>
      <trkpt lat="42.43555" lon="2.20005">
        <ele>2255.87</ele>
        <time>2017-05-21T08:48:30Z</time>
      </trkpt>
      <trkpt lat="42.43554" lon="2.20008">
        <ele>2256.83</ele>
        <time>2017-05-21T08:48:44Z</time>
      </trkpt>
      <trkpt lat="42.43555" lon="2.20008">
        <ele>2256.83</ele>
        <time>2017-05-21T08:49:11Z</time>
      </trkpt>
      <trkpt lat="42.43555" lon="2.20009">
        <ele>2256.83</ele>
        <time>2017-05-21T08:49:36Z</time>
      </trkpt>
      <trkpt lat="42.43555" lon="2.20009">
        <ele>2255.39</ele>
        <time>2017-05-21T08:49:39Z</time>
      </trkpt>
      <trkpt lat="42.43554" lon="2.2001">
        <ele>2256.35</ele>
        <time>2017-05-21T08:49:58Z</time>
      </trkpt>
      <trkpt lat="42.43553" lon="2.2">
        <ele>2255.39</ele>
        <time>2017-05-21T08:50:07Z</time>
      </trkpt>
      <trkpt lat="42.43548" lon="2.19995">
        <ele>2253.95</ele>
        <time>2017-05-21T08:50:14Z</time>
      </trkpt>
      <trkpt lat="42.43538" lon="2.19988">
        <ele>2253.47</ele>
        <time>2017-05-21T08:50:25Z</time>
      </trkpt>
      <trkpt lat="42.43527" lon="2.19984">
        <ele>2252.51</ele>
        <time>2017-05-21T08:50:35Z</time>
      </trkpt>
      <trkpt lat="42.43513" lon="2.19979">
        <ele>2252.51</ele>
        <time>2017-05-21T08:50:49Z</time>
      </trkpt>
      <trkpt lat="42.4351" lon="2.19977">
        <ele>2252.51</ele>
        <time>2017-05-21T08:50:53Z</time>
      </trkpt>
      <trkpt lat="42.43502" lon="2.19976">
        <ele>2253.95</ele>
        <time>2017-05-21T08:51:01Z</time>
      </trkpt>
      <trkpt lat="42.43493" lon="2.19973">
        <ele>2253.95</ele>
        <time>2017-05-21T08:51:12Z</time>
      </trkpt>
      <trkpt lat="42.43484" lon="2.19969">
        <ele>2255.39</ele>
        <time>2017-05-21T08:51:27Z</time>
      </trkpt>
      <trkpt lat="42.43477" lon="2.19967">
        <ele>2256.83</ele>
        <time>2017-05-21T08:51:41Z</time>
      </trkpt>
      <trkpt lat="42.43471" lon="2.19964">
        <ele>2257.31</ele>
        <time>2017-05-21T08:51:53Z</time>
      </trkpt>
      <trkpt lat="42.43466" lon="2.19957">
        <ele>2257.31</ele>
        <time>2017-05-21T08:52:05Z</time>
      </trkpt>
      <trkpt lat="42.43461" lon="2.19956">
        <ele>2257.31</ele>
        <time>2017-05-21T08:52:16Z</time>
      </trkpt>
      <trkpt lat="42.43454" lon="2.19953">
        <ele>2257.79</ele>
        <time>2017-05-21T08:52:29Z</time>
      </trkpt>
      <trkpt lat="42.43451" lon="2.19952">
        <ele>2257.79</ele>
        <time>2017-05-21T08:52:41Z</time>
      </trkpt>
      <trkpt lat="42.43444" lon="2.19947">
        <ele>2257.79</ele>
        <time>2017-05-21T08:52:53Z</time>
      </trkpt>
      <trkpt lat="42.43439" lon="2.19946">
        <ele>2257.79</ele>
        <time>2017-05-21T08:53:03Z</time>
      </trkpt>
      <trkpt lat="42.4343" lon="2.19945">
        <ele>2257.79</ele>
        <time>2017-05-21T08:53:17Z</time>
      </trkpt>
      <trkpt lat="42.43431" lon="2.19942">
        <ele>2257.79</ele>
        <time>2017-05-21T08:53:35Z</time>
      </trkpt>
      <trkpt lat="42.43429" lon="2.19939">
        <ele>2257.79</ele>
        <time>2017-05-21T08:53:45Z</time>
      </trkpt>
      <trkpt lat="42.4343" lon="2.19935">
        <ele>2257.79</ele>
        <time>2017-05-21T08:53:56Z</time>
      </trkpt>
      <trkpt lat="42.4343" lon="2.19929">
        <ele>2257.79</ele>
        <time>2017-05-21T08:54:07Z</time>
      </trkpt>
      <trkpt lat="42.43427" lon="2.19927">
        <ele>2257.79</ele>
        <time>2017-05-21T08:54:12Z</time>
      </trkpt>
      <trkpt lat="42.43423" lon="2.19918">
        <ele>2259.24</ele>
        <time>2017-05-21T08:54:23Z</time>
      </trkpt>
      <trkpt lat="42.43421" lon="2.19909">
        <ele>2259.24</ele>
        <time>2017-05-21T08:54:34Z</time>
      </trkpt>
      <trkpt lat="42.43417" lon="2.19904">
        <ele>2259.24</ele>
        <time>2017-05-21T08:54:44Z</time>
      </trkpt>
      <trkpt lat="42.43414" lon="2.1989">
        <ele>2258.27</ele>
        <time>2017-05-21T08:54:56Z</time>
      </trkpt>
      <trkpt lat="42.43414" lon="2.19888">
        <ele>2258.27</ele>
        <time>2017-05-21T08:55:11Z</time>
      </trkpt>
      <trkpt lat="42.43416" lon="2.19885">
        <ele>2258.27</ele>
        <time>2017-05-21T08:55:23Z</time>
      </trkpt>
      <trkpt lat="42.43417" lon="2.19886">
        <ele>2258.27</ele>
        <time>2017-05-21T08:55:40Z</time>
      </trkpt>
      <trkpt lat="42.43418" lon="2.19887">
        <ele>2257.79</ele>
        <time>2017-05-21T08:55:51Z</time>
      </trkpt>
      <trkpt lat="42.43416" lon="2.19889">
        <ele>2257.79</ele>
        <time>2017-05-21T08:56:16Z</time>
      </trkpt>
      <trkpt lat="42.43415" lon="2.1989">
        <ele>2258.27</ele>
        <time>2017-05-21T08:56:42Z</time>
      </trkpt>
      <trkpt lat="42.43415" lon="2.19888">
        <ele>2258.27</ele>
        <time>2017-05-21T08:57:12Z</time>
      </trkpt>
      <trkpt lat="42.43416" lon="2.19886">
        <ele>2258.27</ele>
        <time>2017-05-21T08:57:46Z</time>
      </trkpt>
      <trkpt lat="42.43416" lon="2.19885">
        <ele>2258.75</ele>
        <time>2017-05-21T08:58:11Z</time>
      </trkpt>
      <trkpt lat="42.43416" lon="2.19884">
        <ele>2258.75</ele>
        <time>2017-05-21T08:58:39Z</time>
      </trkpt>
      <trkpt lat="42.43417" lon="2.19884">
        <ele>2258.75</ele>
        <time>2017-05-21T08:59:09Z</time>
      </trkpt>
      <trkpt lat="42.43416" lon="2.19884">
        <ele>2259.24</ele>
        <time>2017-05-21T08:59:33Z</time>
      </trkpt>
      <trkpt lat="42.43416" lon="2.19885">
        <ele>2259.24</ele>
        <time>2017-05-21T09:00:00Z</time>
      </trkpt>
      <trkpt lat="42.43417" lon="2.19884">
        <ele>2259.72</ele>
        <time>2017-05-21T09:00:29Z</time>
      </trkpt>
      <trkpt lat="42.43416" lon="2.19883">
        <ele>2259.72</ele>
        <time>2017-05-21T09:00:59Z</time>
      </trkpt>
      <trkpt lat="42.43416" lon="2.19884">
        <ele>2259.72</ele>
        <time>2017-05-21T09:01:29Z</time>
      </trkpt>
      <trkpt lat="42.43416" lon="2.19885">
        <ele>2260.2</ele>
        <time>2017-05-21T09:01:57Z</time>
      </trkpt>
      <trkpt lat="42.43416" lon="2.19883">
        <ele>2260.2</ele>
        <time>2017-05-21T09:02:26Z</time>
      </trkpt>
      <trkpt lat="42.43416" lon="2.19883">
        <ele>2260.2</ele>
        <time>2017-05-21T09:02:52Z</time>
      </trkpt>
      <trkpt lat="42.43415" lon="2.19885">
        <ele>2260.2</ele>
        <time>2017-05-21T09:03:18Z</time>
      </trkpt>
      <trkpt lat="42.43415" lon="2.19884">
        <ele>2260.2</ele>
        <time>2017-05-21T09:03:46Z</time>
      </trkpt>
      <trkpt lat="42.43416" lon="2.19884">
        <ele>2260.2</ele>
        <time>2017-05-21T09:04:15Z</time>
      </trkpt>
      <trkpt lat="42.43415" lon="2.19884">
        <ele>2260.2</ele>
        <time>2017-05-21T09:04:42Z</time>
      </trkpt>
      <trkpt lat="42.43415" lon="2.19883">
        <ele>2260.2</ele>
        <time>2017-05-21T09:05:06Z</time>
      </trkpt>
      <trkpt lat="42.43415" lon="2.19884">
        <ele>2260.68</ele>
        <time>2017-05-21T09:05:28Z</time>
      </trkpt>
      <trkpt lat="42.43414" lon="2.19885">
        <ele>2260.68</ele>
        <time>2017-05-21T09:05:57Z</time>
      </trkpt>
      <trkpt lat="42.43415" lon="2.19885">
        <ele>2260.68</ele>
        <time>2017-05-21T09:06:24Z</time>
      </trkpt>
      <trkpt lat="42.43415" lon="2.19885">
        <ele>2260.68</ele>
        <time>2017-05-21T09:06:47Z</time>
      </trkpt>
      <trkpt lat="42.43415" lon="2.19886">
        <ele>2260.2</ele>
        <time>2017-05-21T09:07:15Z</time>
      </trkpt>
      <trkpt lat="42.43413" lon="2.19886">
        <ele>2260.68</ele>
        <time>2017-05-21T09:07:46Z</time>
      </trkpt>
      <trkpt lat="42.43415" lon="2.19886">
        <ele>2260.68</ele>
        <time>2017-05-21T09:08:07Z</time>
      </trkpt>
      <trkpt lat="42.43416" lon="2.19887">
        <ele>2260.68</ele>
        <time>2017-05-21T09:08:32Z</time>
      </trkpt>
      <trkpt lat="42.43415" lon="2.19887">
        <ele>2260.68</ele>
        <time>2017-05-21T09:09:02Z</time>
      </trkpt>
      <trkpt lat="42.43416" lon="2.19884">
        <ele>2260.68</ele>
        <time>2017-05-21T09:09:28Z</time>
      </trkpt>
      <trkpt lat="42.43416" lon="2.19883">
        <ele>2260.68</ele>
        <time>2017-05-21T09:10:01Z</time>
      </trkpt>
      <trkpt lat="42.43415" lon="2.19884">
        <ele>2260.68</ele>
        <time>2017-05-21T09:10:29Z</time>
      </trkpt>
      <trkpt lat="42.43415" lon="2.19885">
        <ele>2260.68</ele>
        <time>2017-05-21T09:10:58Z</time>
      </trkpt>
      <trkpt lat="42.43415" lon="2.19887">
        <ele>2260.68</ele>
        <time>2017-05-21T09:11:26Z</time>
      </trkpt>
      <trkpt lat="42.43415" lon="2.19887">
        <ele>2260.68</ele>
        <time>2017-05-21T09:11:55Z</time>
      </trkpt>
      <trkpt lat="42.43415" lon="2.19886">
        <ele>2260.68</ele>
        <time>2017-05-21T09:12:24Z</time>
      </trkpt>
      <trkpt lat="42.43415" lon="2.19885">
        <ele>2260.68</ele>
        <time>2017-05-21T09:12:50Z</time>
      </trkpt>
      <trkpt lat="42.43417" lon="2.19885">
        <ele>2260.68</ele>
        <time>2017-05-21T09:13:15Z</time>
      </trkpt>
      <trkpt lat="42.43416" lon="2.19883">
        <ele>2261.16</ele>
        <time>2017-05-21T09:13:49Z</time>
      </trkpt>
      <trkpt lat="42.43417" lon="2.19882">
        <ele>2261.16</ele>
        <time>2017-05-21T09:14:21Z</time>
      </trkpt>
      <trkpt lat="42.43417" lon="2.19884">
        <ele>2261.16</ele>
        <time>2017-05-21T09:14:45Z</time>
      </trkpt>
      <trkpt lat="42.43415" lon="2.19883">
        <ele>2261.16</ele>
        <time>2017-05-21T09:15:09Z</time>
      </trkpt>
      <trkpt lat="42.43416" lon="2.19886">
        <ele>2261.16</ele>
        <time>2017-05-21T09:15:40Z</time>
      </trkpt>
      <trkpt lat="42.43415" lon="2.19886">
        <ele>2260.68</ele>
        <time>2017-05-21T09:16:06Z</time>
      </trkpt>
      <trkpt lat="42.43417" lon="2.19883">
        <ele>2260.68</ele>
        <time>2017-05-21T09:16:33Z</time>
      </trkpt>
      <trkpt lat="42.43417" lon="2.19885">
        <ele>2260.68</ele>
        <time>2017-05-21T09:17:01Z</time>
      </trkpt>
      <trkpt lat="42.43415" lon="2.19886">
        <ele>2260.68</ele>
        <time>2017-05-21T09:17:29Z</time>
      </trkpt>
      <trkpt lat="42.43416" lon="2.19883">
        <ele>2261.16</ele>
        <time>2017-05-21T09:17:56Z</time>
      </trkpt>
      <trkpt lat="42.43416" lon="2.19883">
        <ele>2261.16</ele>
        <time>2017-05-21T09:18:23Z</time>
      </trkpt>
      <trkpt lat="42.43416" lon="2.19882">
        <ele>2260.68</ele>
        <time>2017-05-21T09:18:54Z</time>
      </trkpt>
      <trkpt lat="42.43417" lon="2.19886">
        <ele>2261.16</ele>
        <time>2017-05-21T09:19:25Z</time>
      </trkpt>
      <trkpt lat="42.43415" lon="2.19883">
        <ele>2261.16</ele>
        <time>2017-05-21T09:19:58Z</time>
      </trkpt>
      <trkpt lat="42.43417" lon="2.19883">
        <ele>2261.16</ele>
        <time>2017-05-21T09:20:24Z</time>
      </trkpt>
      <trkpt lat="42.43416" lon="2.19882">
        <ele>2261.16</ele>
        <time>2017-05-21T09:20:55Z</time>
      </trkpt>
      <trkpt lat="42.43415" lon="2.19883">
        <ele>2261.16</ele>
        <time>2017-05-21T09:21:25Z</time>
      </trkpt>
      <trkpt lat="42.43416" lon="2.19883">
        <ele>2261.16</ele>
        <time>2017-05-21T09:21:54Z</time>
      </trkpt>
      <trkpt lat="42.43414" lon="2.19883">
        <ele>2261.16</ele>
        <time>2017-05-21T09:22:21Z</time>
      </trkpt>
      <trkpt lat="42.43414" lon="2.19883">
        <ele>2261.16</ele>
        <time>2017-05-21T09:22:51Z</time>
      </trkpt>
      <trkpt lat="42.43416" lon="2.19884">
        <ele>2261.16</ele>
        <time>2017-05-21T09:23:21Z</time>
      </trkpt>
      <trkpt lat="42.43415" lon="2.19884">
        <ele>2261.16</ele>
        <time>2017-05-21T09:23:55Z</time>
      </trkpt>
      <trkpt lat="42.43415" lon="2.19883">
        <ele>2261.16</ele>
        <time>2017-05-21T09:24:28Z</time>
      </trkpt>
      <trkpt lat="42.43415" lon="2.19883">
        <ele>2261.16</ele>
        <time>2017-05-21T09:24:57Z</time>
      </trkpt>
      <trkpt lat="42.43416" lon="2.19884">
        <ele>2261.16</ele>
        <time>2017-05-21T09:25:24Z</time>
      </trkpt>
      <trkpt lat="42.43417" lon="2.19884">
        <ele>2261.16</ele>
        <time>2017-05-21T09:25:57Z</time>
      </trkpt>
      <trkpt lat="42.43415" lon="2.19884">
        <ele>2261.16</ele>
        <time>2017-05-21T09:26:25Z</time>
      </trkpt>
      <trkpt lat="42.43416" lon="2.19881">
        <ele>2261.16</ele>
        <time>2017-05-21T09:26:55Z</time>
      </trkpt>
      <trkpt lat="42.43417" lon="2.19883">
        <ele>2261.16</ele>
        <time>2017-05-21T09:27:22Z</time>
      </trkpt>
      <trkpt lat="42.43415" lon="2.19884">
        <ele>2261.16</ele>
        <time>2017-05-21T09:27:50Z</time>
      </trkpt>
      <trkpt lat="42.43414" lon="2.19883">
        <ele>2261.16</ele>
        <time>2017-05-21T09:28:21Z</time>
      </trkpt>
      <trkpt lat="42.43414" lon="2.19884">
        <ele>2261.16</ele>
        <time>2017-05-21T09:28:50Z</time>
      </trkpt>
      <trkpt lat="42.43414" lon="2.19883">
        <ele>2260.68</ele>
        <time>2017-05-21T09:29:27Z</time>
      </trkpt>
      <trkpt lat="42.43414" lon="2.19882">
        <ele>2260.68</ele>
        <time>2017-05-21T09:29:35Z</time>
      </trkpt>
      <trkpt lat="42.43416" lon="2.19883">
        <ele>2262.12</ele>
        <time>2017-05-21T09:29:45Z</time>
      </trkpt>
      <trkpt lat="42.43415" lon="2.19885">
        <ele>2263.08</ele>
        <time>2017-05-21T09:29:54Z</time>
      </trkpt>
      <trkpt lat="42.43415" lon="2.19883">
        <ele>2261.64</ele>
        <time>2017-05-21T09:30:13Z</time>
      </trkpt>
      <trkpt lat="42.43415" lon="2.19886">
        <ele>2261.64</ele>
        <time>2017-05-21T09:30:34Z</time>
      </trkpt>
      <trkpt lat="42.43417" lon="2.19897">
        <ele>2261.16</ele>
        <time>2017-05-21T09:30:46Z</time>
      </trkpt>
      <trkpt lat="42.43418" lon="2.19904">
        <ele>2261.16</ele>
        <time>2017-05-21T09:31:00Z</time>
      </trkpt>
      <trkpt lat="42.43421" lon="2.19908">
        <ele>2262.6</ele>
        <time>2017-05-21T09:31:10Z</time>
      </trkpt>
      <trkpt lat="42.43424" lon="2.19918">
        <ele>2262.6</ele>
        <time>2017-05-21T09:31:22Z</time>
      </trkpt>
      <trkpt lat="42.43426" lon="2.19919">
        <ele>2262.12</ele>
        <time>2017-05-21T09:31:33Z</time>
      </trkpt>
      <trkpt lat="42.43427" lon="2.19921">
        <ele>2261.16</ele>
        <time>2017-05-21T09:31:46Z</time>
      </trkpt>
      <trkpt lat="42.43428" lon="2.19922">
        <ele>2261.16</ele>
        <time>2017-05-21T09:31:58Z</time>
      </trkpt>
      <trkpt lat="42.43428" lon="2.19923">
        <ele>2260.68</ele>
        <time>2017-05-21T09:32:14Z</time>
      </trkpt>
      <trkpt lat="42.4343" lon="2.19924">
        <ele>2260.68</ele>
        <time>2017-05-21T09:32:37Z</time>
      </trkpt>
      <trkpt lat="42.43431" lon="2.19928">
        <ele>2260.2</ele>
        <time>2017-05-21T09:32:46Z</time>
      </trkpt>
      <trkpt lat="42.4343" lon="2.19933">
        <ele>2260.2</ele>
        <time>2017-05-21T09:32:55Z</time>
      </trkpt>
      <trkpt lat="42.43434" lon="2.19939">
        <ele>2259.72</ele>
        <time>2017-05-21T09:33:05Z</time>
      </trkpt>
      <trkpt lat="42.43444" lon="2.19944">
        <ele>2258.75</ele>
        <time>2017-05-21T09:33:17Z</time>
      </trkpt>
      <trkpt lat="42.43452" lon="2.19947">
        <ele>2258.75</ele>
        <time>2017-05-21T09:33:29Z</time>
      </trkpt>
      <trkpt lat="42.43458" lon="2.19951">
        <ele>2258.75</ele>
        <time>2017-05-21T09:33:41Z</time>
      </trkpt>
      <trkpt lat="42.43467" lon="2.19953">
        <ele>2258.27</ele>
        <time>2017-05-21T09:33:55Z</time>
      </trkpt>
      <trkpt lat="42.43474" lon="2.19958">
        <ele>2258.27</ele>
        <time>2017-05-21T09:34:05Z</time>
      </trkpt>
      <trkpt lat="42.43481" lon="2.19963">
        <ele>2258.27</ele>
        <time>2017-05-21T09:34:16Z</time>
      </trkpt>
      <trkpt lat="42.43482" lon="2.19966">
        <ele>2257.79</ele>
        <time>2017-05-21T09:34:19Z</time>
      </trkpt>
      <trkpt lat="42.43492" lon="2.19972">
        <ele>2256.35</ele>
        <time>2017-05-21T09:34:31Z</time>
      </trkpt>
      <trkpt lat="42.43502" lon="2.19972">
        <ele>2255.39</ele>
        <time>2017-05-21T09:34:42Z</time>
      </trkpt>
      <trkpt lat="42.43508" lon="2.19974">
        <ele>2255.39</ele>
        <time>2017-05-21T09:34:48Z</time>
      </trkpt>
      <trkpt lat="42.4351" lon="2.19975">
        <ele>2256.35</ele>
        <time>2017-05-21T09:34:50Z</time>
      </trkpt>
      <trkpt lat="42.43511" lon="2.19977">
        <ele>2255.87</ele>
        <time>2017-05-21T09:35:02Z</time>
      </trkpt>
      <trkpt lat="42.43514" lon="2.19977">
        <ele>2254.43</ele>
        <time>2017-05-21T09:35:06Z</time>
      </trkpt>
      <trkpt lat="42.43521" lon="2.19979">
        <ele>2253.95</ele>
        <time>2017-05-21T09:35:11Z</time>
      </trkpt>
      <trkpt lat="42.43526" lon="2.19981">
        <ele>2253.95</ele>
        <time>2017-05-21T09:35:15Z</time>
      </trkpt>
      <trkpt lat="42.4354" lon="2.19983">
        <ele>2253.95</ele>
        <time>2017-05-21T09:35:27Z</time>
      </trkpt>
      <trkpt lat="42.43545" lon="2.19985">
        <ele>2253.95</ele>
        <time>2017-05-21T09:35:33Z</time>
      </trkpt>
      <trkpt lat="42.43553" lon="2.19976">
        <ele>2253.95</ele>
        <time>2017-05-21T09:35:44Z</time>
      </trkpt>
      <trkpt lat="42.43554" lon="2.19972">
        <ele>2254.91</ele>
        <time>2017-05-21T09:35:50Z</time>
      </trkpt>
      <trkpt lat="42.43552" lon="2.1997">
        <ele>2252.51</ele>
        <time>2017-05-21T09:36:04Z</time>
      </trkpt>
      <trkpt lat="42.43552" lon="2.19969">
        <ele>2255.39</ele>
        <time>2017-05-21T09:36:05Z</time>
      </trkpt>
      <trkpt lat="42.43552" lon="2.1997">
        <ele>2253.47</ele>
        <time>2017-05-21T09:36:06Z</time>
      </trkpt>
      <trkpt lat="42.43552" lon="2.19973">
        <ele>2253.47</ele>
        <time>2017-05-21T09:36:09Z</time>
      </trkpt>
      <trkpt lat="42.43556" lon="2.19985">
        <ele>2254.91</ele>
        <time>2017-05-21T09:36:20Z</time>
      </trkpt>
      <trkpt lat="42.43558" lon="2.19988">
        <ele>2255.39</ele>
        <time>2017-05-21T09:36:34Z</time>
      </trkpt>
      <trkpt lat="42.43558" lon="2.1999">
        <ele>2255.87</ele>
        <time>2017-05-21T09:36:50Z</time>
      </trkpt>
      <trkpt lat="42.43556" lon="2.19997">
        <ele>2256.35</ele>
        <time>2017-05-21T09:37:09Z</time>
      </trkpt>
      <trkpt lat="42.43561" lon="2.20006">
        <ele>2256.35</ele>
        <time>2017-05-21T09:37:20Z</time>
      </trkpt>
      <trkpt lat="42.43566" lon="2.20009">
        <ele>2254.43</ele>
        <time>2017-05-21T09:37:30Z</time>
      </trkpt>
      <trkpt lat="42.4357" lon="2.20013">
        <ele>2252.99</ele>
        <time>2017-05-21T09:37:40Z</time>
      </trkpt>
      <trkpt lat="42.43573" lon="2.20016">
        <ele>2252.51</ele>
        <time>2017-05-21T09:37:45Z</time>
      </trkpt>
      <trkpt lat="42.43578" lon="2.20018">
        <ele>2251.54</ele>
        <time>2017-05-21T09:37:55Z</time>
      </trkpt>
      <trkpt lat="42.43579" lon="2.20019">
        <ele>2251.54</ele>
        <time>2017-05-21T09:38:07Z</time>
      </trkpt>
      <trkpt lat="42.43582" lon="2.20021">
        <ele>2250.1</ele>
        <time>2017-05-21T09:38:15Z</time>
      </trkpt>
      <trkpt lat="42.43582" lon="2.20021">
        <ele>2250.1</ele>
        <time>2017-05-21T09:38:17Z</time>
      </trkpt>
      <trkpt lat="42.43588" lon="2.20021">
        <ele>2248.66</ele>
        <time>2017-05-21T09:38:26Z</time>
      </trkpt>
      <trkpt lat="42.43595" lon="2.20019">
        <ele>2248.18</ele>
        <time>2017-05-21T09:38:38Z</time>
      </trkpt>
      <trkpt lat="42.43601" lon="2.20022">
        <ele>2248.18</ele>
        <time>2017-05-21T09:38:47Z</time>
      </trkpt>
      <trkpt lat="42.43606" lon="2.20026">
        <ele>2248.18</ele>
        <time>2017-05-21T09:38:52Z</time>
      </trkpt>
      <trkpt lat="42.43615" lon="2.20022">
        <ele>2247.22</ele>
        <time>2017-05-21T09:39:02Z</time>
      </trkpt>
      <trkpt lat="42.43628" lon="2.2002">
        <ele>2247.22</ele>
        <time>2017-05-21T09:39:15Z</time>
      </trkpt>
      <trkpt lat="42.43634" lon="2.20017">
        <ele>2246.74</ele>
        <time>2017-05-21T09:39:25Z</time>
      </trkpt>
      <trkpt lat="42.43641" lon="2.20015">
        <ele>2245.3</ele>
        <time>2017-05-21T09:39:35Z</time>
      </trkpt>
      <trkpt lat="42.43655" lon="2.2001">
        <ele>2245.3</ele>
        <time>2017-05-21T09:39:47Z</time>
      </trkpt>
      <trkpt lat="42.43662" lon="2.2001">
        <ele>2245.3</ele>
        <time>2017-05-21T09:39:59Z</time>
      </trkpt>
      <trkpt lat="42.43667" lon="2.20009">
        <ele>2245.3</ele>
        <time>2017-05-21T09:40:10Z</time>
      </trkpt>
      <trkpt lat="42.43672" lon="2.20005">
        <ele>2245.3</ele>
        <time>2017-05-21T09:40:19Z</time>
      </trkpt>
      <trkpt lat="42.43683" lon="2.2">
        <ele>2245.3</ele>
        <time>2017-05-21T09:40:29Z</time>
      </trkpt>
      <trkpt lat="42.43691" lon="2.19994">
        <ele>2245.3</ele>
        <time>2017-05-21T09:40:40Z</time>
      </trkpt>
      <trkpt lat="42.43702" lon="2.19981">
        <ele>2246.26</ele>
        <time>2017-05-21T09:40:52Z</time>
      </trkpt>
      <trkpt lat="42.43706" lon="2.19972">
        <ele>2246.26</ele>
        <time>2017-05-21T09:41:01Z</time>
      </trkpt>
      <trkpt lat="42.4371" lon="2.19958">
        <ele>2243.37</ele>
        <time>2017-05-21T09:41:12Z</time>
      </trkpt>
      <trkpt lat="42.43715" lon="2.19954">
        <ele>2243.37</ele>
        <time>2017-05-21T09:41:17Z</time>
      </trkpt>
      <trkpt lat="42.43722" lon="2.19952">
        <ele>2243.37</ele>
        <time>2017-05-21T09:41:23Z</time>
      </trkpt>
      <trkpt lat="42.4373" lon="2.19949">
        <ele>2243.37</ele>
        <time>2017-05-21T09:41:32Z</time>
      </trkpt>
      <trkpt lat="42.43738" lon="2.19947">
        <ele>2243.37</ele>
        <time>2017-05-21T09:41:43Z</time>
      </trkpt>
      <trkpt lat="42.43741" lon="2.19945">
        <ele>2242.89</ele>
        <time>2017-05-21T09:41:49Z</time>
      </trkpt>
      <trkpt lat="42.43754" lon="2.19939">
        <ele>2242.89</ele>
        <time>2017-05-21T09:42:01Z</time>
      </trkpt>
      <trkpt lat="42.43764" lon="2.19938">
        <ele>2244.33</ele>
        <time>2017-05-21T09:42:10Z</time>
      </trkpt>
      <trkpt lat="42.43772" lon="2.19935">
        <ele>2245.78</ele>
        <time>2017-05-21T09:42:20Z</time>
      </trkpt>
      <trkpt lat="42.43782" lon="2.19936">
        <ele>2245.3</ele>
        <time>2017-05-21T09:42:31Z</time>
      </trkpt>
      <trkpt lat="42.43791" lon="2.19946">
        <ele>2245.3</ele>
        <time>2017-05-21T09:42:42Z</time>
      </trkpt>
      <trkpt lat="42.43796" lon="2.19948">
        <ele>2243.85</ele>
        <time>2017-05-21T09:42:46Z</time>
      </trkpt>
      <trkpt lat="42.43807" lon="2.19953">
        <ele>2242.41</ele>
        <time>2017-05-21T09:42:56Z</time>
      </trkpt>
      <trkpt lat="42.4381" lon="2.19954">
        <ele>2241.93</ele>
        <time>2017-05-21T09:42:59Z</time>
      </trkpt>
      <trkpt lat="42.4382" lon="2.19958">
        <ele>2240.49</ele>
        <time>2017-05-21T09:43:10Z</time>
      </trkpt>
      <trkpt lat="42.4383" lon="2.19963">
        <ele>2239.53</ele>
        <time>2017-05-21T09:43:19Z</time>
      </trkpt>
      <trkpt lat="42.43841" lon="2.19969">
        <ele>2237.13</ele>
        <time>2017-05-21T09:43:32Z</time>
      </trkpt>
      <trkpt lat="42.43846" lon="2.19972">
        <ele>2235.68</ele>
        <time>2017-05-21T09:43:38Z</time>
      </trkpt>
      <trkpt lat="42.43855" lon="2.19975">
        <ele>2234.72</ele>
        <time>2017-05-21T09:43:46Z</time>
      </trkpt>
      <trkpt lat="42.43863" lon="2.19979">
        <ele>2234.72</ele>
        <time>2017-05-21T09:43:56Z</time>
      </trkpt>
      <trkpt lat="42.43859" lon="2.19986">
        <ele>2234.72</ele>
        <time>2017-05-21T09:44:02Z</time>
      </trkpt>
      <trkpt lat="42.43863" lon="2.19994">
        <ele>2234.72</ele>
        <time>2017-05-21T09:44:13Z</time>
      </trkpt>
      <trkpt lat="42.43864" lon="2.19997">
        <ele>2235.68</ele>
        <time>2017-05-21T09:44:18Z</time>
      </trkpt>
      <trkpt lat="42.43866" lon="2.20004">
        <ele>2237.61</ele>
        <time>2017-05-21T09:44:30Z</time>
      </trkpt>
      <trkpt lat="42.43873" lon="2.20013">
        <ele>2238.09</ele>
        <time>2017-05-21T09:44:44Z</time>
      </trkpt>
      <trkpt lat="42.4388" lon="2.20013">
        <ele>2238.09</ele>
        <time>2017-05-21T09:44:55Z</time>
      </trkpt>
      <trkpt lat="42.43885" lon="2.20015">
        <ele>2236.64</ele>
        <time>2017-05-21T09:45:02Z</time>
      </trkpt>
      <trkpt lat="42.4389" lon="2.20015">
        <ele>2236.64</ele>
        <time>2017-05-21T09:45:06Z</time>
      </trkpt>
      <trkpt lat="42.43899" lon="2.20015">
        <ele>2236.16</ele>
        <time>2017-05-21T09:45:18Z</time>
      </trkpt>
      <trkpt lat="42.43905" lon="2.20016">
        <ele>2235.68</ele>
        <time>2017-05-21T09:45:27Z</time>
      </trkpt>
      <trkpt lat="42.43912" lon="2.20017">
        <ele>2235.2</ele>
        <time>2017-05-21T09:45:37Z</time>
      </trkpt>
      <trkpt lat="42.43915" lon="2.20019">
        <ele>2236.64</ele>
        <time>2017-05-21T09:45:42Z</time>
      </trkpt>
      <trkpt lat="42.43918" lon="2.20018">
        <ele>2237.61</ele>
        <time>2017-05-21T09:45:52Z</time>
      </trkpt>
      <trkpt lat="42.43922" lon="2.20013">
        <ele>2237.61</ele>
        <time>2017-05-21T09:46:00Z</time>
      </trkpt>
      <trkpt lat="42.43925" lon="2.2001">
        <ele>2236.16</ele>
        <time>2017-05-21T09:46:03Z</time>
      </trkpt>
      <trkpt lat="42.43933" lon="2.19999">
        <ele>2235.68</ele>
        <time>2017-05-21T09:46:14Z</time>
      </trkpt>
      <trkpt lat="42.43935" lon="2.19991">
        <ele>2234.72</ele>
        <time>2017-05-21T09:46:24Z</time>
      </trkpt>
      <trkpt lat="42.43937" lon="2.19985">
        <ele>2233.76</ele>
        <time>2017-05-21T09:46:33Z</time>
      </trkpt>
      <trkpt lat="42.43939" lon="2.19983">
        <ele>2233.76</ele>
        <time>2017-05-21T09:46:42Z</time>
      </trkpt>
      <trkpt lat="42.43944" lon="2.19975">
        <ele>2233.28</ele>
        <time>2017-05-21T09:46:52Z</time>
      </trkpt>
      <trkpt lat="42.43953" lon="2.19978">
        <ele>2233.28</ele>
        <time>2017-05-21T09:47:02Z</time>
      </trkpt>
      <trkpt lat="42.43963" lon="2.19979">
        <ele>2232.8</ele>
        <time>2017-05-21T09:47:13Z</time>
      </trkpt>
      <trkpt lat="42.43972" lon="2.19983">
        <ele>2230.88</ele>
        <time>2017-05-21T09:47:24Z</time>
      </trkpt>
      <trkpt lat="42.43982" lon="2.19986">
        <ele>2230.4</ele>
        <time>2017-05-21T09:47:36Z</time>
      </trkpt>
      <trkpt lat="42.43989" lon="2.19981">
        <ele>2230.4</ele>
        <time>2017-05-21T09:47:45Z</time>
      </trkpt>
      <trkpt lat="42.43995" lon="2.19978">
        <ele>2229.43</ele>
        <time>2017-05-21T09:47:53Z</time>
      </trkpt>
      <trkpt lat="42.44001" lon="2.19971">
        <ele>2227.51</ele>
        <time>2017-05-21T09:48:04Z</time>
      </trkpt>
      <trkpt lat="42.44003" lon="2.19967">
        <ele>2226.55</ele>
        <time>2017-05-21T09:48:14Z</time>
      </trkpt>
      <trkpt lat="42.44006" lon="2.19964">
        <ele>2225.59</ele>
        <time>2017-05-21T09:48:26Z</time>
      </trkpt>
      <trkpt lat="42.44014" lon="2.19967">
        <ele>2223.67</ele>
        <time>2017-05-21T09:48:38Z</time>
      </trkpt>
      <trkpt lat="42.44022" lon="2.19965">
        <ele>2221.26</ele>
        <time>2017-05-21T09:48:51Z</time>
      </trkpt>
      <trkpt lat="42.44029" lon="2.19966">
        <ele>2220.3</ele>
        <time>2017-05-21T09:49:00Z</time>
      </trkpt>
      <trkpt lat="42.4403" lon="2.19966">
        <ele>2220.3</ele>
        <time>2017-05-21T09:49:01Z</time>
      </trkpt>
      <trkpt lat="42.44041" lon="2.19963">
        <ele>2219.82</ele>
        <time>2017-05-21T09:49:12Z</time>
      </trkpt>
      <trkpt lat="42.44046" lon="2.19963">
        <ele>2219.34</ele>
        <time>2017-05-21T09:49:21Z</time>
      </trkpt>
      <trkpt lat="42.44051" lon="2.19963">
        <ele>2218.38</ele>
        <time>2017-05-21T09:49:31Z</time>
      </trkpt>
      <trkpt lat="42.44056" lon="2.19962">
        <ele>2217.9</ele>
        <time>2017-05-21T09:49:41Z</time>
      </trkpt>
      <trkpt lat="42.44066" lon="2.19962">
        <ele>2215.5</ele>
        <time>2017-05-21T09:49:54Z</time>
      </trkpt>
      <trkpt lat="42.44072" lon="2.19964">
        <ele>2215.98</ele>
        <time>2017-05-21T09:50:05Z</time>
      </trkpt>
      <trkpt lat="42.44078" lon="2.19963">
        <ele>2214.05</ele>
        <time>2017-05-21T09:50:15Z</time>
      </trkpt>
      <trkpt lat="42.44084" lon="2.19963">
        <ele>2211.65</ele>
        <time>2017-05-21T09:50:22Z</time>
      </trkpt>
      <trkpt lat="42.44092" lon="2.19957">
        <ele>2211.17</ele>
        <time>2017-05-21T09:50:33Z</time>
      </trkpt>
      <trkpt lat="42.44105" lon="2.19953">
        <ele>2210.21</ele>
        <time>2017-05-21T09:50:45Z</time>
      </trkpt>
      <trkpt lat="42.44114" lon="2.19949">
        <ele>2209.25</ele>
        <time>2017-05-21T09:50:56Z</time>
      </trkpt>
      <trkpt lat="42.44121" lon="2.19948">
        <ele>2209.25</ele>
        <time>2017-05-21T09:51:05Z</time>
      </trkpt>
      <trkpt lat="42.44124" lon="2.19943">
        <ele>2209.25</ele>
        <time>2017-05-21T09:51:12Z</time>
      </trkpt>
      <trkpt lat="42.44128" lon="2.19939">
        <ele>2209.25</ele>
        <time>2017-05-21T09:51:20Z</time>
      </trkpt>
      <trkpt lat="42.44131" lon="2.19927">
        <ele>2208.29</ele>
        <time>2017-05-21T09:51:31Z</time>
      </trkpt>
      <trkpt lat="42.44137" lon="2.19922">
        <ele>2207.32</ele>
        <time>2017-05-21T09:51:41Z</time>
      </trkpt>
      <trkpt lat="42.44141" lon="2.1992">
        <ele>2208.77</ele>
        <time>2017-05-21T09:51:48Z</time>
      </trkpt>
      <trkpt lat="42.44147" lon="2.19917">
        <ele>2209.25</ele>
        <time>2017-05-21T09:51:59Z</time>
      </trkpt>
      <trkpt lat="42.44149" lon="2.19917">
        <ele>2208.77</ele>
        <time>2017-05-21T09:52:14Z</time>
      </trkpt>
      <trkpt lat="42.44149" lon="2.19917">
        <ele>2209.25</ele>
        <time>2017-05-21T09:52:31Z</time>
      </trkpt>
      <trkpt lat="42.44148" lon="2.19915">
        <ele>2209.25</ele>
        <time>2017-05-21T09:52:59Z</time>
      </trkpt>
      <trkpt lat="42.44148" lon="2.19916">
        <ele>2209.25</ele>
        <time>2017-05-21T09:53:22Z</time>
      </trkpt>
      <trkpt lat="42.44147" lon="2.1992">
        <ele>2209.25</ele>
        <time>2017-05-21T09:53:42Z</time>
      </trkpt>
      <trkpt lat="42.44151" lon="2.19915">
        <ele>2209.25</ele>
        <time>2017-05-21T09:53:56Z</time>
      </trkpt>
      <trkpt lat="42.44162" lon="2.19904">
        <ele>2209.25</ele>
        <time>2017-05-21T09:54:09Z</time>
      </trkpt>
      <trkpt lat="42.44164" lon="2.19902">
        <ele>2209.25</ele>
        <time>2017-05-21T09:54:11Z</time>
      </trkpt>
      <trkpt lat="42.44172" lon="2.19896">
        <ele>2209.25</ele>
        <time>2017-05-21T09:54:20Z</time>
      </trkpt>
      <trkpt lat="42.44178" lon="2.19891">
        <ele>2207.32</ele>
        <time>2017-05-21T09:54:30Z</time>
      </trkpt>
      <trkpt lat="42.44182" lon="2.1989">
        <ele>2206.36</ele>
        <time>2017-05-21T09:54:40Z</time>
      </trkpt>
      <trkpt lat="42.44189" lon="2.19891">
        <ele>2204.92</ele>
        <time>2017-05-21T09:54:51Z</time>
      </trkpt>
      <trkpt lat="42.44193" lon="2.19894">
        <ele>2203.96</ele>
        <time>2017-05-21T09:55:02Z</time>
      </trkpt>
      <trkpt lat="42.44201" lon="2.19895">
        <ele>2202.52</ele>
        <time>2017-05-21T09:55:12Z</time>
      </trkpt>
      <trkpt lat="42.4421" lon="2.19897">
        <ele>2201.08</ele>
        <time>2017-05-21T09:55:22Z</time>
      </trkpt>
      <trkpt lat="42.44216" lon="2.19905">
        <ele>2201.08</ele>
        <time>2017-05-21T09:55:33Z</time>
      </trkpt>
      <trkpt lat="42.44219" lon="2.19902">
        <ele>2198.67</ele>
        <time>2017-05-21T09:55:42Z</time>
      </trkpt>
      <trkpt lat="42.44221" lon="2.19897">
        <ele>2197.71</ele>
        <time>2017-05-21T09:55:53Z</time>
      </trkpt>
      <trkpt lat="42.44224" lon="2.199">
        <ele>2196.75</ele>
        <time>2017-05-21T09:56:05Z</time>
      </trkpt>
      <trkpt lat="42.44228" lon="2.19898">
        <ele>2194.83</ele>
        <time>2017-05-21T09:56:17Z</time>
      </trkpt>
      <trkpt lat="42.44231" lon="2.19898">
        <ele>2193.39</ele>
        <time>2017-05-21T09:56:28Z</time>
      </trkpt>
      <trkpt lat="42.44234" lon="2.19899">
        <ele>2191.94</ele>
        <time>2017-05-21T09:56:40Z</time>
      </trkpt>
      <trkpt lat="42.4424" lon="2.19901">
        <ele>2190.02</ele>
        <time>2017-05-21T09:56:52Z</time>
      </trkpt>
      <trkpt lat="42.44245" lon="2.19902">
        <ele>2188.1</ele>
        <time>2017-05-21T09:57:04Z</time>
      </trkpt>
      <trkpt lat="42.44252" lon="2.19901">
        <ele>2186.18</ele>
        <time>2017-05-21T09:57:13Z</time>
      </trkpt>
      <trkpt lat="42.44257" lon="2.19902">
        <ele>2185.21</ele>
        <time>2017-05-21T09:57:18Z</time>
      </trkpt>
      <trkpt lat="42.44261" lon="2.19902">
        <ele>2183.77</ele>
        <time>2017-05-21T09:57:22Z</time>
      </trkpt>
      <trkpt lat="42.44264" lon="2.199">
        <ele>2183.77</ele>
        <time>2017-05-21T09:57:26Z</time>
      </trkpt>
      <trkpt lat="42.44271" lon="2.19899">
        <ele>2182.81</ele>
        <time>2017-05-21T09:57:34Z</time>
      </trkpt>
      <trkpt lat="42.44274" lon="2.19898">
        <ele>2182.81</ele>
        <time>2017-05-21T09:57:36Z</time>
      </trkpt>
      <trkpt lat="42.44282" lon="2.19896">
        <ele>2181.85</ele>
        <time>2017-05-21T09:57:47Z</time>
      </trkpt>
      <trkpt lat="42.44285" lon="2.19895">
        <ele>2181.85</ele>
        <time>2017-05-21T09:58:00Z</time>
      </trkpt>
      <trkpt lat="42.44288" lon="2.19894">
        <ele>2181.85</ele>
        <time>2017-05-21T09:58:14Z</time>
      </trkpt>
      <trkpt lat="42.44292" lon="2.19892">
        <ele>2181.85</ele>
        <time>2017-05-21T09:58:24Z</time>
      </trkpt>
      <trkpt lat="42.44304" lon="2.19889">
        <ele>2181.85</ele>
        <time>2017-05-21T09:58:32Z</time>
      </trkpt>
      <trkpt lat="42.44306" lon="2.19886">
        <ele>2181.85</ele>
        <time>2017-05-21T09:58:35Z</time>
      </trkpt>
      <trkpt lat="42.44319" lon="2.19882">
        <ele>2181.37</ele>
        <time>2017-05-21T09:58:46Z</time>
      </trkpt>
      <trkpt lat="42.44322" lon="2.19882">
        <ele>2180.89</ele>
        <time>2017-05-21T09:58:48Z</time>
      </trkpt>
      <trkpt lat="42.44331" lon="2.19881">
        <ele>2180.89</ele>
        <time>2017-05-21T09:58:59Z</time>
      </trkpt>
      <trkpt lat="42.44332" lon="2.19881">
        <ele>2180.89</ele>
        <time>2017-05-21T09:59:10Z</time>
      </trkpt>
      <trkpt lat="42.44342" lon="2.19884">
        <ele>2180.41</ele>
        <time>2017-05-21T09:59:21Z</time>
      </trkpt>
      <trkpt lat="42.44352" lon="2.19887">
        <ele>2180.41</ele>
        <time>2017-05-21T09:59:32Z</time>
      </trkpt>
      <trkpt lat="42.44364" lon="2.19893">
        <ele>2180.41</ele>
        <time>2017-05-21T09:59:43Z</time>
      </trkpt>
      <trkpt lat="42.4437" lon="2.19896">
        <ele>2179.93</ele>
        <time>2017-05-21T09:59:54Z</time>
      </trkpt>
      <trkpt lat="42.44374" lon="2.19896">
        <ele>2179.93</ele>
        <time>2017-05-21T09:59:58Z</time>
      </trkpt>
      <trkpt lat="42.44382" lon="2.199">
        <ele>2179.93</ele>
        <time>2017-05-21T10:00:08Z</time>
      </trkpt>
      <trkpt lat="42.4439" lon="2.19909">
        <ele>2179.45</ele>
        <time>2017-05-21T10:00:18Z</time>
      </trkpt>
      <trkpt lat="42.44399" lon="2.19914">
        <ele>2178.48</ele>
        <time>2017-05-21T10:00:28Z</time>
      </trkpt>
      <trkpt lat="42.44407" lon="2.19919">
        <ele>2176.56</ele>
        <time>2017-05-21T10:00:38Z</time>
      </trkpt>
      <trkpt lat="42.44412" lon="2.19923">
        <ele>2175.12</ele>
        <time>2017-05-21T10:00:49Z</time>
      </trkpt>
      <trkpt lat="42.4442" lon="2.19923">
        <ele>2173.2</ele>
        <time>2017-05-21T10:00:59Z</time>
      </trkpt>
      <trkpt lat="42.44429" lon="2.19927">
        <ele>2171.76</ele>
        <time>2017-05-21T10:01:10Z</time>
      </trkpt>
      <trkpt lat="42.44431" lon="2.19929">
        <ele>2171.27</ele>
        <time>2017-05-21T10:01:20Z</time>
      </trkpt>
      <trkpt lat="42.44438" lon="2.19927">
        <ele>2169.35</ele>
        <time>2017-05-21T10:01:31Z</time>
      </trkpt>
      <trkpt lat="42.4444" lon="2.19925">
        <ele>2168.39</ele>
        <time>2017-05-21T10:01:44Z</time>
      </trkpt>
      <trkpt lat="42.44446" lon="2.19928">
        <ele>2166.95</ele>
        <time>2017-05-21T10:01:54Z</time>
      </trkpt>
      <trkpt lat="42.44451" lon="2.19934">
        <ele>2165.99</ele>
        <time>2017-05-21T10:02:03Z</time>
      </trkpt>
      <trkpt lat="42.44456" lon="2.19932">
        <ele>2164.06</ele>
        <time>2017-05-21T10:02:13Z</time>
      </trkpt>
      <trkpt lat="42.44459" lon="2.19935">
        <ele>2163.58</ele>
        <time>2017-05-21T10:02:21Z</time>
      </trkpt>
      <trkpt lat="42.44467" lon="2.1994">
        <ele>2160.7</ele>
        <time>2017-05-21T10:02:32Z</time>
      </trkpt>
      <trkpt lat="42.44472" lon="2.19945">
        <ele>2159.74</ele>
        <time>2017-05-21T10:02:40Z</time>
      </trkpt>
      <trkpt lat="42.44476" lon="2.19953">
        <ele>2159.74</ele>
        <time>2017-05-21T10:02:52Z</time>
      </trkpt>
      <trkpt lat="42.44477" lon="2.19958">
        <ele>2159.74</ele>
        <time>2017-05-21T10:03:13Z</time>
      </trkpt>
      <trkpt lat="42.4448" lon="2.19959">
        <ele>2159.74</ele>
        <time>2017-05-21T10:03:20Z</time>
      </trkpt>
      <trkpt lat="42.4449" lon="2.19961">
        <ele>2159.74</ele>
        <time>2017-05-21T10:03:31Z</time>
      </trkpt>
      <trkpt lat="42.44505" lon="2.19957">
        <ele>2158.3</ele>
        <time>2017-05-21T10:03:44Z</time>
      </trkpt>
      <trkpt lat="42.44505" lon="2.19957">
        <ele>2158.3</ele>
        <time>2017-05-21T10:03:54Z</time>
      </trkpt>
      <trkpt lat="42.44506" lon="2.19957">
        <ele>2158.3</ele>
        <time>2017-05-21T10:03:55Z</time>
      </trkpt>
      <trkpt lat="42.44518" lon="2.19957">
        <ele>2157.82</ele>
        <time>2017-05-21T10:04:07Z</time>
      </trkpt>
      <trkpt lat="42.4452" lon="2.19955">
        <ele>2157.82</ele>
        <time>2017-05-21T10:04:11Z</time>
      </trkpt>
      <trkpt lat="42.44527" lon="2.19953">
        <ele>2157.82</ele>
        <time>2017-05-21T10:04:17Z</time>
      </trkpt>
      <trkpt lat="42.44529" lon="2.1995">
        <ele>2157.34</ele>
        <time>2017-05-21T10:04:20Z</time>
      </trkpt>
      <trkpt lat="42.4454" lon="2.19945">
        <ele>2156.37</ele>
        <time>2017-05-21T10:04:30Z</time>
      </trkpt>
      <trkpt lat="42.44556" lon="2.19943">
        <ele>2155.89</ele>
        <time>2017-05-21T10:04:42Z</time>
      </trkpt>
      <trkpt lat="42.44563" lon="2.19943">
        <ele>2155.41</ele>
        <time>2017-05-21T10:04:52Z</time>
      </trkpt>
      <trkpt lat="42.44564" lon="2.1995">
        <ele>2155.41</ele>
        <time>2017-05-21T10:05:01Z</time>
      </trkpt>
      <trkpt lat="42.44567" lon="2.19953">
        <ele>2155.41</ele>
        <time>2017-05-21T10:05:10Z</time>
      </trkpt>
      <trkpt lat="42.4457" lon="2.1995">
        <ele>2155.41</ele>
        <time>2017-05-21T10:05:16Z</time>
      </trkpt>
      <trkpt lat="42.44579" lon="2.19941">
        <ele>2154.93</ele>
        <time>2017-05-21T10:05:28Z</time>
      </trkpt>
      <trkpt lat="42.44578" lon="2.19945">
        <ele>2154.93</ele>
        <time>2017-05-21T10:05:40Z</time>
      </trkpt>
      <trkpt lat="42.44579" lon="2.19944">
        <ele>2154.93</ele>
        <time>2017-05-21T10:05:52Z</time>
      </trkpt>
      <trkpt lat="42.44579" lon="2.19942">
        <ele>2154.45</ele>
        <time>2017-05-21T10:05:54Z</time>
      </trkpt>
      <trkpt lat="42.44586" lon="2.19931">
        <ele>2154.45</ele>
        <time>2017-05-21T10:06:03Z</time>
      </trkpt>
      <trkpt lat="42.44592" lon="2.19931">
        <ele>2153.97</ele>
        <time>2017-05-21T10:06:13Z</time>
      </trkpt>
      <trkpt lat="42.44595" lon="2.19933">
        <ele>2155.41</ele>
        <time>2017-05-21T10:06:18Z</time>
      </trkpt>
      <trkpt lat="42.446" lon="2.19936">
        <ele>2156.37</ele>
        <time>2017-05-21T10:06:28Z</time>
      </trkpt>
      <trkpt lat="42.44602" lon="2.19938">
        <ele>2154.93</ele>
        <time>2017-05-21T10:06:34Z</time>
      </trkpt>
      <trkpt lat="42.44613" lon="2.1994">
        <ele>2153.97</ele>
        <time>2017-05-21T10:06:46Z</time>
      </trkpt>
      <trkpt lat="42.44615" lon="2.1994">
        <ele>2153.97</ele>
        <time>2017-05-21T10:06:51Z</time>
      </trkpt>
      <trkpt lat="42.44621" lon="2.19944">
        <ele>2153.49</ele>
        <time>2017-05-21T10:07:01Z</time>
      </trkpt>
      <trkpt lat="42.44626" lon="2.19943">
        <ele>2152.05</ele>
        <time>2017-05-21T10:07:10Z</time>
      </trkpt>
      <trkpt lat="42.44628" lon="2.19944">
        <ele>2153.49</ele>
        <time>2017-05-21T10:07:21Z</time>
      </trkpt>
      <trkpt lat="42.44634" lon="2.19947">
        <ele>2153.49</ele>
        <time>2017-05-21T10:07:29Z</time>
      </trkpt>
      <trkpt lat="42.44639" lon="2.1995">
        <ele>2152.05</ele>
        <time>2017-05-21T10:07:36Z</time>
      </trkpt>
      <trkpt lat="42.44641" lon="2.19952">
        <ele>2152.05</ele>
        <time>2017-05-21T10:07:39Z</time>
      </trkpt>
      <trkpt lat="42.44648" lon="2.19957">
        <ele>2152.05</ele>
        <time>2017-05-21T10:07:49Z</time>
      </trkpt>
      <trkpt lat="42.44654" lon="2.19961">
        <ele>2153.49</ele>
        <time>2017-05-21T10:08:00Z</time>
      </trkpt>
      <trkpt lat="42.44655" lon="2.19962">
        <ele>2153.49</ele>
        <time>2017-05-21T10:08:01Z</time>
      </trkpt>
      <trkpt lat="42.44658" lon="2.19969">
        <ele>2153.49</ele>
        <time>2017-05-21T10:08:07Z</time>
      </trkpt>
      <trkpt lat="42.44663" lon="2.19975">
        <ele>2153.49</ele>
        <time>2017-05-21T10:08:16Z</time>
      </trkpt>
      <trkpt lat="42.4467" lon="2.19986">
        <ele>2153.49</ele>
        <time>2017-05-21T10:08:27Z</time>
      </trkpt>
      <trkpt lat="42.44683" lon="2.2">
        <ele>2153.97</ele>
        <time>2017-05-21T10:08:40Z</time>
      </trkpt>
      <trkpt lat="42.44692" lon="2.20012">
        <ele>2153.97</ele>
        <time>2017-05-21T10:08:51Z</time>
      </trkpt>
      <trkpt lat="42.447" lon="2.20021">
        <ele>2154.93</ele>
        <time>2017-05-21T10:09:00Z</time>
      </trkpt>
      <trkpt lat="42.44703" lon="2.20025">
        <ele>2154.93</ele>
        <time>2017-05-21T10:09:04Z</time>
      </trkpt>
      <trkpt lat="42.44712" lon="2.20035">
        <ele>2153.01</ele>
        <time>2017-05-21T10:09:14Z</time>
      </trkpt>
      <trkpt lat="42.44716" lon="2.20041">
        <ele>2152.53</ele>
        <time>2017-05-21T10:09:19Z</time>
      </trkpt>
      <trkpt lat="42.44717" lon="2.20042">
        <ele>2152.53</ele>
        <time>2017-05-21T10:09:21Z</time>
      </trkpt>
      <trkpt lat="42.44724" lon="2.20047">
        <ele>2152.53</ele>
        <time>2017-05-21T10:09:29Z</time>
      </trkpt>
      <trkpt lat="42.44728" lon="2.20054">
        <ele>2152.53</ele>
        <time>2017-05-21T10:09:36Z</time>
      </trkpt>
      <trkpt lat="42.44736" lon="2.2006">
        <ele>2152.05</ele>
        <time>2017-05-21T10:09:44Z</time>
      </trkpt>
      <trkpt lat="42.44742" lon="2.20071">
        <ele>2151.57</ele>
        <time>2017-05-21T10:09:53Z</time>
      </trkpt>
      <trkpt lat="42.44744" lon="2.20074">
        <ele>2151.57</ele>
        <time>2017-05-21T10:09:56Z</time>
      </trkpt>
      <trkpt lat="42.44747" lon="2.20076">
        <ele>2151.57</ele>
        <time>2017-05-21T10:09:59Z</time>
      </trkpt>
      <trkpt lat="42.4475" lon="2.20081">
        <ele>2151.57</ele>
        <time>2017-05-21T10:10:03Z</time>
      </trkpt>
      <trkpt lat="42.4476" lon="2.2009">
        <ele>2151.09</ele>
        <time>2017-05-21T10:10:15Z</time>
      </trkpt>
      <trkpt lat="42.44766" lon="2.201">
        <ele>2151.09</ele>
        <time>2017-05-21T10:10:26Z</time>
      </trkpt>
      <trkpt lat="42.44772" lon="2.20104">
        <ele>2151.09</ele>
        <time>2017-05-21T10:10:36Z</time>
      </trkpt>
      <trkpt lat="42.44779" lon="2.20106">
        <ele>2153.01</ele>
        <time>2017-05-21T10:10:46Z</time>
      </trkpt>
      <trkpt lat="42.4479" lon="2.20111">
        <ele>2153.97</ele>
        <time>2017-05-21T10:10:59Z</time>
      </trkpt>
      <trkpt lat="42.44794" lon="2.2011">
        <ele>2155.41</ele>
        <time>2017-05-21T10:11:10Z</time>
      </trkpt>
      <trkpt lat="42.448" lon="2.2011">
        <ele>2156.86</ele>
        <time>2017-05-21T10:11:20Z</time>
      </trkpt>
      <trkpt lat="42.44805" lon="2.20109">
        <ele>2158.3</ele>
        <time>2017-05-21T10:11:31Z</time>
      </trkpt>
      <trkpt lat="42.44813" lon="2.20108">
        <ele>2159.26</ele>
        <time>2017-05-21T10:11:45Z</time>
      </trkpt>
      <trkpt lat="42.44814" lon="2.20108">
        <ele>2159.26</ele>
        <time>2017-05-21T10:11:58Z</time>
      </trkpt>
      <trkpt lat="42.44815" lon="2.2011">
        <ele>2159.26</ele>
        <time>2017-05-21T10:12:12Z</time>
      </trkpt>
      <trkpt lat="42.4482" lon="2.20111">
        <ele>2159.26</ele>
        <time>2017-05-21T10:12:31Z</time>
      </trkpt>
      <trkpt lat="42.4482" lon="2.20115">
        <ele>2159.26</ele>
        <time>2017-05-21T10:12:59Z</time>
      </trkpt>
      <trkpt lat="42.44825" lon="2.20114">
        <ele>2159.26</ele>
        <time>2017-05-21T10:13:11Z</time>
      </trkpt>
      <trkpt lat="42.44831" lon="2.20113">
        <ele>2159.26</ele>
        <time>2017-05-21T10:13:21Z</time>
      </trkpt>
      <trkpt lat="42.44835" lon="2.20111">
        <ele>2160.22</ele>
        <time>2017-05-21T10:13:30Z</time>
      </trkpt>
      <trkpt lat="42.44837" lon="2.20113">
        <ele>2160.22</ele>
        <time>2017-05-21T10:13:41Z</time>
      </trkpt>
      <trkpt lat="42.44841" lon="2.20115">
        <ele>2160.22</ele>
        <time>2017-05-21T10:13:53Z</time>
      </trkpt>
      <trkpt lat="42.44849" lon="2.20113">
        <ele>2158.3</ele>
        <time>2017-05-21T10:14:04Z</time>
      </trkpt>
      <trkpt lat="42.44852" lon="2.20111">
        <ele>2158.3</ele>
        <time>2017-05-21T10:14:13Z</time>
      </trkpt>
      <trkpt lat="42.44861" lon="2.20111">
        <ele>2158.3</ele>
        <time>2017-05-21T10:14:26Z</time>
      </trkpt>
      <trkpt lat="42.44867" lon="2.20118">
        <ele>2157.82</ele>
        <time>2017-05-21T10:14:37Z</time>
      </trkpt>
      <trkpt lat="42.44872" lon="2.20125">
        <ele>2159.26</ele>
        <time>2017-05-21T10:14:46Z</time>
      </trkpt>
      <trkpt lat="42.4488" lon="2.20138">
        <ele>2159.74</ele>
        <time>2017-05-21T10:14:57Z</time>
      </trkpt>
      <trkpt lat="42.44881" lon="2.20139">
        <ele>2159.74</ele>
        <time>2017-05-21T10:14:58Z</time>
      </trkpt>
      <trkpt lat="42.44888" lon="2.20146">
        <ele>2160.22</ele>
        <time>2017-05-21T10:15:08Z</time>
      </trkpt>
      <trkpt lat="42.44895" lon="2.20155">
        <ele>2158.78</ele>
        <time>2017-05-21T10:15:17Z</time>
      </trkpt>
      <trkpt lat="42.44899" lon="2.20164">
        <ele>2158.3</ele>
        <time>2017-05-21T10:15:27Z</time>
      </trkpt>
      <trkpt lat="42.44901" lon="2.20171">
        <ele>2157.34</ele>
        <time>2017-05-21T10:15:36Z</time>
      </trkpt>
      <trkpt lat="42.44901" lon="2.20177">
        <ele>2156.37</ele>
        <time>2017-05-21T10:15:46Z</time>
      </trkpt>
      <trkpt lat="42.44903" lon="2.20181">
        <ele>2154.93</ele>
        <time>2017-05-21T10:15:56Z</time>
      </trkpt>
      <trkpt lat="42.44909" lon="2.20187">
        <ele>2153.49</ele>
        <time>2017-05-21T10:16:07Z</time>
      </trkpt>
      <trkpt lat="42.44912" lon="2.20192">
        <ele>2151.57</ele>
        <time>2017-05-21T10:16:17Z</time>
      </trkpt>
      <trkpt lat="42.44914" lon="2.20196">
        <ele>2151.09</ele>
        <time>2017-05-21T10:16:21Z</time>
      </trkpt>
      <trkpt lat="42.44926" lon="2.20202">
        <ele>2149.65</ele>
        <time>2017-05-21T10:16:32Z</time>
      </trkpt>
      <trkpt lat="42.44931" lon="2.20205">
        <ele>2149.16</ele>
        <time>2017-05-21T10:16:37Z</time>
      </trkpt>
      <trkpt lat="42.44937" lon="2.20212">
        <ele>2149.16</ele>
        <time>2017-05-21T10:16:43Z</time>
      </trkpt>
      <trkpt lat="42.44951" lon="2.20223">
        <ele>2149.16</ele>
        <time>2017-05-21T10:16:56Z</time>
      </trkpt>
      <trkpt lat="42.44956" lon="2.20229">
        <ele>2149.16</ele>
        <time>2017-05-21T10:17:02Z</time>
      </trkpt>
      <trkpt lat="42.44972" lon="2.20232">
        <ele>2149.16</ele>
        <time>2017-05-21T10:17:16Z</time>
      </trkpt>
      <trkpt lat="42.44985" lon="2.20237">
        <ele>2147.72</ele>
        <time>2017-05-21T10:17:29Z</time>
      </trkpt>
      <trkpt lat="42.44994" lon="2.20243">
        <ele>2146.76</ele>
        <time>2017-05-21T10:17:39Z</time>
      </trkpt>
      <trkpt lat="42.45001" lon="2.20251">
        <ele>2145.32</ele>
        <time>2017-05-21T10:17:50Z</time>
      </trkpt>
      <trkpt lat="42.45007" lon="2.20254">
        <ele>2143.88</ele>
        <time>2017-05-21T10:17:59Z</time>
      </trkpt>
      <trkpt lat="42.45013" lon="2.2026">
        <ele>2142.44</ele>
        <time>2017-05-21T10:18:11Z</time>
      </trkpt>
      <trkpt lat="42.4502" lon="2.20266">
        <ele>2140.51</ele>
        <time>2017-05-21T10:18:23Z</time>
      </trkpt>
      <trkpt lat="42.45027" lon="2.2027">
        <ele>2140.03</ele>
        <time>2017-05-21T10:18:35Z</time>
      </trkpt>
      <trkpt lat="42.45031" lon="2.20278">
        <ele>2139.55</ele>
        <time>2017-05-21T10:18:42Z</time>
      </trkpt>
      <trkpt lat="42.4504" lon="2.20286">
        <ele>2138.11</ele>
        <time>2017-05-21T10:18:54Z</time>
      </trkpt>
      <trkpt lat="42.45046" lon="2.20288">
        <ele>2136.67</ele>
        <time>2017-05-21T10:19:04Z</time>
      </trkpt>
      <trkpt lat="42.45051" lon="2.20296">
        <ele>2135.23</ele>
        <time>2017-05-21T10:19:14Z</time>
      </trkpt>
      <trkpt lat="42.45058" lon="2.20301">
        <ele>2132.82</ele>
        <time>2017-05-21T10:19:25Z</time>
      </trkpt>
      <trkpt lat="42.45063" lon="2.20303">
        <ele>2131.86</ele>
        <time>2017-05-21T10:19:36Z</time>
      </trkpt>
      <trkpt lat="42.45063" lon="2.20306">
        <ele>2131.86</ele>
        <time>2017-05-21T10:19:56Z</time>
      </trkpt>
      <trkpt lat="42.45066" lon="2.2031">
        <ele>2130.42</ele>
        <time>2017-05-21T10:20:08Z</time>
      </trkpt>
      <trkpt lat="42.45069" lon="2.20309">
        <ele>2130.42</ele>
        <time>2017-05-21T10:20:31Z</time>
      </trkpt>
      <trkpt lat="42.45071" lon="2.20309">
        <ele>2130.42</ele>
        <time>2017-05-21T10:20:58Z</time>
      </trkpt>
      <trkpt lat="42.45073" lon="2.20308">
        <ele>2130.42</ele>
        <time>2017-05-21T10:21:26Z</time>
      </trkpt>
      <trkpt lat="42.45072" lon="2.2031">
        <ele>2130.42</ele>
        <time>2017-05-21T10:21:50Z</time>
      </trkpt>
      <trkpt lat="42.45075" lon="2.20315">
        <ele>2129.94</ele>
        <time>2017-05-21T10:22:07Z</time>
      </trkpt>
      <trkpt lat="42.45081" lon="2.20323">
        <ele>2128.5</ele>
        <time>2017-05-21T10:22:24Z</time>
      </trkpt>
      <trkpt lat="42.45081" lon="2.20326">
        <ele>2128.5</ele>
        <time>2017-05-21T10:22:43Z</time>
      </trkpt>
      <trkpt lat="42.45088" lon="2.20331">
        <ele>2127.05</ele>
        <time>2017-05-21T10:22:54Z</time>
      </trkpt>
      <trkpt lat="42.45089" lon="2.20331">
        <ele>2127.05</ele>
        <time>2017-05-21T10:23:16Z</time>
      </trkpt>
      <trkpt lat="42.4509" lon="2.20334">
        <ele>2127.05</ele>
        <time>2017-05-21T10:23:20Z</time>
      </trkpt>
      <trkpt lat="42.45101" lon="2.20345">
        <ele>2125.13</ele>
        <time>2017-05-21T10:23:33Z</time>
      </trkpt>
      <trkpt lat="42.45113" lon="2.20354">
        <ele>2123.69</ele>
        <time>2017-05-21T10:23:45Z</time>
      </trkpt>
      <trkpt lat="42.45115" lon="2.20356">
        <ele>2123.21</ele>
        <time>2017-05-21T10:23:57Z</time>
      </trkpt>
      <trkpt lat="42.45116" lon="2.20356">
        <ele>2123.21</ele>
        <time>2017-05-21T10:24:20Z</time>
      </trkpt>
      <trkpt lat="42.45118" lon="2.20351">
        <ele>2123.21</ele>
        <time>2017-05-21T10:24:41Z</time>
      </trkpt>
      <trkpt lat="42.4512" lon="2.20351">
        <ele>2123.21</ele>
        <time>2017-05-21T10:25:10Z</time>
      </trkpt>
      <trkpt lat="42.45123" lon="2.20358">
        <ele>2121.77</ele>
        <time>2017-05-21T10:25:19Z</time>
      </trkpt>
      <trkpt lat="42.45132" lon="2.20371">
        <ele>2120.32</ele>
        <time>2017-05-21T10:25:33Z</time>
      </trkpt>
      <trkpt lat="42.45133" lon="2.20373">
        <ele>2120.32</ele>
        <time>2017-05-21T10:25:35Z</time>
      </trkpt>
      <trkpt lat="42.4514" lon="2.20386">
        <ele>2118.4</ele>
        <time>2017-05-21T10:25:48Z</time>
      </trkpt>
      <trkpt lat="42.4515" lon="2.20395">
        <ele>2116</ele>
        <time>2017-05-21T10:26:00Z</time>
      </trkpt>
      <trkpt lat="42.45151" lon="2.20396">
        <ele>2116</ele>
        <time>2017-05-21T10:26:02Z</time>
      </trkpt>
      <trkpt lat="42.45163" lon="2.20408">
        <ele>2114.08</ele>
        <time>2017-05-21T10:26:16Z</time>
      </trkpt>
      <trkpt lat="42.45175" lon="2.20415">
        <ele>2112.63</ele>
        <time>2017-05-21T10:26:28Z</time>
      </trkpt>
      <trkpt lat="42.45178" lon="2.20417">
        <ele>2111.67</ele>
        <time>2017-05-21T10:26:31Z</time>
      </trkpt>
      <trkpt lat="42.45188" lon="2.20421">
        <ele>2110.71</ele>
        <time>2017-05-21T10:26:41Z</time>
      </trkpt>
      <trkpt lat="42.45202" lon="2.20432">
        <ele>2110.23</ele>
        <time>2017-05-21T10:26:54Z</time>
      </trkpt>
      <trkpt lat="42.45216" lon="2.20436">
        <ele>2108.79</ele>
        <time>2017-05-21T10:27:06Z</time>
      </trkpt>
      <trkpt lat="42.45228" lon="2.20438">
        <ele>2107.35</ele>
        <time>2017-05-21T10:27:17Z</time>
      </trkpt>
      <trkpt lat="42.45229" lon="2.20438">
        <ele>2107.35</ele>
        <time>2017-05-21T10:27:18Z</time>
      </trkpt>
      <trkpt lat="42.45243" lon="2.20447">
        <ele>2106.39</ele>
        <time>2017-05-21T10:27:32Z</time>
      </trkpt>
      <trkpt lat="42.45255" lon="2.2045">
        <ele>2105.42</ele>
        <time>2017-05-21T10:27:43Z</time>
      </trkpt>
      <trkpt lat="42.45265" lon="2.2046">
        <ele>2104.94</ele>
        <time>2017-05-21T10:27:55Z</time>
      </trkpt>
      <trkpt lat="42.45271" lon="2.20466">
        <ele>2104.94</ele>
        <time>2017-05-21T10:28:07Z</time>
      </trkpt>
      <trkpt lat="42.45275" lon="2.20474">
        <ele>2104.94</ele>
        <time>2017-05-21T10:28:16Z</time>
      </trkpt>
      <trkpt lat="42.45277" lon="2.20478">
        <ele>2104.94</ele>
        <time>2017-05-21T10:28:23Z</time>
      </trkpt>
      <trkpt lat="42.45279" lon="2.20489">
        <ele>2104.94</ele>
        <time>2017-05-21T10:28:34Z</time>
      </trkpt>
      <trkpt lat="42.45283" lon="2.20499">
        <ele>2103.98</ele>
        <time>2017-05-21T10:28:43Z</time>
      </trkpt>
      <trkpt lat="42.45283" lon="2.20502">
        <ele>2105.42</ele>
        <time>2017-05-21T10:29:00Z</time>
      </trkpt>
      <trkpt lat="42.45282" lon="2.20508">
        <ele>2105.42</ele>
        <time>2017-05-21T10:29:26Z</time>
      </trkpt>
      <trkpt lat="42.45283" lon="2.20505">
        <ele>2105.42</ele>
        <time>2017-05-21T10:29:48Z</time>
      </trkpt>
      <trkpt lat="42.45283" lon="2.20507">
        <ele>2105.42</ele>
        <time>2017-05-21T10:30:07Z</time>
      </trkpt>
      <trkpt lat="42.45286" lon="2.20515">
        <ele>2106.39</ele>
        <time>2017-05-21T10:30:17Z</time>
      </trkpt>
      <trkpt lat="42.45285" lon="2.2052">
        <ele>2106.87</ele>
        <time>2017-05-21T10:30:29Z</time>
      </trkpt>
      <trkpt lat="42.45282" lon="2.20522">
        <ele>2105.42</ele>
        <time>2017-05-21T10:30:34Z</time>
      </trkpt>
      <trkpt lat="42.45281" lon="2.20529">
        <ele>2103.98</ele>
        <time>2017-05-21T10:30:44Z</time>
      </trkpt>
      <trkpt lat="42.45284" lon="2.20539">
        <ele>2103.98</ele>
        <time>2017-05-21T10:30:55Z</time>
      </trkpt>
      <trkpt lat="42.45287" lon="2.20544">
        <ele>2103.98</ele>
        <time>2017-05-21T10:31:03Z</time>
      </trkpt>
      <trkpt lat="42.45288" lon="2.20551">
        <ele>2103.98</ele>
        <time>2017-05-21T10:31:08Z</time>
      </trkpt>
      <trkpt lat="42.4529" lon="2.20566">
        <ele>2104.94</ele>
        <time>2017-05-21T10:31:20Z</time>
      </trkpt>
      <trkpt lat="42.45293" lon="2.20581">
        <ele>2104.94</ele>
        <time>2017-05-21T10:31:32Z</time>
      </trkpt>
      <trkpt lat="42.45295" lon="2.20587">
        <ele>2103.98</ele>
        <time>2017-05-21T10:31:39Z</time>
      </trkpt>
      <trkpt lat="42.45298" lon="2.206">
        <ele>2102.06</ele>
        <time>2017-05-21T10:31:51Z</time>
      </trkpt>
      <trkpt lat="42.45297" lon="2.20615">
        <ele>2101.1</ele>
        <time>2017-05-21T10:32:00Z</time>
      </trkpt>
      <trkpt lat="42.453" lon="2.20628">
        <ele>2100.14</ele>
        <time>2017-05-21T10:32:11Z</time>
      </trkpt>
      <trkpt lat="42.45306" lon="2.20631">
        <ele>2099.66</ele>
        <time>2017-05-21T10:32:20Z</time>
      </trkpt>
      <trkpt lat="42.45307" lon="2.20632">
        <ele>2099.18</ele>
        <time>2017-05-21T10:32:22Z</time>
      </trkpt>
      <trkpt lat="42.45314" lon="2.20629">
        <ele>2097.25</ele>
        <time>2017-05-21T10:32:35Z</time>
      </trkpt>
      <trkpt lat="42.45323" lon="2.20627">
        <ele>2096.77</ele>
        <time>2017-05-21T10:32:47Z</time>
      </trkpt>
      <trkpt lat="42.45327" lon="2.2063">
        <ele>2095.33</ele>
        <time>2017-05-21T10:32:57Z</time>
      </trkpt>
      <trkpt lat="42.4533" lon="2.20632">
        <ele>2093.89</ele>
        <time>2017-05-21T10:33:06Z</time>
      </trkpt>
      <trkpt lat="42.45333" lon="2.20633">
        <ele>2093.41</ele>
        <time>2017-05-21T10:33:17Z</time>
      </trkpt>
      <trkpt lat="42.45335" lon="2.20635">
        <ele>2093.41</ele>
        <time>2017-05-21T10:33:30Z</time>
      </trkpt>
      <trkpt lat="42.45336" lon="2.20636">
        <ele>2093.41</ele>
        <time>2017-05-21T10:33:42Z</time>
      </trkpt>
      <trkpt lat="42.45334" lon="2.20637">
        <ele>2093.41</ele>
        <time>2017-05-21T10:34:05Z</time>
      </trkpt>
      <trkpt lat="42.45337" lon="2.20633">
        <ele>2092.93</ele>
        <time>2017-05-21T10:34:17Z</time>
      </trkpt>
      <trkpt lat="42.45345" lon="2.20632">
        <ele>2090.52</ele>
        <time>2017-05-21T10:34:29Z</time>
      </trkpt>
      <trkpt lat="42.45354" lon="2.20627">
        <ele>2090.52</ele>
        <time>2017-05-21T10:34:41Z</time>
      </trkpt>
      <trkpt lat="42.45358" lon="2.20625">
        <ele>2090.52</ele>
        <time>2017-05-21T10:34:52Z</time>
      </trkpt>
      <trkpt lat="42.45359" lon="2.20626">
        <ele>2090.04</ele>
        <time>2017-05-21T10:35:01Z</time>
      </trkpt>
      <trkpt lat="42.4536" lon="2.20627">
        <ele>2091</ele>
        <time>2017-05-21T10:35:09Z</time>
      </trkpt>
      <trkpt lat="42.45363" lon="2.20627">
        <ele>2089.08</ele>
        <time>2017-05-21T10:35:22Z</time>
      </trkpt>
      <trkpt lat="42.45369" lon="2.20625">
        <ele>2088.12</ele>
        <time>2017-05-21T10:35:32Z</time>
      </trkpt>
      <trkpt lat="42.45371" lon="2.20627">
        <ele>2087.64</ele>
        <time>2017-05-21T10:35:51Z</time>
      </trkpt>
      <trkpt lat="42.45372" lon="2.20623">
        <ele>2087.64</ele>
        <time>2017-05-21T10:36:09Z</time>
      </trkpt>
      <trkpt lat="42.45368" lon="2.20624">
        <ele>2087.64</ele>
        <time>2017-05-21T10:36:27Z</time>
      </trkpt>
      <trkpt lat="42.45369" lon="2.20627">
        <ele>2087.64</ele>
        <time>2017-05-21T10:36:43Z</time>
      </trkpt>
      <trkpt lat="42.45372" lon="2.20625">
        <ele>2087.16</ele>
        <time>2017-05-21T10:37:00Z</time>
      </trkpt>
      <trkpt lat="42.45377" lon="2.20628">
        <ele>2085.24</ele>
        <time>2017-05-21T10:37:12Z</time>
      </trkpt>
      <trkpt lat="42.45382" lon="2.20628">
        <ele>2084.76</ele>
        <time>2017-05-21T10:37:22Z</time>
      </trkpt>
      <trkpt lat="42.45389" lon="2.20626">
        <ele>2084.76</ele>
        <time>2017-05-21T10:37:32Z</time>
      </trkpt>
      <trkpt lat="42.45396" lon="2.20627">
        <ele>2084.76</ele>
        <time>2017-05-21T10:37:42Z</time>
      </trkpt>
      <trkpt lat="42.454" lon="2.20625">
        <ele>2084.28</ele>
        <time>2017-05-21T10:37:49Z</time>
      </trkpt>
      <trkpt lat="42.45402" lon="2.20624">
        <ele>2084.76</ele>
        <time>2017-05-21T10:38:01Z</time>
      </trkpt>
      <trkpt lat="42.45402" lon="2.20623">
        <ele>2084.76</ele>
        <time>2017-05-21T10:38:20Z</time>
      </trkpt>
      <trkpt lat="42.45402" lon="2.20621">
        <ele>2084.76</ele>
        <time>2017-05-21T10:38:44Z</time>
      </trkpt>
      <trkpt lat="42.45401" lon="2.20622">
        <ele>2084.76</ele>
        <time>2017-05-21T10:39:11Z</time>
      </trkpt>
      <trkpt lat="42.454" lon="2.20624">
        <ele>2085.72</ele>
        <time>2017-05-21T10:39:24Z</time>
      </trkpt>
      <trkpt lat="42.45405" lon="2.20631">
        <ele>2083.79</ele>
        <time>2017-05-21T10:39:36Z</time>
      </trkpt>
      <trkpt lat="42.45407" lon="2.20637">
        <ele>2082.35</ele>
        <time>2017-05-21T10:39:46Z</time>
      </trkpt>
      <trkpt lat="42.4541" lon="2.20642">
        <ele>2080.43</ele>
        <time>2017-05-21T10:39:57Z</time>
      </trkpt>
      <trkpt lat="42.45412" lon="2.20644">
        <ele>2079.95</ele>
        <time>2017-05-21T10:40:05Z</time>
      </trkpt>
      <trkpt lat="42.45415" lon="2.20645">
        <ele>2079.95</ele>
        <time>2017-05-21T10:40:14Z</time>
      </trkpt>
      <trkpt lat="42.45416" lon="2.20648">
        <ele>2078.99</ele>
        <time>2017-05-21T10:40:20Z</time>
      </trkpt>
      <trkpt lat="42.45412" lon="2.20653">
        <ele>2078.03</ele>
        <time>2017-05-21T10:40:30Z</time>
      </trkpt>
      <trkpt lat="42.45409" lon="2.20657">
        <ele>2076.59</ele>
        <time>2017-05-21T10:40:38Z</time>
      </trkpt>
      <trkpt lat="42.45405" lon="2.20662">
        <ele>2074.66</ele>
        <time>2017-05-21T10:40:49Z</time>
      </trkpt>
      <trkpt lat="42.45407" lon="2.2067">
        <ele>2072.74</ele>
        <time>2017-05-21T10:41:02Z</time>
      </trkpt>
      <trkpt lat="42.45408" lon="2.20671">
        <ele>2074.18</ele>
        <time>2017-05-21T10:41:15Z</time>
      </trkpt>
      <trkpt lat="42.45411" lon="2.20659">
        <ele>2076.59</ele>
        <time>2017-05-21T10:41:28Z</time>
      </trkpt>
      <trkpt lat="42.45417" lon="2.20662">
        <ele>2078.51</ele>
        <time>2017-05-21T10:41:38Z</time>
      </trkpt>
      <trkpt lat="42.45421" lon="2.20666">
        <ele>2080.43</ele>
        <time>2017-05-21T10:41:49Z</time>
      </trkpt>
      <trkpt lat="42.45425" lon="2.20669">
        <ele>2082.83</ele>
        <time>2017-05-21T10:42:03Z</time>
      </trkpt>
      <trkpt lat="42.45429" lon="2.2067">
        <ele>2085.24</ele>
        <time>2017-05-21T10:42:15Z</time>
      </trkpt>
      <trkpt lat="42.45436" lon="2.20673">
        <ele>2086.68</ele>
        <time>2017-05-21T10:42:28Z</time>
      </trkpt>
      <trkpt lat="42.4544" lon="2.20688">
        <ele>2087.64</ele>
        <time>2017-05-21T10:42:40Z</time>
      </trkpt>
      <trkpt lat="42.45444" lon="2.20696">
        <ele>2087.64</ele>
        <time>2017-05-21T10:42:47Z</time>
      </trkpt>
      <trkpt lat="42.45452" lon="2.20711">
        <ele>2087.64</ele>
        <time>2017-05-21T10:43:01Z</time>
      </trkpt>
      <trkpt lat="42.45457" lon="2.20721">
        <ele>2086.2</ele>
        <time>2017-05-21T10:43:11Z</time>
      </trkpt>
      <trkpt lat="42.45458" lon="2.20726">
        <ele>2086.2</ele>
        <time>2017-05-21T10:43:15Z</time>
      </trkpt>
      <trkpt lat="42.4546" lon="2.20733">
        <ele>2086.2</ele>
        <time>2017-05-21T10:43:20Z</time>
      </trkpt>
      <trkpt lat="42.45464" lon="2.20745">
        <ele>2085.72</ele>
        <time>2017-05-21T10:43:28Z</time>
      </trkpt>
      <trkpt lat="42.45468" lon="2.20753">
        <ele>2087.16</ele>
        <time>2017-05-21T10:43:39Z</time>
      </trkpt>
      <trkpt lat="42.4547" lon="2.20756">
        <ele>2084.76</ele>
        <time>2017-05-21T10:43:49Z</time>
      </trkpt>
      <trkpt lat="42.45479" lon="2.2077">
        <ele>2083.79</ele>
        <time>2017-05-21T10:44:02Z</time>
      </trkpt>
      <trkpt lat="42.45484" lon="2.20777">
        <ele>2081.87</ele>
        <time>2017-05-21T10:44:10Z</time>
      </trkpt>
      <trkpt lat="42.45486" lon="2.20783">
        <ele>2081.39</ele>
        <time>2017-05-21T10:44:16Z</time>
      </trkpt>
      <trkpt lat="42.45492" lon="2.20786">
        <ele>2080.43</ele>
        <time>2017-05-21T10:44:23Z</time>
      </trkpt>
      <trkpt lat="42.45494" lon="2.20794">
        <ele>2079.47</ele>
        <time>2017-05-21T10:44:29Z</time>
      </trkpt>
      <trkpt lat="42.45494" lon="2.20796">
        <ele>2078.51</ele>
        <time>2017-05-21T10:44:31Z</time>
      </trkpt>
      <trkpt lat="42.45497" lon="2.208">
        <ele>2078.51</ele>
        <time>2017-05-21T10:44:34Z</time>
      </trkpt>
      <trkpt lat="42.45498" lon="2.20802">
        <ele>2078.51</ele>
        <time>2017-05-21T10:44:36Z</time>
      </trkpt>
      <trkpt lat="42.45502" lon="2.20807">
        <ele>2078.51</ele>
        <time>2017-05-21T10:44:40Z</time>
      </trkpt>
      <trkpt lat="42.45509" lon="2.20817">
        <ele>2078.03</ele>
        <time>2017-05-21T10:44:51Z</time>
      </trkpt>
      <trkpt lat="42.45516" lon="2.20822">
        <ele>2078.03</ele>
        <time>2017-05-21T10:44:59Z</time>
      </trkpt>
      <trkpt lat="42.45526" lon="2.20832">
        <ele>2077.07</ele>
        <time>2017-05-21T10:45:11Z</time>
      </trkpt>
      <trkpt lat="42.45533" lon="2.20839">
        <ele>2076.1</ele>
        <time>2017-05-21T10:45:22Z</time>
      </trkpt>
      <trkpt lat="42.45536" lon="2.20842">
        <ele>2074.18</ele>
        <time>2017-05-21T10:45:31Z</time>
      </trkpt>
      <trkpt lat="42.45538" lon="2.20845">
        <ele>2073.22</ele>
        <time>2017-05-21T10:45:39Z</time>
      </trkpt>
      <trkpt lat="42.45544" lon="2.20848">
        <ele>2070.82</ele>
        <time>2017-05-21T10:45:49Z</time>
      </trkpt>
      <trkpt lat="42.45553" lon="2.20845">
        <ele>2068.41</ele>
        <time>2017-05-21T10:46:02Z</time>
      </trkpt>
      <trkpt lat="42.4556" lon="2.20844">
        <ele>2065.53</ele>
        <time>2017-05-21T10:46:14Z</time>
      </trkpt>
      <trkpt lat="42.45565" lon="2.20848">
        <ele>2065.05</ele>
        <time>2017-05-21T10:46:21Z</time>
      </trkpt>
      <trkpt lat="42.45568" lon="2.2086">
        <ele>2063.13</ele>
        <time>2017-05-21T10:46:29Z</time>
      </trkpt>
      <trkpt lat="42.45574" lon="2.20877">
        <ele>2061.68</ele>
        <time>2017-05-21T10:46:43Z</time>
      </trkpt>
      <trkpt lat="42.45576" lon="2.20879">
        <ele>2061.68</ele>
        <time>2017-05-21T10:46:46Z</time>
      </trkpt>
      <trkpt lat="42.45579" lon="2.20885">
        <ele>2060.72</ele>
        <time>2017-05-21T10:46:50Z</time>
      </trkpt>
      <trkpt lat="42.45584" lon="2.20906">
        <ele>2059.76</ele>
        <time>2017-05-21T10:47:03Z</time>
      </trkpt>
      <trkpt lat="42.45584" lon="2.20918">
        <ele>2061.68</ele>
        <time>2017-05-21T10:47:13Z</time>
      </trkpt>
      <trkpt lat="42.45584" lon="2.20919">
        <ele>2061.68</ele>
        <time>2017-05-21T10:47:14Z</time>
      </trkpt>
      <trkpt lat="42.45582" lon="2.20931">
        <ele>2062.17</ele>
        <time>2017-05-21T10:47:25Z</time>
      </trkpt>
      <trkpt lat="42.45582" lon="2.20936">
        <ele>2062.17</ele>
        <time>2017-05-21T10:47:36Z</time>
      </trkpt>
      <trkpt lat="42.45579" lon="2.20937">
        <ele>2062.17</ele>
        <time>2017-05-21T10:47:45Z</time>
      </trkpt>
      <trkpt lat="42.45579" lon="2.20946">
        <ele>2060.24</ele>
        <time>2017-05-21T10:47:55Z</time>
      </trkpt>
      <trkpt lat="42.4558" lon="2.20949">
        <ele>2060.24</ele>
        <time>2017-05-21T10:47:59Z</time>
      </trkpt>
      <trkpt lat="42.45583" lon="2.2096">
        <ele>2060.24</ele>
        <time>2017-05-21T10:48:09Z</time>
      </trkpt>
      <trkpt lat="42.45583" lon="2.20975">
        <ele>2060.24</ele>
        <time>2017-05-21T10:48:19Z</time>
      </trkpt>
      <trkpt lat="42.45579" lon="2.20983">
        <ele>2058.32</ele>
        <time>2017-05-21T10:48:31Z</time>
      </trkpt>
      <trkpt lat="42.45574" lon="2.20992">
        <ele>2055.44</ele>
        <time>2017-05-21T10:48:43Z</time>
      </trkpt>
      <trkpt lat="42.45574" lon="2.20999">
        <ele>2053.03</ele>
        <time>2017-05-21T10:48:53Z</time>
      </trkpt>
      <trkpt lat="42.45579" lon="2.21005">
        <ele>2052.55</ele>
        <time>2017-05-21T10:49:02Z</time>
      </trkpt>
      <trkpt lat="42.45583" lon="2.21008">
        <ele>2052.07</ele>
        <time>2017-05-21T10:49:12Z</time>
      </trkpt>
      <trkpt lat="42.4559" lon="2.21013">
        <ele>2050.15</ele>
        <time>2017-05-21T10:49:24Z</time>
      </trkpt>
      <trkpt lat="42.45597" lon="2.21016">
        <ele>2048.71</ele>
        <time>2017-05-21T10:49:34Z</time>
      </trkpt>
      <trkpt lat="42.45603" lon="2.21025">
        <ele>2048.23</ele>
        <time>2017-05-21T10:49:44Z</time>
      </trkpt>
      <trkpt lat="42.45609" lon="2.21028">
        <ele>2049.67</ele>
        <time>2017-05-21T10:49:54Z</time>
      </trkpt>
      <trkpt lat="42.45614" lon="2.21033">
        <ele>2051.11</ele>
        <time>2017-05-21T10:50:03Z</time>
      </trkpt>
      <trkpt lat="42.45619" lon="2.2104">
        <ele>2051.11</ele>
        <time>2017-05-21T10:50:15Z</time>
      </trkpt>
      <trkpt lat="42.45619" lon="2.21042">
        <ele>2051.59</ele>
        <time>2017-05-21T10:50:24Z</time>
      </trkpt>
      <trkpt lat="42.4562" lon="2.2104">
        <ele>2049.67</ele>
        <time>2017-05-21T10:50:33Z</time>
      </trkpt>
      <trkpt lat="42.45628" lon="2.2104">
        <ele>2049.19</ele>
        <time>2017-05-21T10:50:43Z</time>
      </trkpt>
      <trkpt lat="42.4563" lon="2.21042">
        <ele>2049.19</ele>
        <time>2017-05-21T10:50:46Z</time>
      </trkpt>
      <trkpt lat="42.45635" lon="2.21051">
        <ele>2047.75</ele>
        <time>2017-05-21T10:50:57Z</time>
      </trkpt>
      <trkpt lat="42.4564" lon="2.21056">
        <ele>2047.75</ele>
        <time>2017-05-21T10:51:06Z</time>
      </trkpt>
      <trkpt lat="42.45644" lon="2.21064">
        <ele>2049.19</ele>
        <time>2017-05-21T10:51:17Z</time>
      </trkpt>
      <trkpt lat="42.45648" lon="2.21071">
        <ele>2048.71</ele>
        <time>2017-05-21T10:51:30Z</time>
      </trkpt>
      <trkpt lat="42.4565" lon="2.21078">
        <ele>2048.71</ele>
        <time>2017-05-21T10:51:39Z</time>
      </trkpt>
      <trkpt lat="42.45647" lon="2.21087">
        <ele>2048.71</ele>
        <time>2017-05-21T10:51:49Z</time>
      </trkpt>
      <trkpt lat="42.45644" lon="2.21096">
        <ele>2048.23</ele>
        <time>2017-05-21T10:51:55Z</time>
      </trkpt>
      <trkpt lat="42.45645" lon="2.21108">
        <ele>2046.78</ele>
        <time>2017-05-21T10:52:08Z</time>
      </trkpt>
      <trkpt lat="42.45645" lon="2.21114">
        <ele>2045.34</ele>
        <time>2017-05-21T10:52:19Z</time>
      </trkpt>
      <trkpt lat="42.45648" lon="2.21119">
        <ele>2044.38</ele>
        <time>2017-05-21T10:52:31Z</time>
      </trkpt>
      <trkpt lat="42.4566" lon="2.21142">
        <ele>2045.34</ele>
        <time>2017-05-21T10:52:41Z</time>
      </trkpt>
      <trkpt lat="42.45669" lon="2.21153">
        <ele>2045.82</ele>
        <time>2017-05-21T10:52:53Z</time>
      </trkpt>
      <trkpt lat="42.45671" lon="2.21155">
        <ele>2045.82</ele>
        <time>2017-05-21T10:53:06Z</time>
      </trkpt>
      <trkpt lat="42.45674" lon="2.2116">
        <ele>2045.82</ele>
        <time>2017-05-21T10:53:21Z</time>
      </trkpt>
      <trkpt lat="42.45673" lon="2.21168">
        <ele>2044.38</ele>
        <time>2017-05-21T10:53:29Z</time>
      </trkpt>
      <trkpt lat="42.45674" lon="2.21177">
        <ele>2041.98</ele>
        <time>2017-05-21T10:53:43Z</time>
      </trkpt>
      <trkpt lat="42.45682" lon="2.21182">
        <ele>2040.05</ele>
        <time>2017-05-21T10:53:57Z</time>
      </trkpt>
      <trkpt lat="42.45684" lon="2.21182">
        <ele>2040.54</ele>
        <time>2017-05-21T10:54:06Z</time>
      </trkpt>
      <trkpt lat="42.45685" lon="2.21183">
        <ele>2040.05</ele>
        <time>2017-05-21T10:54:15Z</time>
      </trkpt>
      <trkpt lat="42.45697" lon="2.21186">
        <ele>2038.61</ele>
        <time>2017-05-21T10:54:29Z</time>
      </trkpt>
      <trkpt lat="42.45703" lon="2.2119">
        <ele>2036.69</ele>
        <time>2017-05-21T10:54:41Z</time>
      </trkpt>
      <trkpt lat="42.4571" lon="2.2119">
        <ele>2035.25</ele>
        <time>2017-05-21T10:54:51Z</time>
      </trkpt>
      <trkpt lat="42.45716" lon="2.2119">
        <ele>2033.81</ele>
        <time>2017-05-21T10:55:03Z</time>
      </trkpt>
      <trkpt lat="42.45722" lon="2.21188">
        <ele>2032.84</ele>
        <time>2017-05-21T10:55:14Z</time>
      </trkpt>
      <trkpt lat="42.4573" lon="2.21188">
        <ele>2030.92</ele>
        <time>2017-05-21T10:55:26Z</time>
      </trkpt>
      <trkpt lat="42.45734" lon="2.2119">
        <ele>2029.48</ele>
        <time>2017-05-21T10:55:37Z</time>
      </trkpt>
      <trkpt lat="42.4574" lon="2.21193">
        <ele>2027.08</ele>
        <time>2017-05-21T10:55:50Z</time>
      </trkpt>
      <trkpt lat="42.45743" lon="2.21201">
        <ele>2025.15</ele>
        <time>2017-05-21T10:56:01Z</time>
      </trkpt>
      <trkpt lat="42.45744" lon="2.21209">
        <ele>2024.19</ele>
        <time>2017-05-21T10:56:13Z</time>
      </trkpt>
      <trkpt lat="42.45744" lon="2.21217">
        <ele>2021.79</ele>
        <time>2017-05-21T10:56:26Z</time>
      </trkpt>
      <trkpt lat="42.4574" lon="2.21223">
        <ele>2020.83</ele>
        <time>2017-05-21T10:56:37Z</time>
      </trkpt>
      <trkpt lat="42.45742" lon="2.2123">
        <ele>2017.94</ele>
        <time>2017-05-21T10:56:49Z</time>
      </trkpt>
      <trkpt lat="42.45747" lon="2.21234">
        <ele>2016.5</ele>
        <time>2017-05-21T10:56:59Z</time>
      </trkpt>
      <trkpt lat="42.45745" lon="2.21239">
        <ele>2014.58</ele>
        <time>2017-05-21T10:57:10Z</time>
      </trkpt>
      <trkpt lat="42.45748" lon="2.21245">
        <ele>2013.14</ele>
        <time>2017-05-21T10:57:21Z</time>
      </trkpt>
      <trkpt lat="42.45748" lon="2.21249">
        <ele>2011.7</ele>
        <time>2017-05-21T10:57:33Z</time>
      </trkpt>
      <trkpt lat="42.45751" lon="2.21255">
        <ele>2010.73</ele>
        <time>2017-05-21T10:57:44Z</time>
      </trkpt>
      <trkpt lat="42.45754" lon="2.21258">
        <ele>2008.81</ele>
        <time>2017-05-21T10:57:54Z</time>
      </trkpt>
      <trkpt lat="42.45753" lon="2.21266">
        <ele>2006.89</ele>
        <time>2017-05-21T10:58:05Z</time>
      </trkpt>
      <trkpt lat="42.4575" lon="2.21269">
        <ele>2004.97</ele>
        <time>2017-05-21T10:58:17Z</time>
      </trkpt>
      <trkpt lat="42.45749" lon="2.21271">
        <ele>2003.04</ele>
        <time>2017-05-21T10:58:28Z</time>
      </trkpt>
      <trkpt lat="42.45751" lon="2.21279">
        <ele>2001.6</ele>
        <time>2017-05-21T10:58:39Z</time>
      </trkpt>
      <trkpt lat="42.45757" lon="2.21285">
        <ele>1999.2</ele>
        <time>2017-05-21T10:58:51Z</time>
      </trkpt>
      <trkpt lat="42.4576" lon="2.21287">
        <ele>1999.2</ele>
        <time>2017-05-21T10:59:05Z</time>
      </trkpt>
      <trkpt lat="42.45767" lon="2.21296">
        <ele>1997.76</ele>
        <time>2017-05-21T10:59:17Z</time>
      </trkpt>
      <trkpt lat="42.45769" lon="2.21305">
        <ele>1995.35</ele>
        <time>2017-05-21T10:59:28Z</time>
      </trkpt>
      <trkpt lat="42.45768" lon="2.21313">
        <ele>1994.39</ele>
        <time>2017-05-21T10:59:39Z</time>
      </trkpt>
      <trkpt lat="42.45766" lon="2.21318">
        <ele>1992.95</ele>
        <time>2017-05-21T10:59:50Z</time>
      </trkpt>
      <trkpt lat="42.4577" lon="2.21327">
        <ele>1991.03</ele>
        <time>2017-05-21T11:00:01Z</time>
      </trkpt>
      <trkpt lat="42.45772" lon="2.21333">
        <ele>1989.59</ele>
        <time>2017-05-21T11:00:13Z</time>
      </trkpt>
      <trkpt lat="42.45774" lon="2.21339">
        <ele>1988.14</ele>
        <time>2017-05-21T11:00:25Z</time>
      </trkpt>
      <trkpt lat="42.45776" lon="2.21344">
        <ele>1986.22</ele>
        <time>2017-05-21T11:00:37Z</time>
      </trkpt>
      <trkpt lat="42.45783" lon="2.21355">
        <ele>1985.74</ele>
        <time>2017-05-21T11:00:49Z</time>
      </trkpt>
      <trkpt lat="42.45787" lon="2.21361">
        <ele>1984.3</ele>
        <time>2017-05-21T11:01:00Z</time>
      </trkpt>
      <trkpt lat="42.45791" lon="2.21367">
        <ele>1981.9</ele>
        <time>2017-05-21T11:01:11Z</time>
      </trkpt>
      <trkpt lat="42.45793" lon="2.21374">
        <ele>1980.45</ele>
        <time>2017-05-21T11:01:23Z</time>
      </trkpt>
      <trkpt lat="42.45796" lon="2.21387">
        <ele>1979.01</ele>
        <time>2017-05-21T11:01:35Z</time>
      </trkpt>
      <trkpt lat="42.45797" lon="2.21393">
        <ele>1977.09</ele>
        <time>2017-05-21T11:01:44Z</time>
      </trkpt>
      <trkpt lat="42.45802" lon="2.21403">
        <ele>1975.17</ele>
        <time>2017-05-21T11:01:55Z</time>
      </trkpt>
      <trkpt lat="42.45804" lon="2.2141">
        <ele>1973.24</ele>
        <time>2017-05-21T11:02:05Z</time>
      </trkpt>
      <trkpt lat="42.45805" lon="2.21414">
        <ele>1971.8</ele>
        <time>2017-05-21T11:02:16Z</time>
      </trkpt>
      <trkpt lat="42.45808" lon="2.21423">
        <ele>1969.88</ele>
        <time>2017-05-21T11:02:28Z</time>
      </trkpt>
      <trkpt lat="42.45809" lon="2.21426">
        <ele>1968.44</ele>
        <time>2017-05-21T11:02:37Z</time>
      </trkpt>
      <trkpt lat="42.45809" lon="2.21431">
        <ele>1966.51</ele>
        <time>2017-05-21T11:02:48Z</time>
      </trkpt>
      <trkpt lat="42.45811" lon="2.21431">
        <ele>1965.07</ele>
        <time>2017-05-21T11:02:58Z</time>
      </trkpt>
      <trkpt lat="42.45809" lon="2.21436">
        <ele>1963.63</ele>
        <time>2017-05-21T11:03:06Z</time>
      </trkpt>
      <trkpt lat="42.45809" lon="2.21444">
        <ele>1961.71</ele>
        <time>2017-05-21T11:03:16Z</time>
      </trkpt>
      <trkpt lat="42.45806" lon="2.21465">
        <ele>1959.78</ele>
        <time>2017-05-21T11:03:27Z</time>
      </trkpt>
      <trkpt lat="42.45806" lon="2.21483">
        <ele>1956.9</ele>
        <time>2017-05-21T11:03:37Z</time>
      </trkpt>
      <trkpt lat="42.45807" lon="2.21494">
        <ele>1955.94</ele>
        <time>2017-05-21T11:03:47Z</time>
      </trkpt>
      <trkpt lat="42.45808" lon="2.21499">
        <ele>1954.02</ele>
        <time>2017-05-21T11:03:59Z</time>
      </trkpt>
      <trkpt lat="42.45811" lon="2.21502">
        <ele>1953.54</ele>
        <time>2017-05-21T11:04:09Z</time>
      </trkpt>
      <trkpt lat="42.45812" lon="2.215">
        <ele>1954.98</ele>
        <time>2017-05-21T11:04:32Z</time>
      </trkpt>
      <trkpt lat="42.45813" lon="2.21501">
        <ele>1954.98</ele>
        <time>2017-05-21T11:04:53Z</time>
      </trkpt>
      <trkpt lat="42.45814" lon="2.21503">
        <ele>1954.98</ele>
        <time>2017-05-21T11:05:07Z</time>
      </trkpt>
      <trkpt lat="42.45816" lon="2.21508">
        <ele>1953.54</ele>
        <time>2017-05-21T11:05:13Z</time>
      </trkpt>
      <trkpt lat="42.45813" lon="2.2152">
        <ele>1952.09</ele>
        <time>2017-05-21T11:05:23Z</time>
      </trkpt>
      <trkpt lat="42.45809" lon="2.21523">
        <ele>1950.17</ele>
        <time>2017-05-21T11:05:33Z</time>
      </trkpt>
      <trkpt lat="42.45811" lon="2.21531">
        <ele>1948.25</ele>
        <time>2017-05-21T11:05:45Z</time>
      </trkpt>
      <trkpt lat="42.45815" lon="2.21542">
        <ele>1946.81</ele>
        <time>2017-05-21T11:05:58Z</time>
      </trkpt>
      <trkpt lat="42.45817" lon="2.21548">
        <ele>1944.4</ele>
        <time>2017-05-21T11:06:08Z</time>
      </trkpt>
      <trkpt lat="42.45822" lon="2.21557">
        <ele>1943.44</ele>
        <time>2017-05-21T11:06:19Z</time>
      </trkpt>
      <trkpt lat="42.45823" lon="2.21565">
        <ele>1941.04</ele>
        <time>2017-05-21T11:06:31Z</time>
      </trkpt>
      <trkpt lat="42.45826" lon="2.2157">
        <ele>1939.6</ele>
        <time>2017-05-21T11:06:43Z</time>
      </trkpt>
      <trkpt lat="42.45829" lon="2.21582">
        <ele>1938.16</ele>
        <time>2017-05-21T11:06:53Z</time>
      </trkpt>
      <trkpt lat="42.45834" lon="2.21587">
        <ele>1938.16</ele>
        <time>2017-05-21T11:07:01Z</time>
      </trkpt>
      <trkpt lat="42.45839" lon="2.2159">
        <ele>1937.19</ele>
        <time>2017-05-21T11:07:13Z</time>
      </trkpt>
      <trkpt lat="42.4584" lon="2.21594">
        <ele>1937.19</ele>
        <time>2017-05-21T11:07:29Z</time>
      </trkpt>
      <trkpt lat="42.45842" lon="2.21606">
        <ele>1935.27</ele>
        <time>2017-05-21T11:07:40Z</time>
      </trkpt>
      <trkpt lat="42.45847" lon="2.21609">
        <ele>1933.83</ele>
        <time>2017-05-21T11:07:51Z</time>
      </trkpt>
      <trkpt lat="42.45849" lon="2.21619">
        <ele>1931.91</ele>
        <time>2017-05-21T11:08:05Z</time>
      </trkpt>
      <trkpt lat="42.45852" lon="2.21627">
        <ele>1930.95</ele>
        <time>2017-05-21T11:08:15Z</time>
      </trkpt>
      <trkpt lat="42.45854" lon="2.21635">
        <ele>1930.95</ele>
        <time>2017-05-21T11:08:25Z</time>
      </trkpt>
      <trkpt lat="42.45856" lon="2.21643">
        <ele>1929.98</ele>
        <time>2017-05-21T11:08:33Z</time>
      </trkpt>
      <trkpt lat="42.4586" lon="2.21648">
        <ele>1929.5</ele>
        <time>2017-05-21T11:08:42Z</time>
      </trkpt>
      <trkpt lat="42.45864" lon="2.21656">
        <ele>1928.54</ele>
        <time>2017-05-21T11:08:52Z</time>
      </trkpt>
      <trkpt lat="42.45867" lon="2.21663">
        <ele>1927.1</ele>
        <time>2017-05-21T11:09:04Z</time>
      </trkpt>
      <trkpt lat="42.45875" lon="2.21671">
        <ele>1926.14</ele>
        <time>2017-05-21T11:09:13Z</time>
      </trkpt>
      <trkpt lat="42.4588" lon="2.21677">
        <ele>1925.18</ele>
        <time>2017-05-21T11:09:22Z</time>
      </trkpt>
      <trkpt lat="42.45886" lon="2.21687">
        <ele>1924.22</ele>
        <time>2017-05-21T11:09:33Z</time>
      </trkpt>
      <trkpt lat="42.45895" lon="2.2169">
        <ele>1922.77</ele>
        <time>2017-05-21T11:09:45Z</time>
      </trkpt>
      <trkpt lat="42.45897" lon="2.21696">
        <ele>1921.33</ele>
        <time>2017-05-21T11:09:54Z</time>
      </trkpt>
      <trkpt lat="42.45899" lon="2.21705">
        <ele>1919.89</ele>
        <time>2017-05-21T11:10:04Z</time>
      </trkpt>
      <trkpt lat="42.45906" lon="2.21709">
        <ele>1918.93</ele>
        <time>2017-05-21T11:10:15Z</time>
      </trkpt>
      <trkpt lat="42.4591" lon="2.21715">
        <ele>1917.97</ele>
        <time>2017-05-21T11:10:25Z</time>
      </trkpt>
      <trkpt lat="42.45919" lon="2.21722">
        <ele>1917.49</ele>
        <time>2017-05-21T11:10:34Z</time>
      </trkpt>
      <trkpt lat="42.45927" lon="2.21723">
        <ele>1916.04</ele>
        <time>2017-05-21T11:10:43Z</time>
      </trkpt>
      <trkpt lat="42.4593" lon="2.21722">
        <ele>1916.04</ele>
        <time>2017-05-21T11:10:47Z</time>
      </trkpt>
      <trkpt lat="42.45928" lon="2.21725">
        <ele>1917.01</ele>
        <time>2017-05-21T11:10:49Z</time>
      </trkpt>
      <trkpt lat="42.45929" lon="2.21723">
        <ele>1915.08</ele>
        <time>2017-05-21T11:11:03Z</time>
      </trkpt>
      <trkpt lat="42.45937" lon="2.21727">
        <ele>1914.12</ele>
        <time>2017-05-21T11:11:14Z</time>
      </trkpt>
      <trkpt lat="42.45942" lon="2.21727">
        <ele>1913.16</ele>
        <time>2017-05-21T11:11:24Z</time>
      </trkpt>
      <trkpt lat="42.45948" lon="2.21724">
        <ele>1913.16</ele>
        <time>2017-05-21T11:11:34Z</time>
      </trkpt>
      <trkpt lat="42.45954" lon="2.21727">
        <ele>1913.16</ele>
        <time>2017-05-21T11:11:45Z</time>
      </trkpt>
      <trkpt lat="42.45961" lon="2.21728">
        <ele>1913.16</ele>
        <time>2017-05-21T11:11:57Z</time>
      </trkpt>
      <trkpt lat="42.45967" lon="2.21733">
        <ele>1912.68</ele>
        <time>2017-05-21T11:12:08Z</time>
      </trkpt>
      <trkpt lat="42.45968" lon="2.21736">
        <ele>1912.2</ele>
        <time>2017-05-21T11:12:17Z</time>
      </trkpt>
      <trkpt lat="42.45975" lon="2.21741">
        <ele>1910.28</ele>
        <time>2017-05-21T11:12:31Z</time>
      </trkpt>
      <trkpt lat="42.45984" lon="2.21741">
        <ele>1910.28</ele>
        <time>2017-05-21T11:12:42Z</time>
      </trkpt>
      <trkpt lat="42.45989" lon="2.21741">
        <ele>1910.28</ele>
        <time>2017-05-21T11:12:51Z</time>
      </trkpt>
      <trkpt lat="42.45997" lon="2.21742">
        <ele>1910.28</ele>
        <time>2017-05-21T11:12:59Z</time>
      </trkpt>
      <trkpt lat="42.46004" lon="2.21743">
        <ele>1909.8</ele>
        <time>2017-05-21T11:13:08Z</time>
      </trkpt>
      <trkpt lat="42.46009" lon="2.21747">
        <ele>1909.32</ele>
        <time>2017-05-21T11:13:17Z</time>
      </trkpt>
      <trkpt lat="42.46012" lon="2.21759">
        <ele>1907.39</ele>
        <time>2017-05-21T11:13:29Z</time>
      </trkpt>
      <trkpt lat="42.46016" lon="2.21763">
        <ele>1906.43</ele>
        <time>2017-05-21T11:13:37Z</time>
      </trkpt>
      <trkpt lat="42.46021" lon="2.21767">
        <ele>1906.91</ele>
        <time>2017-05-21T11:13:46Z</time>
      </trkpt>
      <trkpt lat="42.46028" lon="2.21767">
        <ele>1905.95</ele>
        <time>2017-05-21T11:13:58Z</time>
      </trkpt>
      <trkpt lat="42.46033" lon="2.21773">
        <ele>1904.03</ele>
        <time>2017-05-21T11:14:09Z</time>
      </trkpt>
      <trkpt lat="42.46039" lon="2.21777">
        <ele>1902.59</ele>
        <time>2017-05-21T11:14:21Z</time>
      </trkpt>
      <trkpt lat="42.46041" lon="2.21779">
        <ele>1901.14</ele>
        <time>2017-05-21T11:14:31Z</time>
      </trkpt>
      <trkpt lat="42.46038" lon="2.21777">
        <ele>1900.66</ele>
        <time>2017-05-21T11:14:43Z</time>
      </trkpt>
      <trkpt lat="42.46041" lon="2.2178">
        <ele>1900.18</ele>
        <time>2017-05-21T11:14:54Z</time>
      </trkpt>
      <trkpt lat="42.46046" lon="2.21789">
        <ele>1898.74</ele>
        <time>2017-05-21T11:15:07Z</time>
      </trkpt>
      <trkpt lat="42.46051" lon="2.21796">
        <ele>1896.82</ele>
        <time>2017-05-21T11:15:22Z</time>
      </trkpt>
      <trkpt lat="42.46053" lon="2.21799">
        <ele>1895.38</ele>
        <time>2017-05-21T11:15:31Z</time>
      </trkpt>
      <trkpt lat="42.46055" lon="2.21809">
        <ele>1894.42</ele>
        <time>2017-05-21T11:15:44Z</time>
      </trkpt>
      <trkpt lat="42.46061" lon="2.21821">
        <ele>1892.49</ele>
        <time>2017-05-21T11:15:58Z</time>
      </trkpt>
      <trkpt lat="42.46065" lon="2.2183">
        <ele>1890.57</ele>
        <time>2017-05-21T11:16:09Z</time>
      </trkpt>
      <trkpt lat="42.46069" lon="2.21838">
        <ele>1890.09</ele>
        <time>2017-05-21T11:16:21Z</time>
      </trkpt>
      <trkpt lat="42.46074" lon="2.21848">
        <ele>1887.69</ele>
        <time>2017-05-21T11:16:35Z</time>
      </trkpt>
      <trkpt lat="42.4608" lon="2.21851">
        <ele>1889.13</ele>
        <time>2017-05-21T11:16:46Z</time>
      </trkpt>
      <trkpt lat="42.46081" lon="2.2185">
        <ele>1885.28</ele>
        <time>2017-05-21T11:16:50Z</time>
      </trkpt>
      <trkpt lat="42.46081" lon="2.2185">
        <ele>1889.61</ele>
        <time>2017-05-21T11:16:51Z</time>
      </trkpt>
      <trkpt lat="42.46082" lon="2.21851">
        <ele>1887.21</ele>
        <time>2017-05-21T11:17:01Z</time>
      </trkpt>
      <trkpt lat="42.46087" lon="2.21858">
        <ele>1887.21</ele>
        <time>2017-05-21T11:17:12Z</time>
      </trkpt>
      <trkpt lat="42.4609" lon="2.21862">
        <ele>1888.65</ele>
        <time>2017-05-21T11:17:16Z</time>
      </trkpt>
      <trkpt lat="42.46094" lon="2.21865">
        <ele>1890.09</ele>
        <time>2017-05-21T11:17:28Z</time>
      </trkpt>
      <trkpt lat="42.46097" lon="2.21871">
        <ele>1890.57</ele>
        <time>2017-05-21T11:17:41Z</time>
      </trkpt>
      <trkpt lat="42.46097" lon="2.21874">
        <ele>1889.13</ele>
        <time>2017-05-21T11:17:54Z</time>
      </trkpt>
      <trkpt lat="42.461" lon="2.21872">
        <ele>1888.65</ele>
        <time>2017-05-21T11:18:06Z</time>
      </trkpt>
      <trkpt lat="42.46101" lon="2.21876">
        <ele>1887.21</ele>
        <time>2017-05-21T11:18:18Z</time>
      </trkpt>
      <trkpt lat="42.46103" lon="2.21877">
        <ele>1886.24</ele>
        <time>2017-05-21T11:18:31Z</time>
      </trkpt>
      <trkpt lat="42.46105" lon="2.21881">
        <ele>1885.76</ele>
        <time>2017-05-21T11:18:41Z</time>
      </trkpt>
      <trkpt lat="42.46108" lon="2.21883">
        <ele>1884.32</ele>
        <time>2017-05-21T11:18:53Z</time>
      </trkpt>
      <trkpt lat="42.46114" lon="2.21887">
        <ele>1882.4</ele>
        <time>2017-05-21T11:19:06Z</time>
      </trkpt>
      <trkpt lat="42.46116" lon="2.21889">
        <ele>1880.96</ele>
        <time>2017-05-21T11:19:19Z</time>
      </trkpt>
      <trkpt lat="42.46119" lon="2.21893">
        <ele>1879.51</ele>
        <time>2017-05-21T11:19:30Z</time>
      </trkpt>
      <trkpt lat="42.46122" lon="2.21896">
        <ele>1878.07</ele>
        <time>2017-05-21T11:19:44Z</time>
      </trkpt>
      <trkpt lat="42.46126" lon="2.21901">
        <ele>1877.11</ele>
        <time>2017-05-21T11:19:54Z</time>
      </trkpt>
      <trkpt lat="42.46129" lon="2.2191">
        <ele>1877.11</ele>
        <time>2017-05-21T11:20:06Z</time>
      </trkpt>
      <trkpt lat="42.46133" lon="2.21919">
        <ele>1874.71</ele>
        <time>2017-05-21T11:20:17Z</time>
      </trkpt>
      <trkpt lat="42.46133" lon="2.21929">
        <ele>1872.79</ele>
        <time>2017-05-21T11:20:28Z</time>
      </trkpt>
      <trkpt lat="42.46133" lon="2.21941">
        <ele>1870.86</ele>
        <time>2017-05-21T11:20:40Z</time>
      </trkpt>
      <trkpt lat="42.46133" lon="2.21952">
        <ele>1870.38</ele>
        <time>2017-05-21T11:20:49Z</time>
      </trkpt>
      <trkpt lat="42.46134" lon="2.21967">
        <ele>1869.42</ele>
        <time>2017-05-21T11:21:01Z</time>
      </trkpt>
      <trkpt lat="42.46137" lon="2.21982">
        <ele>1867.98</ele>
        <time>2017-05-21T11:21:11Z</time>
      </trkpt>
      <trkpt lat="42.4614" lon="2.21993">
        <ele>1867.02</ele>
        <time>2017-05-21T11:21:21Z</time>
      </trkpt>
      <trkpt lat="42.46144" lon="2.22004">
        <ele>1866.06</ele>
        <time>2017-05-21T11:21:30Z</time>
      </trkpt>
      <trkpt lat="42.46149" lon="2.22016">
        <ele>1864.61</ele>
        <time>2017-05-21T11:21:40Z</time>
      </trkpt>
      <trkpt lat="42.46151" lon="2.22023">
        <ele>1866.06</ele>
        <time>2017-05-21T11:21:47Z</time>
      </trkpt>
      <trkpt lat="42.46158" lon="2.22036">
        <ele>1866.06</ele>
        <time>2017-05-21T11:22:00Z</time>
      </trkpt>
      <trkpt lat="42.46159" lon="2.22038">
        <ele>1866.06</ele>
        <time>2017-05-21T11:22:02Z</time>
      </trkpt>
      <trkpt lat="42.46165" lon="2.2205">
        <ele>1865.58</ele>
        <time>2017-05-21T11:22:14Z</time>
      </trkpt>
      <trkpt lat="42.46169" lon="2.22061">
        <ele>1864.13</ele>
        <time>2017-05-21T11:22:26Z</time>
      </trkpt>
      <trkpt lat="42.46169" lon="2.22062">
        <ele>1864.13</ele>
        <time>2017-05-21T11:22:27Z</time>
      </trkpt>
      <trkpt lat="42.46175" lon="2.22069">
        <ele>1862.69</ele>
        <time>2017-05-21T11:22:39Z</time>
      </trkpt>
      <trkpt lat="42.46178" lon="2.22077">
        <ele>1861.25</ele>
        <time>2017-05-21T11:22:50Z</time>
      </trkpt>
      <trkpt lat="42.46185" lon="2.22092">
        <ele>1861.25</ele>
        <time>2017-05-21T11:23:02Z</time>
      </trkpt>
      <trkpt lat="42.4619" lon="2.22101">
        <ele>1860.77</ele>
        <time>2017-05-21T11:23:12Z</time>
      </trkpt>
      <trkpt lat="42.46198" lon="2.22107">
        <ele>1860.29</ele>
        <time>2017-05-21T11:23:21Z</time>
      </trkpt>
      <trkpt lat="42.46209" lon="2.22115">
        <ele>1858.85</ele>
        <time>2017-05-21T11:23:31Z</time>
      </trkpt>
      <trkpt lat="42.46221" lon="2.22123">
        <ele>1857.4</ele>
        <time>2017-05-21T11:23:43Z</time>
      </trkpt>
      <trkpt lat="42.46231" lon="2.22128">
        <ele>1855.96</ele>
        <time>2017-05-21T11:23:53Z</time>
      </trkpt>
      <trkpt lat="42.46243" lon="2.22132">
        <ele>1855</ele>
        <time>2017-05-21T11:24:03Z</time>
      </trkpt>
      <trkpt lat="42.46247" lon="2.22136">
        <ele>1854.04</ele>
        <time>2017-05-21T11:24:07Z</time>
      </trkpt>
      <trkpt lat="42.46263" lon="2.22145">
        <ele>1853.56</ele>
        <time>2017-05-21T11:24:20Z</time>
      </trkpt>
      <trkpt lat="42.4627" lon="2.2215">
        <ele>1853.56</ele>
        <time>2017-05-21T11:24:28Z</time>
      </trkpt>
      <trkpt lat="42.46282" lon="2.2215">
        <ele>1852.12</ele>
        <time>2017-05-21T11:24:39Z</time>
      </trkpt>
      <trkpt lat="42.46295" lon="2.22157">
        <ele>1851.64</ele>
        <time>2017-05-21T11:24:50Z</time>
      </trkpt>
      <trkpt lat="42.46303" lon="2.22157">
        <ele>1851.64</ele>
        <time>2017-05-21T11:25:01Z</time>
      </trkpt>
      <trkpt lat="42.46308" lon="2.22159">
        <ele>1850.19</ele>
        <time>2017-05-21T11:25:13Z</time>
      </trkpt>
      <trkpt lat="42.46308" lon="2.2216">
        <ele>1850.19</ele>
        <time>2017-05-21T11:25:28Z</time>
      </trkpt>
      <trkpt lat="42.46316" lon="2.22163">
        <ele>1849.71</ele>
        <time>2017-05-21T11:25:43Z</time>
      </trkpt>
      <trkpt lat="42.46317" lon="2.22163">
        <ele>1849.71</ele>
        <time>2017-05-21T11:25:44Z</time>
      </trkpt>
      <trkpt lat="42.46328" lon="2.22167">
        <ele>1849.71</ele>
        <time>2017-05-21T11:25:56Z</time>
      </trkpt>
      <trkpt lat="42.4633" lon="2.2217">
        <ele>1849.23</ele>
        <time>2017-05-21T11:25:59Z</time>
      </trkpt>
      <trkpt lat="42.46339" lon="2.22181">
        <ele>1846.83</ele>
        <time>2017-05-21T11:26:12Z</time>
      </trkpt>
      <trkpt lat="42.46345" lon="2.22188">
        <ele>1845.39</ele>
        <time>2017-05-21T11:26:20Z</time>
      </trkpt>
      <trkpt lat="42.46352" lon="2.22194">
        <ele>1844.43</ele>
        <time>2017-05-21T11:26:33Z</time>
      </trkpt>
      <trkpt lat="42.46354" lon="2.222">
        <ele>1842.98</ele>
        <time>2017-05-21T11:26:51Z</time>
      </trkpt>
      <trkpt lat="42.4636" lon="2.22209">
        <ele>1842.02</ele>
        <time>2017-05-21T11:27:00Z</time>
      </trkpt>
      <trkpt lat="42.46371" lon="2.22217">
        <ele>1841.54</ele>
        <time>2017-05-21T11:27:11Z</time>
      </trkpt>
      <trkpt lat="42.4638" lon="2.22234">
        <ele>1840.58</ele>
        <time>2017-05-21T11:27:24Z</time>
      </trkpt>
      <trkpt lat="42.46383" lon="2.22238">
        <ele>1840.1</ele>
        <time>2017-05-21T11:27:38Z</time>
      </trkpt>
      <trkpt lat="42.46386" lon="2.22248">
        <ele>1839.62</ele>
        <time>2017-05-21T11:27:55Z</time>
      </trkpt>
      <trkpt lat="42.46393" lon="2.22261">
        <ele>1837.22</ele>
        <time>2017-05-21T11:28:05Z</time>
      </trkpt>
      <trkpt lat="42.46398" lon="2.22276">
        <ele>1836.26</ele>
        <time>2017-05-21T11:28:16Z</time>
      </trkpt>
      <trkpt lat="42.46403" lon="2.22289">
        <ele>1834.81</ele>
        <time>2017-05-21T11:28:27Z</time>
      </trkpt>
      <trkpt lat="42.46407" lon="2.22303">
        <ele>1834.33</ele>
        <time>2017-05-21T11:28:38Z</time>
      </trkpt>
      <trkpt lat="42.46413" lon="2.22319">
        <ele>1833.37</ele>
        <time>2017-05-21T11:28:50Z</time>
      </trkpt>
      <trkpt lat="42.46415" lon="2.2233">
        <ele>1832.89</ele>
        <time>2017-05-21T11:29:00Z</time>
      </trkpt>
      <trkpt lat="42.46416" lon="2.22332">
        <ele>1832.41</ele>
        <time>2017-05-21T11:29:02Z</time>
      </trkpt>
      <trkpt lat="42.46419" lon="2.22336">
        <ele>1831.93</ele>
        <time>2017-05-21T11:29:13Z</time>
      </trkpt>
      <trkpt lat="42.46422" lon="2.22336">
        <ele>1831.93</ele>
        <time>2017-05-21T11:29:38Z</time>
      </trkpt>
      <trkpt lat="42.46422" lon="2.22344">
        <ele>1831.93</ele>
        <time>2017-05-21T11:29:44Z</time>
      </trkpt>
      <trkpt lat="42.46426" lon="2.22357">
        <ele>1831.45</ele>
        <time>2017-05-21T11:29:56Z</time>
      </trkpt>
      <trkpt lat="42.46427" lon="2.22361">
        <ele>1830.97</ele>
        <time>2017-05-21T11:30:15Z</time>
      </trkpt>
      <trkpt lat="42.46428" lon="2.22364">
        <ele>1830.97</ele>
        <time>2017-05-21T11:30:17Z</time>
      </trkpt>
      <trkpt lat="42.4643" lon="2.22378">
        <ele>1830.97</ele>
        <time>2017-05-21T11:30:27Z</time>
      </trkpt>
      <trkpt lat="42.46435" lon="2.22383">
        <ele>1830.49</ele>
        <time>2017-05-21T11:30:38Z</time>
      </trkpt>
      <trkpt lat="42.46434" lon="2.22384">
        <ele>1829.05</ele>
        <time>2017-05-21T11:30:52Z</time>
      </trkpt>
      <trkpt lat="42.46435" lon="2.22382">
        <ele>1830.49</ele>
        <time>2017-05-21T11:31:09Z</time>
      </trkpt>
      <trkpt lat="42.46438" lon="2.22385">
        <ele>1830.49</ele>
        <time>2017-05-21T11:31:21Z</time>
      </trkpt>
      <trkpt lat="42.46439" lon="2.22382">
        <ele>1830.49</ele>
        <time>2017-05-21T11:31:42Z</time>
      </trkpt>
      <trkpt lat="42.46437" lon="2.2238">
        <ele>1830.49</ele>
        <time>2017-05-21T11:32:07Z</time>
      </trkpt>
      <trkpt lat="42.46439" lon="2.22381">
        <ele>1830.01</ele>
        <time>2017-05-21T11:32:31Z</time>
      </trkpt>
      <trkpt lat="42.46438" lon="2.22381">
        <ele>1830.01</ele>
        <time>2017-05-21T11:32:50Z</time>
      </trkpt>
      <trkpt lat="42.46444" lon="2.22383">
        <ele>1830.01</ele>
        <time>2017-05-21T11:54:34Z</time>
      </trkpt>
      <trkpt lat="42.46442" lon="2.22381">
        <ele>1830.01</ele>
        <time>2017-05-21T11:54:35Z</time>
      </trkpt>
      <trkpt lat="42.46439" lon="2.22383">
        <ele>1827.6</ele>
        <time>2017-05-21T11:54:53Z</time>
      </trkpt>
      <trkpt lat="42.46438" lon="2.22383">
        <ele>1828.08</ele>
        <time>2017-05-21T11:55:13Z</time>
      </trkpt>
      <trkpt lat="42.4644" lon="2.22382">
        <ele>1828.08</ele>
        <time>2017-05-21T11:55:37Z</time>
      </trkpt>
      <trkpt lat="42.46437" lon="2.2238">
        <ele>1828.08</ele>
        <time>2017-05-21T11:56:01Z</time>
      </trkpt>
      <trkpt lat="42.46436" lon="2.2238">
        <ele>1828.08</ele>
        <time>2017-05-21T11:56:19Z</time>
      </trkpt>
    </trkseg>
  </trk>
</gpx>